GFSNW_sfc_temp_003.txt.gz
Temp
55 54 55 56 55 54 51 42 36 48 50 37 35 34 38 45 41 44 44 43 41 37 38 36 35 32 37 43 41 36 40 35 29 31 40 43 41 37 36 27 25 28 26 30
54 54 55 55 55 54 46 40 43 49 47 33 35 39 40 43 41 41 42 41 43 42 38 33 34 35 43 43 41 37 39 33 25 26 34 39 34 37 38 37 34 27 24 30
54 55 55 54 54 54 48 42 36 42 44 43 37 36 37 38 45 42 45 42 43 40 38 40 35 35 42 43 43 47 45 36 28 28 32 34 31 35 36 33 28 29 30 34
54 54 54 54 54 53 48 44 37 40 34 38 40 41 40 37 37 43 44 41 43 40 37 38 36 36 39 42 45 44 41 31 33 35 37 34 34 34 35 32 33 29 35 35
54 54 54 54 54 53 45 39 40 39 38 43 41 37 35 37 39 42 40 39 44 44 39 41 35 38 38 38 41 41 42 33 34 32 36 35 32 35 35 36 36 35 37 35
54 54 53 54 54 52 43 44 46 43 42 41 38 35 38 39 43 44 45 44 43 41 43 48 48 48 46 45 42 39 37 33 32 29 36 34 29 34 35 36 39 37 32 40
54 53 53 53 54 52 46 45 43 41 37 40 40 40 42 41 42 40 44 46 43 48 50 50 47 45 41 41 41 44 37 33 33 30 33 26 37 45 43 40 42 42 43 45
54 53 53 53 54 54 46 46 43 42 37 43 42 41 40 40 41 43 43 46 47 51 46 40 37 37 36 37 40 39 42 37 33 30 31 36 40 43 39 38 37 45 43 45
53 53 53 53 53 54 48 46 47 44 40 39 47 42 41 39 39 41 44 47 47 47 42 39 33 27 31 30 33 37 41 41 35 33 29 28 38 42 46 45 37 46 47 47
53 53 53 53 53 53 49 46 48 43 41 43 44 40 40 45 43 41 42 43 40 45 40 35 34 32 34 29 31 32 35 35 32 32 32 34 42 43 46 36 39 42 47 49
53 53 53 53 52 53 49 45 48 42 42 45 48 46 42 42 41 41 43 42 42 41 36 37 36 35 34 30 33 33 33 31 30 32 30 27 42 41 37 43 42 42 45 45
53 53 53 52 52 53 52 43 48 47 42 45 48 50 50 51 51 46 45 43 43 44 40 39 40 37 36 32 29 35 33 37 35 35 36 43 43 43 45 43 41 41 42 41
52 52 52 52 52 52 51 44 45 42 43 45 43 44 50 51 51 54 44 43 48 45 47 43 40 37 38 31 32 32 37 40 38 39 40 41 42 44 42 40 40 40 41 40
52 52 52 51 51 52 51 44 46 42 38 40 40 47 43 47 49 50 51 49 49 48 46 43 41 37 39 35 36 36 39 40 39 38 41 41 42 41 40 39 40 40 41 41
51 51 51 51 51 51 48 46 46 46 39 39 41 44 44 46 47 48 49 48 46 45 43 41 41 42 38 35 35 34 39 41 39 39 44 43 43 41 40 40 38 40 41 39
51 50 51 51 51 51 43 39 45 47 46 41 38 45 44 47 48 47 46 47 46 45 44 43 46 47 42 34 33 43 41 42 44 44 40 40 39 41 40 39 39 40 40 41
50 50 50 50 50 44 39 38 44 48 46 41 37 37 46 48 48 47 47 47 46 45 44 42 44 44 44 41 36 46 44 44 43 42 41 40 39 41 40 40 39 40 38 39
50 50 50 50 50 48 42 45 49 47 42 44 36 36 40 47 43 43 47 45 45 45 44 44 42 42 42 38 43 42 39 40 40 39 39 41 39 39 37 39 40 38 36 37
49 49 49 46 44 40 40 48 48 46 43 39 38 34 31 45 43 43 44 45 41 45 41 42 41 40 37 42 42 42 39 41 41 36 37 38 38 37 38 38 38 37 36 37
48 40 38 36 39 47 46 44 41 40 43 43 39 37 37 40 41 40 41 41 39 34 40 41 37 38 45 46 45 45 41 40 38 36 31 32 33 35 37 39 40 40 39 36
38 34 34 40 45 41 41 36 37 39 36 41 40 37 39 41 37 39 38 35 34 33 34 37 35 34 38 39 41 44 42 41 41 41 41 42 43 40 38 37 37 37 36 34
39 39 41 40 36 33 31 32 35 36 31 38 39 39 37 37 39 36 37 33 34 31 32 33 32 34 35 36 38 39 40 40 41 40 40 40 41 40 39 36 35 35 33 32
38 36 29 30 31 29 29 29 32 33 35 36 36 35 37 36 35 31 31 33 33 31 31 30 30 32 34 35 36 36 38 40 38 36 37 37 35 36 37 33 34 34 32 31
32 28 19 27 28 29 31 30 31 34 34 36 37 35 35 35 29 31 33 34 33 29 26 23 26 30 34 33 34 35 35 36 35 34 35 34 33 31 32 33 34 34 31 30
29 29 16 25 32 32 32 33 33 35 37 36 35 34 34 27 30 30 33 30 28 30 26 26 26 24 29 32 33 33 33 32 31 32 32 31 31 31 28 29 31 32 30 29
30 29 20 31 23 18 31 31 32 36 38 35 35 34 33 29 31 29 29 27 25 30 27 26 23 30 31 32 32 32 33 33 33 33 33 32 31 31 28 30 30 30 29 28
27 28 32 31 27 26 30 33 34 40 35 34 33 32 34 28 23 25 27 26 32 33 25 21 26 23 28 30 31 32 32 33 33 32 33 31 30 31 30 26 27 27 26 26

GFSNW_sfc_temp_006.txt.gz
Temp
55 54 55 55 55 55 50 43 34 52 50 37 36 36 37 47 46 50 48 49 47 44 44 40 41 41 45 51 49 41 47 40 32 37 49 50 48 41 39 29 28 32 33 36
55 55 55 55 55 54 46 39 40 50 47 35 36 40 40 46 45 46 47 45 48 48 44 38 43 43 49 50 48 45 47 35 30 35 40 44 38 43 42 36 34 30 28 36
55 55 54 54 55 54 49 39 34 42 42 47 42 42 42 41 49 47 49 46 48 45 43 45 41 41 46 50 50 48 48 41 34 33 36 42 33 38 37 34 30 35 36 39
55 54 54 54 54 53 48 42 38 42 35 41 47 47 45 42 41 48 50 45 46 44 40 41 40 43 44 46 48 48 46 33 35 38 40 38 36 35 36 32 37 32 40 42
55 54 54 54 54 53 45 37 40 47 43 46 47 43 43 42 43 46 43 44 46 46 43 43 41 44 44 44 48 45 46 34 35 32 39 39 34 37 37 36 38 40 42 41
54 54 54 54 54 52 43 44 46 46 41 42 44 43 44 44 47 47 48 48 46 44 46 50 52 51 50 48 46 43 39 35 33 31 42 40 32 36 37 37 40 41 35 45
54 54 54 54 54 53 46 45 43 43 37 43 45 45 46 45 47 44 47 47 45 50 54 52 49 50 45 46 48 50 40 35 33 30 36 29 43 44 43 40 41 45 46 48
54 54 53 53 53 54 48 46 43 41 41 46 46 47 46 48 49 46 47 48 53 54 50 41 38 38 39 44 46 46 48 40 34 31 32 41 45 45 42 41 43 50 47 49
53 53 53 53 53 53 50 46 47 43 40 44 51 47 47 45 45 45 47 50 52 50 44 40 34 36 40 38 40 44 44 43 36 34 30 32 45 49 49 48 41 51 48 50
53 53 53 53 53 53 50 46 47 42 39 50 51 47 46 50 48 41 43 44 44 49 43 37 35 37 43 38 38 36 35 35 33 33 33 42 49 49 50 41 42 49 50 52
53 52 52 52 52 52 50 47 48 42 38 42 51 53 49 48 50 45 46 44 43 42 37 37 38 37 43 40 44 42 41 37 34 38 35 34 51 49 46 51 52 49 50 48
52 52 52 52 52 52 52 45 49 47 39 43 51 53 55 56 56 49 48 46 45 45 40 40 39 39 43 42 41 46 40 46 46 45 47 52 53 53 56 53 50 50 50 50
52 52 52 52 52 52 51 46 47 43 39 45 47 51 54 56 54 59 49 45 51 47 48 44 41 38 42 41 43 45 47 50 46 46 52 52 54 55 53 49 49 48 49 49
52 52 52 52 51 52 51 45 48 43 38 36 45 51 51 53 53 55 56 53 52 50 47 43 41 39 49 45 45 45 50 48 48 48 53 55 54 53 50 47 48 47 48 48
52 51 51 51 51 51 50 48 48 47 38 36 44 50 50 50 52 52 53 53 50 47 44 42 40 47 41 47 45 45 51 52 50 51 53 54 53 50 48 47 46 46 45 43
51 51 51 51 51 50 46 39 45 47 44 37 39 49 46 49 51 50 49 49 49 48 44 43 46 51 44 43 43 53 55 53 56 56 53 50 49 49 49 47 45 47 46 45
51 51 50 50 50 47 40 39 43 47 45 38 38 40 48 49 49 48 48 49 48 46 45 42 44 46 44 42 42 53 55 55 53 52 51 48 48 50 48 47 45 45 45 45
50 50 49 49 50 48 42 48 49 47 41 41 37 38 43 48 44 44 49 46 45 45 44 44 42 44 43 39 50 54 52 50 50 50 48 48 48 47 44 45 45 43 42 42
49 48 48 47 45 41 43 48 48 45 41 38 39 36 36 47 45 47 45 46 41 46 42 42 42 43 38 46 51 52 53 50 51 44 46 46 46 44 43 44 44 43 42 41
48 43 40 36 41 47 46 43 40 39 41 41 40 44 40 46 44 43 43 43 40 35 41 41 38 39 49 52 53 55 53 49 44 41 36 36 35 38 42 43 46 46 43 41
41 36 34 41 46 41 41 35 35 37 36 42 43 44 42 47 41 42 43 39 36 34 38 38 37 40 46 47 47 48 53 50 48 49 49 48 47 45 44 44 44 43 43 41
40 39 42 40 36 34 33 33 34 36 35 40 40 43 44 43 45 42 40 36 36 33 38 35 34 43 43 43 44 44 48 48 46 47 47 48 47 46 45 42 42 42 39 38
41 38 32 33 34 31 30 27 31 33 36 36 38 37 42 41 42 38 38 34 34 38 33 33 38 42 42 42 42 41 44 46 44 42 43 44 43 42 43 40 40 39 38 38
34 29 24 28 28 30 31 30 31 35 34 36 38 36 38 39 37 38 33 38 37 31 29 31 38 40 40 39 40 40 41 43 42 40 40 38 39 38 39 39 38 37 35 35
31 30 25 28 32 32 33 33 33 35 37 36 36 35 39 35 34 36 35 32 30 33 33 38 39 37 36 39 38 40 40 40 38 38 37 37 36 37 35 36 38 37 35 35
32 29 27 32 29 28 31 33 32 36 37 36 35 34 34 34 34 32 31 30 30 36 35 40 38 38 38 38 38 38 39 39 38 38 38 37 36 36 34 36 36 36 35 33
30 29 33 32 30 27 30 35 35 40 34 33 33 32 33 32 31 30 33 32 36 35 37 35 34 34 37 37 36 36 37 38 37 37 37 36 35 36 35 32 33 33 33 32

GFSNW_sfc_temp_009.txt.gz
Temp
55 55 55 55 55 55 51 45 35 50 57 36 39 37 38 46 48 51 50 52 51 49 48 46 47 46 48 55 54 44 50 42 33 39 50 53 49 42 40 30 31 33 34 35
55 55 55 55 55 55 48 43 41 51 49 35 37 38 40 48 46 48 50 48 52 53 49 43 48 48 53 54 51 48 48 38 31 35 43 49 43 46 46 42 37 30 28 37
55 55 54 54 55 55 49 38 35 41 43 46 45 38 39 42 49 50 52 50 53 50 48 49 46 45 49 53 53 49 52 43 35 34 38 44 35 40 42 37 31 35 37 40
55 55 54 54 54 54 51 40 40 45 37 41 44 46 45 41 42 51 53 48 50 49 44 45 44 47 48 50 51 50 48 33 37 41 43 42 40 39 40 33 36 31 39 42
55 54 54 54 54 54 46 38 39 45 46 51 50 47 46 45 46 49 46 47 50 50 47 48 43 47 47 46 49 47 47 36 36 33 41 42 38 43 41 39 38 36 36 37
55 54 54 54 54 54 44 46 48 42 42 47 48 48 48 47 50 49 52 51 50 47 49 53 53 54 53 52 48 44 41 35 33 32 44 42 35 39 38 38 41 39 34 42
54 54 54 54 54 53 47 45 44 42 38 47 47 49 49 48 50 47 49 52 49 51 58 55 52 51 50 49 46 48 41 35 34 31 36 30 47 50 47 42 45 48 47 48
54 54 54 53 53 53 49 47 43 41 43 50 49 50 49 51 51 48 48 50 53 56 52 46 42 39 39 44 45 44 48 42 34 31 33 42 47 50 44 40 43 51 45 48
53 53 53 53 53 53 53 48 47 42 40 48 54 51 51 48 48 48 50 53 56 53 47 41 33 34 43 39 39 46 47 45 36 37 30 31 48 52 52 48 41 52 50 47
53 53 52 53 53 53 52 50 50 43 39 52 53 50 50 54 52 44 45 46 45 49 43 38 35 35 46 39 40 37 36 36 32 33 31 42 56 54 53 41 44 52 50 50
52 52 52 53 52 52 51 49 51 43 38 42 52 56 53 53 53 45 48 46 45 44 38 37 37 37 45 43 48 43 41 37 36 36 32 33 56 55 46 52 56 54 53 48
52 52 52 52 52 52 52 44 53 49 39 42 49 54 58 57 59 56 50 49 49 48 40 40 40 37 45 46 40 51 43 50 47 47 48 59 60 56 59 57 53 54 52 53
52 52 52 52 52 52 51 47 49 48 39 43 46 52 59 60 60 61 51 51 51 51 51 43 42 38 43 38 44 48 52 56 49 49 57 58 60 61 57 54 53 53 53 54
52 52 52 52 52 52 51 46 50 46 38 35 45 54 54 57 57 57 57 56 54 51 48 43 41 38 49 45 48 47 52 51 51 52 57 60 57 56 54 51 52 52 53 53
52 51 52 52 51 51 51 51 51 50 41 36 42 52 51 54 56 56 57 57 54 48 44 41 40 44 46 50 49 47 55 53 50 51 58 57 56 54 53 51 50 50 49 47
51 51 51 51 51 51 47 40 47 50 48 37 38 50 48 51 53 53 53 53 50 47 45 43 45 50 45 40 43 56 61 62 62 59 58 56 54 53 53 51 50 49 47 46
51 50 50 50 50 47 40 40 42 47 45 38 37 41 48 50 50 49 48 50 47 47 44 43 45 46 44 42 41 56 59 60 60 59 56 52 52 52 51 50 49 49 48 48
50 50 49 49 49 48 43 48 49 47 41 40 36 40 45 50 45 45 50 46 47 45 45 45 43 44 44 40 50 55 58 60 57 57 56 53 53 51 48 48 47 45 45 45
49 49 48 48 47 43 42 48 48 46 41 36 39 37 37 48 47 48 45 48 42 47 42 43 43 41 38 47 51 55 58 54 55 52 50 50 48 47 46 47 47 45 44 44
48 47 44 37 43 47 47 43 39 38 40 39 40 48 40 47 47 45 46 46 41 37 45 45 39 39 50 54 56 57 57 57 50 43 38 38 38 41 46 47 49 48 45 44
44 39 36 44 47 43 39 34 34 36 35 41 44 49 46 50 43 45 46 40 39 35 40 40 40 41 50 51 51 52 52 56 52 55 54 50 50 47 47 48 49 47 45 43
42 40 43 43 37 34 32 33 34 35 35 41 43 45 49 46 48 44 43 38 38 33 42 37 35 45 47 47 47 47 48 53 52 52 51 51 51 51 49 48 46 45 44 41
45 39 33 34 35 31 31 29 31 33 35 35 37 39 45 45 46 42 40 34 35 41 35 34 41 46 47 46 44 45 46 49 49 47 49 49 48 48 46 44 45 43 41 41
35 31 29 31 31 32 32 32 32 35 35 35 37 38 39 42 39 42 34 39 39 32 30 33 42 43 43 44 43 42 44 46 45 44 44 42 42 43 44 43 42 42 40 39
32 31 29 30 34 34 34 34 34 35 37 36 37 37 41 36 35 40 36 33 31 34 35 41 41 40 41 42 42 43 43 42 41 41 40 40 40 41 39 39 40 40 38 39
33 31 28 33 31 32 34 33 33 37 37 36 36 34 34 34 36 33 32 32 31 37 35 38 40 39 41 41 42 41 42 43 42 42 41 41 41 39 38 39 39 39 38 37
31 31 35 34 32 32 35 38 39 42 36 33 33 32 33 33 33 31 37 33 35 34 35 38 38 35 37 38 38 38 39 41 41 40 40 40 40 39 38 35 36 35 35 35

GFSNW_sfc_temp_012.txt.gz
Temp
56 56 56 55 55 54 52 45 36 50 54 38 37 36 36 44 47 52 51 52 49 44 44 42 42 43 48 54 52 44 48 41 27 34 46 47 45 38 38 28 23 29 28 30
56 55 55 55 55 54 47 42 41 51 50 34 36 39 40 45 46 47 50 49 52 51 46 41 46 47 51 52 49 45 47 35 25 28 39 45 41 42 43 40 36 28 25 31
55 55 55 55 54 55 50 42 35 42 44 44 41 37 39 40 48 50 53 50 53 50 47 48 44 44 48 51 51 51 51 41 30 25 30 37 31 37 42 38 30 31 33 36
55 55 54 54 54 55 49 42 40 44 37 41 42 42 43 40 41 51 53 48 50 48 43 43 43 47 46 49 49 49 45 31 33 38 41 39 37 37 39 35 35 31 35 36
55 54 54 54 54 54 47 40 39 43 46 47 41 44 40 43 47 48 47 46 50 49 45 45 44 46 46 44 47 44 44 32 34 29 39 38 35 39 40 42 40 38 38 37
55 54 54 54 54 53 44 45 48 42 43 46 46 45 47 47 49 49 50 51 49 46 47 50 50 50 51 50 45 43 39 35 32 26 39 37 32 38 40 41 42 40 34 41
54 53 53 53 53 53 46 45 43 41 40 45 47 49 49 48 48 45 49 51 48 50 55 52 50 49 47 48 46 47 39 35 33 30 32 24 41 49 48 43 44 47 46 47
53 53 53 53 53 53 47 47 42 40 40 48 49 50 48 49 49 47 48 49 51 53 49 42 40 39 38 41 45 44 45 38 33 29 26 37 43 46 44 39 40 48 44 46
53 53 53 53 53 53 49 47 47 42 38 46 51 49 50 44 45 44 47 50 51 50 44 40 34 33 38 34 38 45 44 43 35 34 28 26 41 47 49 45 35 45 47 45
53 53 53 53 53 53 49 46 49 43 39 47 46 47 47 50 48 41 44 45 45 47 40 37 35 34 43 35 35 34 36 36 32 32 30 35 47 48 50 34 37 47 49 47
53 53 53 53 53 52 49 45 49 43 38 41 48 51 48 49 49 41 45 43 44 42 37 36 36 36 40 37 42 38 36 34 33 34 30 27 49 47 40 45 47 48 48 45
52 53 53 53 53 52 51 42 49 49 39 41 47 49 51 51 53 50 48 46 46 46 40 39 40 37 39 39 34 46 39 43 40 38 38 50 52 50 50 50 47 47 46 46
52 52 53 52 53 52 50 44 46 44 39 41 43 47 55 58 56 57 47 47 50 48 48 43 41 37 41 35 38 41 44 49 41 43 49 49 50 52 49 47 45 46 48 47
52 52 53 52 52 52 51 43 46 43 39 33 42 54 51 54 55 54 54 52 52 50 48 42 41 38 44 41 42 42 45 47 44 43 48 48 48 47 46 47 47 47 48 48
52 52 52 52 51 51 48 46 47 48 39 34 38 47 51 52 53 54 54 54 50 46 43 41 40 43 42 43 44 41 47 44 42 41 50 48 44 46 47 46 45 45 44 43
51 51 51 51 51 51 43 37 45 48 46 36 35 48 48 50 51 52 52 51 50 47 44 43 44 48 43 38 39 47 51 53 54 49 49 48 47 48 48 45 44 44 42 43
51 51 50 50 50 45 39 38 41 46 45 36 35 39 47 50 50 48 48 49 47 46 44 42 42 44 45 41 37 49 54 52 52 50 49 45 46 44 46 45 44 45 43 43
50 50 50 50 49 47 41 45 48 46 39 39 33 38 42 48 44 43 47 45 46 44 43 44 42 44 42 38 44 46 50 52 51 49 49 47 47 45 43 44 43 40 40 41
50 49 49 46 43 40 41 48 48 44 39 33 37 35 34 46 45 44 44 46 41 45 41 42 42 41 37 42 46 48 52 49 46 45 46 45 44 43 42 43 42 40 39 39
49 45 41 36 41 48 46 42 38 36 38 38 37 44 38 44 44 41 43 43 40 35 41 43 38 38 46 50 51 48 48 48 45 40 35 35 35 38 43 43 44 43 41 39
42 37 35 42 48 42 38 33 33 35 34 39 41 44 40 46 40 41 42 37 36 34 35 37 34 38 44 46 47 46 46 47 47 49 47 44 43 42 43 44 45 44 41 39
41 39 42 42 37 33 32 32 33 33 34 39 40 39 42 43 43 41 41 35 35 32 38 34 33 38 41 43 43 44 44 45 47 49 47 46 47 47 45 44 43 42 41 38
43 38 32 33 33 29 30 27 31 32 34 35 36 37 42 39 40 38 38 33 33 35 33 33 31 36 40 40 41 41 43 45 46 44 45 46 46 46 46 43 43 41 39 38
33 30 24 29 30 31 31 31 32 34 34 35 37 36 37 39 35 37 34 36 34 31 29 27 33 34 37 39 40 40 40 41 42 41 41 40 41 41 41 41 40 38 38 37
31 30 25 29 33 33 33 33 33 35 36 36 36 35 39 34 34 36 34 32 30 33 28 32 33 33 35 36 37 38 38 39 39 38 37 38 38 39 37 37 38 39 37 36
31 30 28 32 30 31 27 28 32 35 36 35 34 34 33 33 34 32 32 31 29 28 29 29 32 33 34 34 36 36 37 39 39 40 39 38 38 37 35 36 37 37 37 35
30 28 34 33 32 31 28 33 34 38 34 32 32 32 33 33 32 30 35 33 31 30 28 28 30 30 32 33 33 34 35 36 38 37 38 37 37 37 36 34 34 32 33 33

GFSNW_sfc_temp_015.txt.gz
Temp
56 56 55 56 55 55 50 42 35 47 50 37 37 35 37 43 43 47 47 48 44 39 39 37 36 36 43 50 50 41 47 38 27 32 41 44 40 35 34 23 21 25 22 29
55 55 55 55 55 56 44 39 40 49 47 33 35 38 41 44 44 47 49 47 49 47 41 38 42 44 48 51 49 42 46 34 22 30 35 42 37 38 39 36 32 27 24 30
55 55 54 55 55 56 43 37 31 38 41 42 39 37 40 38 47 47 51 49 49 45 45 45 42 39 46 48 48 51 50 37 27 24 27 35 29 35 39 37 29 29 31 35
55 54 54 54 54 55 45 40 37 38 29 37 38 42 41 40 40 49 50 47 47 45 39 41 40 41 42 46 48 49 44 27 29 35 37 36 35 36 37 33 35 30 36 37
54 54 53 54 54 54 44 39 38 41 38 40 39 40 38 42 44 44 44 44 46 46 41 42 39 44 41 39 41 41 42 31 33 29 36 36 32 37 38 37 37 38 39 38
54 53 53 54 54 52 43 44 46 42 39 38 38 39 43 43 45 47 47 46 44 42 43 46 45 50 48 46 43 42 39 33 26 21 36 34 29 35 38 39 42 42 35 42
54 53 53 53 53 52 45 44 42 40 34 39 45 44 46 44 44 42 46 47 44 47 51 49 47 45 45 47 46 46 35 34 29 25 29 22 39 46 45 41 42 44 45 46
53 53 53 53 53 53 41 46 41 39 36 39 44 45 44 44 44 43 45 46 47 50 46 39 38 38 36 39 44 43 44 38 31 27 23 33 40 42 41 38 39 45 45 45
53 53 53 53 53 53 42 46 46 41 37 40 45 45 48 39 37 40 43 47 48 47 42 38 29 31 37 31 37 44 43 43 35 32 26 24 38 44 46 44 35 46 46 46
53 53 53 53 53 53 44 41 47 42 37 44 43 42 44 50 43 39 43 43 43 45 37 34 32 31 37 31 31 34 36 36 32 32 30 33 43 46 46 32 36 44 45 46
53 53 53 53 53 53 44 39 47 42 37 38 45 47 44 42 43 37 41 40 42 39 36 35 35 34 38 33 37 34 34 32 33 33 30 26 47 44 39 45 44 45 44 42
53 53 53 53 52 53 50 36 44 45 38 39 44 46 46 47 48 47 43 43 42 43 38 37 39 37 37 34 30 41 35 38 35 36 35 46 48 49 47 47 45 44 43 42
52 53 53 52 53 53 50 38 39 38 35 36 38 41 50 51 52 56 43 43 47 45 46 41 41 37 40 34 34 37 45 49 43 41 46 47 49 45 45 44 43 45 45 42
53 52 53 52 52 52 51 38 40 38 35 32 37 50 48 51 53 54 53 51 49 47 46 41 40 38 41 37 41 39 43 47 44 40 46 44 43 43 43 43 44 44 45 43
52 51 52 51 52 52 47 40 41 43 34 33 35 42 47 49 50 52 52 50 48 45 42 41 39 43 41 42 41 36 43 41 40 39 49 46 44 43 45 43 41 42 42 40
51 51 51 51 51 50 42 32 42 42 43 34 31 45 45 48 49 49 49 48 49 47 43 42 44 47 42 37 35 46 47 48 50 48 49 47 44 45 44 43 42 41 41 41
51 51 51 50 50 44 37 34 40 46 43 34 32 37 46 48 48 47 47 49 47 46 44 42 43 43 44 40 37 44 47 51 52 49 48 44 45 43 43 43 43 43 40 40
50 50 50 49 50 47 39 40 47 45 37 36 31 36 42 48 43 42 47 44 45 44 43 44 41 43 42 37 42 44 48 48 46 46 46 46 44 42 41 42 42 39 38 38
50 49 49 45 41 38 39 48 46 43 37 32 34 34 34 46 44 44 43 44 40 44 41 41 42 40 36 42 44 45 48 47 49 43 42 42 41 40 40 41 40 39 38 37
49 42 41 35 39 48 46 41 37 35 36 36 34 42 38 43 43 40 42 42 39 34 41 42 39 38 44 44 44 46 44 43 42 40 36 33 32 36 39 40 43 42 39 38
40 36 35 40 47 40 38 33 32 34 33 38 39 42 39 45 39 40 42 35 35 33 36 36 34 37 39 41 41 43 43 42 42 43 45 44 42 40 40 41 43 41 40 36
38 39 42 40 37 33 31 30 33 33 33 38 39 39 42 41 43 40 40 34 35 31 37 33 32 36 36 38 39 41 41 43 42 45 44 44 43 42 43 43 42 41 39 36
41 37 32 32 33 27 28 27 31 32 33 34 35 35 40 39 41 37 36 33 33 34 32 33 31 33 35 36 38 38 41 41 42 43 44 45 44 44 45 42 41 39 37 37
32 28 25 27 28 30 31 30 31 34 34 34 36 35 35 36 35 38 34 36 34 31 28 27 32 31 33 35 37 36 36 38 39 39 39 40 41 40 40 40 40 38 35 35
29 29 22 27 32 32 32 32 33 34 36 35 36 35 38 33 33 34 32 31 29 32 26 30 26 29 31 33 34 35 35 36 37 38 38 38 38 37 35 36 37 38 35 35
30 29 26 31 29 29 24 29 31 35 35 35 34 33 33 33 33 32 31 31 27 25 28 25 28 30 30 32 33 33 34 35 37 38 39 38 37 36 35 36 37 37 36 34
28 26 32 31 30 30 21 28 34 38 34 32 32 31 32 33 31 29 33 31 29 30 31 24 28 28 29 30 31 32 32 33 34 35 37 36 36 35 35 33 33 32 33 32

GFSNW_sfc_temp_018.txt.gz
Temp
55 55 55 55 56 56 48 40 29 48 51 37 37 33 35 41 43 45 44 44 41 37 39 36 35 34 40 47 46 38 43 34 21 31 39 41 38 34 32 20 20 22 22 26
55 54 54 55 55 55 42 36 36 46 45 33 35 39 41 43 44 43 46 44 45 44 38 34 38 41 46 48 47 41 44 33 21 27 35 38 34 36 36 33 29 19 23 28
54 54 54 54 54 55 43 35 29 36 41 40 37 39 37 39 46 46 47 44 47 44 40 42 38 39 45 50 49 50 47 34 26 23 26 33 28 34 36 33 26 26 29 34
54 54 54 54 54 54 43 37 37 40 31 36 39 42 41 39 39 45 48 45 45 43 38 39 37 40 41 46 49 48 43 27 28 33 36 34 34 34 35 30 34 29 35 36
54 54 53 53 53 53 42 39 38 41 35 39 37 38 36 39 41 42 41 41 44 45 40 40 37 40 38 38 40 40 43 32 34 31 34 33 30 35 35 37 37 38 38 37
54 54 53 53 53 49 40 39 45 41 38 36 35 36 40 41 43 45 45 44 42 41 42 45 44 46 45 43 40 37 37 32 29 20 33 32 27 33 35 36 37 37 34 41
54 53 53 53 53 50 43 42 42 39 34 35 39 43 43 42 42 41 44 45 43 45 49 48 46 45 46 47 46 46 37 33 28 21 28 19 37 42 43 39 41 42 42 45
53 53 53 53 53 53 40 45 38 39 35 39 40 40 41 41 42 41 42 44 45 48 45 39 38 38 38 41 44 42 44 37 24 23 23 32 38 41 40 38 38 44 42 46
53 53 53 53 53 53 39 44 45 40 36 35 41 38 44 37 35 38 41 45 47 46 41 37 30 31 37 33 37 43 43 42 34 32 25 24 37 42 44 42 33 44 44 45
53 53 53 53 53 53 41 38 45 40 37 43 39 38 41 43 39 36 39 42 41 43 36 33 31 29 39 31 33 34 35 35 32 32 29 31 42 43 45 31 36 44 43 44
53 53 53 53 53 53 43 38 41 37 36 38 41 45 43 43 40 36 40 40 40 37 35 33 35 35 38 36 38 34 35 32 33 33 29 26 45 42 37 44 43 44 43 41
53 53 53 53 52 53 50 36 42 42 35 35 42 45 47 45 47 43 43 41 39 40 35 34 37 36 37 34 34 38 35 37 34 35 35 45 47 46 48 46 43 43 42 42
52 53 53 52 53 52 50 40 38 36 32 33 34 37 49 51 48 53 42 42 45 43 43 39 40 36 40 34 36 34 41 46 41 39 44 46 47 47 44 43 42 44 44 42
52 52 52 52 52 52 51 38 40 38 33 29 32 48 44 51 50 50 52 50 47 46 43 40 38 37 41 35 37 37 40 42 43 41 44 45 44 46 44 43 43 42 42 41
52 52 52 51 51 51 47 43 40 42 33 29 32 41 46 48 49 50 52 50 48 43 40 40 38 40 40 41 41 37 40 38 38 38 48 47 46 44 44 43 42 42 41 39
51 51 51 51 51 50 42 32 42 42 39 30 27 40 42 47 48 49 49 49 47 45 43 42 43 47 42 37 36 41 43 47 49 43 47 47 46 45 43 42 41 41 40 39
51 51 50 50 50 43 38 33 40 45 40 33 29 32 43 48 47 46 47 48 45 44 44 42 42 43 44 40 36 46 48 49 48 49 46 43 44 44 43 42 41 42 39 38
51 50 50 49 50 45 37 39 46 45 38 35 29 32 41 48 43 42 47 44 44 44 43 43 41 42 42 36 40 44 47 47 48 47 48 45 43 41 40 40 39 37 36 35
49 50 49 45 42 36 36 48 47 42 37 31 32 31 34 46 43 44 43 45 40 43 40 41 42 39 36 40 39 39 41 41 42 42 42 40 40 39 38 38 37 36 35 35
48 42 40 35 38 47 45 40 36 34 34 34 31 37 37 43 43 40 41 42 40 35 40 42 39 38 42 42 41 39 39 40 39 35 35 35 32 34 36 37 39 39 38 37
39 35 34 36 45 40 37 32 31 34 32 35 36 40 39 45 38 40 42 35 35 33 35 37 34 36 38 38 37 39 39 39 40 39 40 40 41 39 38 38 40 40 39 36
38 38 41 40 36 33 30 29 32 32 32 38 37 39 41 41 43 38 38 33 34 31 37 34 31 36 34 35 36 37 38 39 39 40 41 42 43 41 40 39 41 40 38 34
40 36 32 32 32 27 27 26 30 32 33 34 35 35 38 41 42 37 36 33 32 33 32 32 33 32 34 34 35 35 37 38 40 40 40 41 42 42 43 42 41 39 36 35
31 28 24 27 26 29 30 30 30 34 33 34 36 35 35 35 35 37 33 35 33 30 29 30 31 29 31 33 34 34 34 36 37 37 38 39 40 39 40 39 38 38 36 36
26 29 22 26 30 31 31 32 32 35 36 35 35 35 37 33 33 35 33 31 29 32 26 30 25 26 29 30 32 32 32 33 35 37 37 37 37 38 36 36 36 38 36 34
27 28 24 30 28 28 29 30 29 35 34 34 34 33 33 33 33 32 30 30 27 25 29 25 26 28 29 29 31 31 32 32 33 35 36 38 37 36 35 35 35 35 34 33
24 25 30 28 29 29 27 27 30 36 33 32 32 31 32 32 32 29 33 31 30 30 31 23 26 27 28 29 30 31 31 31 32 32 34 33 35 35 34 32 33 33 33 33

GFSNW_sfc_temp_021.txt.gz
Temp
55 55 55 55 55 55 47 38 30 45 49 35 36 34 36 42 43 44 42 42 40 38 38 34 33 34 39 45 44 38 41 33 23 31 38 40 37 33 31 21 18 20 20 25
55 54 54 54 55 55 41 35 35 44 43 34 36 39 41 42 41 41 43 41 44 42 37 33 36 38 45 46 44 40 42 30 19 27 33 37 33 34 34 31 27 18 21 27
55 54 54 54 54 55 42 35 30 37 38 40 38 37 36 38 44 43 45 43 45 42 39 40 36 38 43 46 47 49 46 33 26 22 26 31 27 32 34 31 23 25 28 31
55 54 53 53 54 53 42 36 36 40 34 39 40 40 39 37 37 44 45 42 43 41 35 37 35 39 40 46 49 45 41 27 27 32 35 32 33 33 34 28 34 26 31 33
55 54 53 53 53 52 39 36 39 42 35 36 35 37 36 38 40 41 40 40 43 42 38 38 35 39 38 39 43 42 42 31 31 29 33 32 29 33 34 35 35 35 36 35
54 54 53 53 53 49 37 37 42 38 37 34 33 35 38 40 42 43 43 42 40 39 41 42 43 44 44 43 40 37 36 32 29 22 31 31 27 32 34 34 36 36 30 40
54 53 53 53 53 48 42 42 41 39 32 33 36 39 42 41 40 39 42 43 40 44 47 46 46 44 43 42 40 43 37 34 32 20 27 18 35 40 41 38 39 39 40 43
54 53 53 53 53 52 43 44 36 38 35 39 37 38 38 40 41 39 41 42 44 46 44 38 37 38 39 41 43 42 44 37 25 23 25 29 36 39 38 37 38 42 41 43
53 53 53 53 53 53 39 41 41 38 36 33 41 37 38 36 34 37 40 44 46 45 39 36 29 30 36 33 36 42 42 41 33 31 26 21 35 40 42 42 33 43 43 44
53 53 53 53 53 53 41 37 39 37 35 38 37 34 37 40 37 35 37 39 40 42 35 33 30 29 39 31 32 34 34 35 32 32 30 30 41 43 43 30 35 42 43 44
52 53 53 53 53 53 42 38 40 35 33 35 40 42 37 41 38 36 39 39 39 36 33 33 32 32 37 35 38 36 35 32 32 33 30 25 43 41 37 43 42 43 43 43
52 53 53 53 53 53 49 36 41 41 33 32 38 41 42 42 46 41 43 39 38 39 35 33 34 33 37 34 32 36 34 36 32 34 34 44 44 43 46 44 43 41 41 43
52 51 53 53 53 52 50 40 42 37 34 32 32 34 42 47 47 50 39 44 46 41 42 38 37 35 39 33 32 32 39 46 40 37 40 42 46 47 44 44 42 42 43 42
52 52 53 52 52 52 51 39 42 40 33 27 29 43 39 48 48 48 49 48 48 46 42 38 37 35 39 34 36 38 39 41 41 41 42 44 44 44 45 43 42 42 41 41
51 51 51 52 52 51 46 44 43 43 35 26 28 36 43 45 45 46 46 46 46 43 39 38 36 37 37 37 40 35 39 37 35 34 43 43 46 45 45 43 42 42 41 38
51 51 51 51 51 51 42 35 42 43 42 32 22 35 36 42 46 45 45 45 47 46 40 39 41 46 41 34 36 40 44 47 48 43 44 44 45 45 44 42 42 41 40 40
51 51 51 50 50 43 38 33 37 44 42 30 26 27 40 43 46 46 46 47 46 45 44 40 42 42 43 40 35 43 46 47 47 47 42 41 43 43 42 41 41 42 39 38
51 50 50 50 49 44 38 38 45 44 36 35 27 29 35 46 42 42 46 44 45 44 41 41 41 41 42 35 37 39 43 43 44 45 44 43 44 40 39 39 38 37 37 36
49 49 49 43 39 35 35 47 47 42 37 30 31 29 32 45 43 43 44 45 38 43 38 40 42 39 36 36 38 37 38 36 37 39 38 41 42 42 38 38 37 36 35 34
48 43 39 35 38 46 45 40 36 34 35 33 29 34 33 43 42 40 41 42 38 33 39 42 38 37 38 39 39 40 38 36 35 32 33 32 31 33 37 36 37 37 36 35
37 33 32 35 44 40 37 32 31 33 29 34 34 35 39 44 39 39 42 36 35 32 35 37 33 33 37 38 37 36 35 35 36 37 38 37 38 38 38 37 37 37 36 35
37 36 41 39 36 33 30 29 32 32 31 37 35 38 40 41 43 39 39 32 34 30 38 34 32 32 33 32 32 34 34 35 36 39 38 39 39 39 39 37 37 38 39 36
38 36 32 31 32 26 25 23 27 31 34 34 34 35 38 41 41 36 35 33 29 32 32 32 32 31 31 30 31 33 35 37 38 39 39 40 40 41 40 41 41 38 36 35
28 29 24 25 23 25 29 29 25 33 34 34 35 35 35 37 35 37 34 34 34 29 27 29 29 31 29 31 32 32 32 33 34 36 36 37 37 38 39 40 39 37 35 34
24 28 20 20 28 24 31 32 31 34 36 35 35 35 37 33 34 35 33 31 29 31 27 26 30 25 28 29 31 30 31 31 32 34 35 36 37 37 36 36 36 36 34 33
24 24 21 26 23 22 26 25 30 34 35 34 33 33 33 33 32 32 30 29 28 26 28 30 26 28 28 28 29 30 30 31 32 32 34 35 34 35 35 34 35 34 34 33
20 21 29 26 26 25 29 32 32 33 33 32 32 31 32 33 30 28 30 29 30 29 29 23 26 27 27 27 29 29 30 30 30 30 31 31 32 34 34 33 33 33 33 32

GFSNW_sfc_temp_027.txt.gz
Temp
55 55 55 55 55 54 45 36 32 45 45 36 38 35 37 43 41 43 41 40 38 34 34 32 33 34 38 45 45 38 40 33 28 34 39 41 38 34 33 25 23 24 24 31
55 55 55 54 54 54 39 34 34 44 43 34 36 40 40 40 40 40 41 39 41 39 36 33 35 38 43 45 44 40 41 31 22 30 34 37 34 35 34 31 29 23 25 33
55 55 54 54 54 54 40 34 30 37 39 39 36 35 34 36 42 41 42 40 41 38 37 38 35 36 42 44 45 49 45 33 28 25 28 33 30 33 34 32 25 26 28 32
55 54 54 54 54 53 41 35 36 40 32 34 34 35 36 34 36 41 42 39 39 37 32 33 33 37 38 43 47 43 41 28 27 33 35 33 34 34 32 29 32 27 32 31
55 54 54 54 53 51 39 35 36 41 34 33 32 35 33 35 37 37 37 38 39 38 36 37 34 37 35 36 39 39 39 30 29 26 34 33 30 33 33 34 35 33 35 35
54 54 54 53 53 48 40 41 43 40 35 31 30 32 35 37 38 39 40 41 41 37 38 39 40 41 42 42 39 36 38 32 25 23 32 31 26 31 33 35 35 37 31 40
53 54 53 53 53 47 38 39 40 38 30 31 32 34 35 38 39 37 39 40 41 43 45 43 43 41 40 41 38 42 36 34 29 21 28 19 35 39 39 37 38 38 39 42
53 53 53 53 53 50 39 36 38 37 34 36 32 35 34 36 38 37 39 40 42 44 41 37 34 38 39 39 38 37 43 37 27 24 26 29 35 37 36 35 38 41 41 44
53 50 52 53 53 50 40 36 36 34 32 30 39 38 40 33 31 35 38 41 43 42 38 35 28 25 31 29 35 41 39 38 33 29 23 22 35 40 43 42 34 44 42 43
53 53 50 52 53 51 42 38 38 33 28 33 38 33 36 42 35 31 34 36 38 40 34 32 29 27 34 28 30 33 34 35 31 30 29 30 39 45 44 34 37 44 44 44
52 52 53 51 52 53 44 39 39 35 29 31 35 37 33 35 40 36 36 36 37 36 35 36 34 29 32 30 32 36 33 31 32 33 28 24 42 40 38 44 43 44 43 44
51 51 52 51 51 52 48 39 43 42 34 34 38 40 42 39 39 36 40 37 35 37 33 31 31 31 31 32 32 33 30 34 32 33 32 41 46 46 47 45 44 43 42 43
51 51 52 51 50 51 50 41 41 39 35 35 35 34 40 42 42 45 34 41 45 38 39 36 34 32 33 31 33 31 35 39 35 35 38 39 43 46 44 43 43 44 44 43
51 50 50 51 51 51 51 41 41 40 36 29 32 41 35 41 41 41 43 42 44 40 41 40 37 32 36 31 34 33 36 39 36 36 39 41 41 44 45 45 44 44 43 43
49 49 50 50 51 51 47 42 40 42 36 29 31 36 39 41 39 38 39 39 39 35 35 39 36 36 35 33 34 31 36 36 35 35 41 41 42 43 43 43 43 43 42 41
48 49 50 50 50 50 42 35 40 40 39 31 26 34 31 35 37 37 37 38 38 35 36 40 38 40 38 30 32 38 38 40 43 40 40 42 43 42 41 40 41 42 41 41
49 49 50 50 50 42 36 35 38 43 39 33 22 23 35 41 36 33 33 36 37 37 36 40 38 38 39 34 31 39 39 41 40 41 40 40 42 42 40 39 39 41 39 39
49 49 50 50 49 45 38 39 45 42 37 34 24 21 31 41 36 36 38 35 37 39 39 41 37 39 37 33 37 36 38 37 39 39 40 41 40 41 40 40 38 37 37 37
49 49 49 44 40 34 35 46 45 43 36 27 28 25 24 40 38 39 39 41 33 40 38 39 39 37 35 36 36 35 34 35 35 34 34 34 34 35 38 39 39 36 36 35
48 42 39 34 37 45 44 40 35 34 35 33 28 33 29 36 36 37 37 37 35 32 38 41 38 34 34 34 33 34 34 32 31 30 30 27 27 31 35 36 37 38 36 36
37 33 33 37 44 37 36 32 31 31 29 32 31 33 32 39 34 38 40 35 35 31 35 36 34 36 32 31 32 32 31 30 31 32 34 34 34 34 34 35 35 36 37 35
40 37 39 38 35 32 29 28 31 30 27 35 34 35 36 39 42 38 38 33 34 29 38 34 30 31 28 31 29 30 30 30 33 37 38 38 38 38 36 36 38 39 38 35
37 36 31 31 30 25 24 22 25 28 33 33 33 32 37 40 40 36 35 32 31 33 32 30 27 28 28 29 29 29 30 32 36 36 37 38 37 38 38 38 40 40 38 37
26 22 19 23 21 26 27 26 28 30 32 33 33 33 35 37 35 36 29 31 32 29 27 24 29 27 29 29 30 30 29 30 31 32 33 34 35 34 37 36 37 37 37 36
20 22 16 20 28 26 27 26 31 28 34 33 32 33 36 34 32 34 31 30 29 31 27 23 22 31 31 28 29 29 29 29 30 31 31 32 33 34 35 35 36 37 36 35
21 24 21 25 21 23 23 22 26 33 33 33 32 31 32 32 32 31 29 27 24 28 23 26 30 30 28 28 29 29 30 30 30 30 31 32 31 31 32 34 34 35 35 34
23 19 24 21 19 23 25 28 29 32 31 29 31 29 30 32 30 27 28 28 29 25 28 26 29 28 28 28 29 30 30 28 28 27 29 29 29 30 30 28 29 29 32 33

GFSNW_sfc_temp_033.txt.gz
Temp
56 56 55 55 55 55 55 53 46 57 59 50 52 44 44 45 50 53 51 51 49 48 48 46 47 46 50 55 55 48 49 45 35 39 47 50 49 47 48 39 35 41 39 43
55 55 55 55 55 54 49 51 54 59 58 45 47 50 49 50 50 50 50 48 51 51 48 43 47 48 52 54 53 50 51 41 31 33 42 46 42 46 47 44 42 35 37 43
55 55 54 54 54 54 53 51 43 56 59 55 52 48 48 47 51 51 52 51 53 50 48 51 46 46 49 53 53 49 53 45 38 37 37 45 38 44 45 42 36 41 43 47
55 54 54 54 54 54 53 51 42 46 45 50 50 49 48 46 46 52 53 49 50 49 45 47 45 48 48 50 49 52 51 35 37 43 43 42 42 43 43 37 42 39 47 47
55 54 54 54 53 54 52 42 39 47 49 48 48 46 47 46 48 48 48 47 50 51 48 50 46 48 49 47 50 49 50 36 38 34 42 41 38 43 45 43 43 45 47 46
54 53 53 54 53 54 49 50 49 43 46 48 48 48 47 46 49 50 51 51 51 49 51 55 56 57 57 54 49 47 46 38 34 34 40 39 34 41 43 45 47 47 41 50
54 53 53 53 53 52 51 47 43 40 45 47 47 45 45 46 47 46 51 53 51 51 58 58 58 56 55 54 52 54 46 41 38 33 36 27 43 50 50 47 48 50 51 54
53 53 53 53 53 52 50 49 45 43 40 47 46 45 44 47 50 48 49 52 54 59 54 49 44 44 45 47 50 50 53 46 37 33 35 42 47 47 44 43 45 51 49 53
53 53 52 53 52 52 52 47 48 45 38 43 44 44 46 43 47 49 49 54 57 55 51 47 38 37 43 39 42 50 50 50 41 37 31 32 45 50 53 53 42 54 53 53
53 52 52 52 52 52 51 48 48 44 38 46 44 43 42 47 45 44 48 49 49 53 47 41 39 40 46 38 37 37 39 41 36 36 34 42 53 52 54 39 43 54 55 55
53 52 52 52 52 51 50 49 49 45 39 42 45 46 43 44 45 42 45 46 47 45 41 42 42 42 46 44 46 42 40 37 36 39 34 30 54 51 45 51 55 55 55 55
52 52 52 52 52 51 50 45 50 49 40 41 48 48 49 48 47 42 46 41 44 46 45 47 47 44 47 45 39 50 40 46 43 45 44 55 56 56 58 57 55 55 54 55
52 51 52 51 52 51 49 43 48 46 37 40 42 41 48 50 48 51 38 44 46 40 40 42 44 42 50 42 44 46 49 54 45 46 52 53 55 57 57 57 55 56 56 55
52 51 51 51 51 51 50 46 50 46 40 31 37 48 43 50 49 48 48 45 47 44 37 36 41 41 52 47 49 49 52 51 46 48 53 53 55 58 60 56 56 55 56 55
51 50 50 51 51 51 51 50 50 49 39 32 35 43 46 49 48 45 46 44 42 39 33 33 35 46 47 49 49 47 52 50 46 46 56 56 57 59 58 54 54 53 52 52
51 50 51 51 50 50 47 41 46 47 45 34 30 44 42 45 45 43 42 42 41 40 37 34 39 41 41 43 43 53 57 58 59 55 58 57 57 57 56 53 53 52 52 52
51 51 50 50 50 49 43 39 44 47 45 35 30 33 43 45 43 41 41 43 40 38 36 36 38 39 35 41 42 53 56 57 55 56 54 51 53 52 51 51 51 50 51 52
51 50 50 50 49 48 44 47 47 46 38 35 28 30 37 43 36 37 43 37 38 38 37 40 38 41 35 35 47 53 54 54 52 52 51 50 50 50 50 49 49 47 48 51
49 49 49 47 44 42 42 46 47 44 38 31 31 28 30 39 37 40 39 40 30 41 33 36 41 36 32 41 46 49 50 49 51 48 47 47 46 47 46 46 46 46 47 48
48 49 44 38 43 46 46 40 36 35 35 34 30 35 31 36 36 35 36 38 33 30 37 43 36 36 43 41 44 49 48 46 46 44 41 38 38 41 45 44 45 45 46 47
46 40 38 44 47 42 39 33 32 34 31 34 34 33 31 40 32 34 37 33 35 31 34 35 34 35 41 41 41 42 43 44 44 44 44 44 44 42 41 40 43 45 46 45
43 42 44 44 40 35 31 31 33 32 31 35 34 36 37 37 38 34 35 33 33 31 35 33 34 38 38 40 39 40 41 42 42 44 43 43 43 41 38 38 40 42 43 44
45 39 33 35 35 30 30 26 31 31 35 36 34 31 37 38 39 37 35 33 33 37 34 35 39 37 38 38 39 38 40 41 42 40 40 42 41 39 38 37 38 39 40 40
36 31 28 30 30 33 34 34 34 37 35 35 35 33 34 37 34 35 32 35 35 32 30 34 39 38 39 40 40 40 38 39 39 38 39 39 39 39 38 38 37 36 36 36
32 31 30 30 37 34 35 34 33 36 37 35 34 33 33 32 33 35 33 32 31 34 34 39 39 38 38 38 39 39 38 38 38 38 38 38 37 37 38 37 38 39 39 38
32 29 29 34 30 33 33 33 32 37 37 36 33 30 30 31 32 32 32 31 31 36 37 37 39 38 38 38 37 37 37 38 37 37 36 36 35 35 36 38 36 36 36 36
27 30 34 34 32 32 35 38 38 39 35 31 31 28 30 32 31 31 36 34 36 35 37 37 39 37 37 37 36 36 35 36 36 35 35 34 35 37 35 32 33 33 34 35

GFSNW_sfc_temp_036.txt.gz
Temp
56 56 55 55 55 55 53 49 42 55 56 44 48 40 46 47 51 53 51 50 48 46 46 44 44 43 47 54 52 45 46 40 32 35 46 49 45 42 42 32 28 30 28 31
55 55 55 55 55 54 48 46 50 56 54 40 43 48 49 51 50 50 51 49 50 51 46 42 45 46 50 52 50 45 47 36 28 33 39 44 39 44 45 41 36 31 25 30
55 55 54 54 54 55 49 48 40 50 52 52 48 46 47 46 50 51 52 51 51 48 45 48 43 44 48 50 51 50 49 41 32 25 30 38 34 40 42 36 27 33 33 37
55 54 54 54 54 54 50 48 40 45 39 45 47 48 48 47 46 51 52 48 49 48 42 44 43 45 45 49 48 48 46 30 32 39 42 38 38 39 40 33 38 30 38 41
55 54 53 54 53 54 49 40 38 43 44 48 46 43 46 46 47 47 47 46 50 49 45 46 43 45 44 42 46 44 45 31 32 30 40 38 33 40 41 41 40 40 41 41
54 54 53 53 53 53 45 45 48 41 45 46 44 43 45 46 48 49 51 49 48 47 46 50 51 51 51 48 44 42 40 32 28 25 37 35 28 36 39 41 42 42 36 44
54 53 53 53 53 52 48 44 42 40 40 44 44 45 46 45 46 44 50 51 49 49 55 53 51 48 49 50 47 48 40 36 32 26 29 18 38 45 45 43 45 45 47 48
53 53 53 53 53 53 48 46 42 39 36 42 44 43 44 46 48 46 48 50 51 54 50 44 42 40 42 45 45 44 46 39 32 25 26 36 41 42 41 41 41 49 46 48
53 53 52 52 52 52 49 46 46 42 35 36 42 40 43 39 41 46 47 51 53 49 45 42 35 32 38 36 40 45 46 45 38 34 26 25 40 46 49 47 34 49 49 48
53 53 52 52 52 52 48 46 46 42 36 43 41 38 37 43 41 40 46 47 46 47 40 38 36 34 41 34 35 36 37 36 30 33 31 35 46 49 49 33 37 48 50 50
53 53 52 52 52 52 48 46 48 41 38 40 44 45 39 39 40 34 41 41 44 43 38 36 38 37 41 37 40 37 34 33 33 35 31 24 48 46 38 45 48 49 49 49
52 52 52 52 52 52 50 42 49 48 38 39 45 46 47 45 44 38 39 39 41 40 37 38 39 36 38 38 32 43 35 39 35 37 36 47 49 47 50 50 49 47 48 49
52 52 52 52 52 52 49 43 45 43 38 38 40 41 46 49 46 47 35 40 41 38 37 36 39 36 40 33 36 39 41 46 40 41 45 46 49 50 51 49 48 50 50 49
52 52 51 51 52 52 51 44 46 44 39 30 35 47 43 49 47 46 45 43 44 42 37 34 36 37 44 38 41 41 45 45 41 40 45 44 48 50 51 50 50 49 49 48
51 51 51 51 51 51 48 46 45 46 38 31 33 41 45 47 46 44 45 43 39 35 31 31 32 36 39 42 41 38 44 42 38 37 48 47 48 51 52 49 48 48 45 44
51 51 51 51 50 50 45 38 43 46 44 34 28 41 41 43 44 42 41 40 38 37 33 31 33 39 36 33 35 46 49 50 51 46 49 49 49 50 50 48 47 46 44 45
51 51 51 50 50 46 39 37 41 46 43 34 29 30 41 43 42 40 39 40 37 37 34 32 31 33 37 34 32 45 52 53 50 50 48 45 46 44 46 45 45 46 44 45
51 50 50 50 49 47 41 43 46 45 38 35 27 28 34 42 36 34 40 36 36 33 32 33 31 34 34 28 38 44 47 50 48 47 45 44 45 45 44 43 44 42 42 43
49 49 49 46 43 40 39 47 47 43 37 30 30 27 28 39 37 37 35 38 29 35 29 30 32 30 27 34 40 41 42 45 44 43 44 42 42 41 40 40 40 40 40 41
49 45 43 37 40 47 46 39 36 35 35 35 29 34 29 36 35 35 34 34 31 26 31 35 31 30 40 43 42 42 42 42 43 39 34 33 32 37 38 38 39 40 40 40
42 38 36 40 47 40 38 33 32 33 30 33 33 33 31 39 32 33 37 32 33 29 32 31 32 33 38 41 40 41 42 41 40 40 41 41 40 37 36 37 40 42 40 38
40 39 43 42 39 33 28 27 32 32 31 35 34 33 34 37 38 33 35 31 32 29 34 32 31 33 35 38 37 38 39 39 40 41 41 40 40 37 36 38 39 39 40 39
42 36 30 31 30 22 22 19 24 27 33 33 33 31 35 36 38 34 34 32 32 34 32 31 32 33 36 37 37 37 38 40 40 38 39 40 38 36 36 37 38 38 38 38
31 25 20 24 22 26 27 27 26 31 31 32 33 32 31 35 33 35 31 35 33 29 28 29 29 32 34 35 37 37 35 36 36 36 37 36 36 35 37 37 35 36 36 36
27 26 20 21 30 28 28 28 27 30 33 31 32 32 32 31 31 34 32 30 26 30 29 32 33 33 34 34 36 34 33 33 33 37 36 34 34 34 33 34 34 34 36 36
26 24 22 29 24 25 26 25 25 31 32 31 33 29 29 30 31 30 29 30 28 31 32 34 34 35 36 34 33 33 34 34 34 35 35 35 34 33 32 34 33 33 34 33
27 23 30 28 25 25 27 31 31 34 29 23 30 25 23 28 27 29 32 30 33 34 34 33 34 33 34 34 33 33 33 34 34 34 33 33 33 34 32 30 30 30 31 32

GFSNW_sfc_temp_039.txt.gz
Temp
56 56 55 55 55 55 48 40 40 48 49 38 36 31 40 47 47 49 47 45 44 40 41 40 38 37 43 52 50 42 46 37 31 35 43 46 43 38 38 29 27 27 24 30
55 55 55 55 55 55 45 36 39 48 48 37 34 41 45 47 46 46 47 45 47 46 42 38 40 41 48 50 47 45 46 34 27 30 36 41 36 39 41 38 35 28 23 29
55 55 54 54 55 55 44 40 38 44 42 47 45 40 42 42 47 47 48 46 47 43 41 43 39 39 46 48 47 50 49 38 30 26 29 36 32 38 41 36 29 32 34 34
55 54 54 54 54 55 43 39 39 42 36 38 40 45 46 45 44 46 48 44 45 44 38 39 39 41 41 46 48 45 42 28 30 36 39 37 36 37 38 32 36 30 37 37
54 54 54 54 54 53 39 38 35 41 34 41 38 40 43 43 43 44 43 44 46 45 41 40 38 41 39 38 40 40 40 27 29 26 39 37 32 37 38 39 39 38 39 36
54 54 53 53 53 49 35 35 38 38 40 39 37 41 42 44 43 46 47 46 44 41 43 45 44 45 46 44 41 38 37 28 23 21 34 32 27 34 37 38 42 41 35 42
54 53 53 53 53 50 38 36 36 33 33 37 39 41 43 41 42 40 45 46 44 47 50 49 46 46 46 45 41 44 36 33 25 20 27 17 36 41 43 41 42 42 43 45
53 53 53 53 53 53 40 39 35 32 28 36 38 38 38 40 42 41 44 45 46 48 45 40 38 38 41 42 43 41 42 35 26 23 22 33 38 40 39 37 38 45 43 45
53 53 53 53 53 52 41 39 38 35 30 30 39 35 37 32 33 42 43 47 49 46 41 38 33 30 35 33 39 42 43 44 33 32 23 24 39 43 47 45 33 46 48 47
53 53 52 52 53 52 44 43 42 35 30 38 38 32 34 38 35 35 40 42 43 44 36 33 33 33 39 30 30 35 36 34 29 32 30 33 44 46 47 32 36 45 47 48
53 53 52 52 52 51 44 41 45 36 30 33 40 41 35 36 34 29 36 37 40 40 35 32 32 33 36 33 35 33 32 28 28 30 28 24 46 45 39 44 45 45 46 47
52 53 52 52 52 52 48 42 46 47 35 33 40 43 44 41 41 34 34 35 39 37 36 36 33 34 33 33 29 36 31 35 31 34 34 45 46 46 47 48 47 45 46 47
52 53 53 52 52 52 48 38 39 38 33 32 34 35 43 47 44 46 33 35 38 37 38 35 37 32 37 30 32 35 41 43 37 38 40 43 47 47 48 48 47 47 48 47
52 52 52 52 52 51 50 39 42 38 34 27 31 44 41 46 46 44 43 40 42 40 36 32 34 34 37 33 36 36 41 42 38 37 42 42 44 47 48 47 48 48 48 47
51 51 52 52 51 51 44 40 40 42 35 28 31 39 44 45 44 43 43 41 38 33 29 26 28 35 34 35 36 35 40 40 37 35 44 44 45 48 48 46 46 46 45 43
51 51 51 51 51 50 40 34 41 43 40 33 27 39 40 42 43 41 40 39 37 35 32 29 30 35 34 30 29 41 47 46 46 44 47 46 44 45 47 45 45 45 44 42
51 51 50 50 50 40 35 34 38 45 41 32 27 29 39 41 40 38 37 39 36 34 32 30 30 32 33 29 27 40 44 45 44 47 46 43 44 42 43 44 44 45 42 42
50 50 49 49 49 46 37 39 45 43 37 34 26 27 33 40 35 34 37 33 34 33 31 31 29 31 29 24 32 39 43 46 45 43 43 44 43 43 42 41 41 39 39 40
50 49 49 42 38 36 36 47 46 43 37 27 26 25 25 39 37 38 35 35 26 34 28 29 30 27 22 31 33 36 41 39 38 42 42 42 40 40 40 39 38 36 37 38
50 41 40 32 36 46 44 39 36 34 35 34 28 32 28 36 34 34 33 33 27 24 28 32 28 26 37 36 38 41 41 41 39 39 36 33 32 36 35 35 37 37 37 38
38 35 35 36 46 39 35 32 30 32 27 31 31 33 31 37 30 31 36 32 30 28 29 29 28 31 34 36 36 37 39 41 40 40 40 40 39 36 35 35 36 38 40 37
38 36 41 40 38 28 20 16 27 26 25 32 32 32 33 34 38 33 34 31 32 26 34 30 30 34 35 35 34 35 37 39 40 41 41 40 38 36 36 37 38 38 39 39
37 32 26 27 23 18 15 13 18 18 28 26 27 26 32 35 36 34 33 31 31 34 31 31 32 33 35 35 35 34 33 35 37 39 39 39 37 36 36 37 37 38 37 37
26 18 18 19 15 17 19 20 19 27 24 24 26 29 27 32 31 34 30 35 33 27 24 27 32 32 31 35 37 37 35 34 34 35 37 35 36 35 34 33 32 32 32 34
23 22 17 15 24 18 19 26 21 25 27 25 24 26 31 29 28 33 32 30 27 29 29 32 33 33 33 35 36 35 33 33 33 34 34 34 34 33 32 32 32 32 32 32
21 19 19 23 17 16 17 15 18 25 28 25 27 24 26 27 29 28 29 29 27 29 33 35 35 33 33 32 33 32 33 34 35 35 34 33 33 32 31 31 30 31 32 32
28 18 25 21 16 20 20 27 27 31 25 18 21 15 18 24 25 23 30 29 30 32 33 33 34 33 32 32 33 33 33 33 32 32 32 31 32 34 30 28 29 29 30 30

GFSNW_sfc_temp_042.txt.gz
Temp
55 55 55 55 55 55 47 38 35 47 48 39 34 29 39 46 45 47 45 43 42 38 39 37 35 37 41 48 47 39 41 36 31 34 43 46 43 36 40 31 25 24 23 28
55 55 55 55 55 55 42 38 37 46 46 30 32 39 43 45 44 44 44 43 45 43 40 35 37 39 46 48 47 42 43 33 26 30 36 40 37 39 40 38 33 24 22 29
55 54 54 54 55 55 43 38 36 40 43 42 38 37 39 40 45 45 46 44 45 42 40 42 37 37 44 46 47 50 48 35 29 27 31 36 32 36 38 35 25 31 28 33
55 54 54 54 54 54 43 36 37 41 35 41 41 42 42 42 43 45 45 42 43 40 35 37 35 38 40 45 47 44 42 29 29 35 37 35 35 37 38 33 39 33 40 39
54 54 54 53 54 51 36 32 35 37 36 39 39 41 41 42 42 42 40 43 43 42 38 37 36 39 37 37 39 38 38 26 29 26 36 34 32 36 38 39 39 37 36 35
54 53 53 53 53 47 33 33 36 36 39 38 40 40 42 42 41 44 45 46 42 40 41 42 42 43 44 42 39 36 35 28 22 20 32 32 27 34 36 37 40 40 34 44
53 53 53 53 53 47 37 35 33 30 30 37 38 39 42 39 40 40 43 45 44 44 47 45 43 43 43 43 38 41 34 30 24 18 26 16 34 39 42 40 40 43 42 44
53 53 53 53 53 52 39 36 34 30 27 33 37 37 38 37 39 39 42 44 45 46 44 38 35 34 36 39 41 38 39 33 24 22 19 30 35 38 37 35 36 44 43 44
53 53 53 53 53 52 40 37 37 33 28 29 36 34 35 30 31 38 42 45 45 44 39 36 29 25 33 33 39 41 43 42 31 27 23 22 35 40 44 43 31 43 46 44
53 53 52 53 52 52 42 39 39 34 28 33 35 31 32 35 32 31 40 38 39 42 34 32 29 26 37 30 29 30 36 35 31 29 30 31 41 45 46 31 35 44 45 46
53 52 52 53 52 52 43 40 42 36 29 31 37 39 33 34 33 27 34 35 39 39 33 31 30 30 33 30 33 32 31 28 28 31 27 22 43 43 38 43 43 43 43 43
52 53 52 53 52 52 47 37 43 46 33 32 38 40 41 41 39 34 32 32 36 36 35 36 34 33 35 30 27 33 31 35 31 32 33 43 45 45 47 47 46 45 44 44
52 52 52 52 52 52 46 37 42 38 35 31 33 35 43 45 44 44 31 33 36 36 37 33 36 32 34 29 29 31 35 39 36 37 40 41 45 46 47 47 46 46 46 47
52 52 52 52 52 51 47 43 39 37 35 28 30 42 39 46 45 44 42 39 40 38 34 30 31 33 35 31 33 33 38 38 36 36 40 41 44 45 47 46 45 45 45 45
51 51 51 51 51 50 42 38 39 39 33 27 30 38 42 44 43 42 42 40 37 34 29 27 28 33 31 32 33 33 41 39 35 35 43 43 44 47 46 44 45 45 45 43
51 51 50 50 50 48 39 35 39 41 38 30 28 38 39 42 42 41 40 39 37 35 32 29 31 34 32 27 28 37 42 46 41 37 42 44 45 43 44 45 44 44 43 42
50 50 50 50 49 38 34 33 37 44 38 29 23 26 37 40 39 37 37 39 36 34 32 29 29 30 32 29 24 36 39 42 43 43 42 43 44 43 43 44 43 45 42 41
50 49 50 50 49 45 35 38 45 42 34 31 18 25 32 39 34 34 38 34 34 33 31 31 29 30 29 24 30 34 37 38 42 42 40 40 43 40 40 40 41 39 39 38
49 50 49 41 36 32 34 46 45 41 33 21 21 21 22 37 35 37 35 35 28 32 28 29 30 28 22 32 33 34 38 36 38 38 38 39 41 40 39 39 38 36 37 37
49 41 36 29 34 45 43 38 36 35 35 28 20 27 22 32 32 31 34 33 28 24 29 31 28 26 34 38 36 35 40 41 40 36 34 34 35 37 36 35 37 37 36 36
37 32 29 35 43 37 33 33 30 32 23 32 34 29 30 34 29 31 34 31 30 25 29 28 23 28 35 38 36 35 35 38 39 40 39 37 39 37 36 36 37 37 37 36
37 35 38 36 34 25 20 17 25 24 21 31 32 28 30 30 35 33 34 30 31 25 33 28 28 33 35 33 35 35 35 36 38 40 39 39 36 36 37 38 38 38 38 38
36 31 22 26 22 20 14 11 17 17 26 23 24 24 28 31 35 33 33 30 30 33 30 30 31 35 35 33 36 35 34 34 35 35 36 37 37 37 36 36 36 37 37 37
26 18 19 17 14 16 17 17 17 24 28 24 26 29 24 29 26 33 29 35 34 28 26 26 31 36 35 34 35 36 35 34 33 33 34 33 33 35 34 33 33 32 32 32
25 22 20 16 22 16 20 27 21 23 25 24 24 30 29 23 26 27 30 30 28 25 24 29 34 37 35 34 33 33 33 33 34 33 32 32 32 32 32 32 32 32 31 31
21 19 20 23 17 14 15 15 17 23 27 24 31 27 25 25 27 26 23 27 20 25 29 33 35 34 34 34 33 32 33 33 33 34 34 33 32 32 31 30 29 29 30 29
24 19 26 21 18 19 20 25 26 29 24 18 17 13 16 26 24 23 26 23 22 28 31 31 31 32 33 33 32 32 31 33 30 31 32 31 31 30 32 29 28 28 29 28

GFSNW_sfc_temp_045.txt.gz
Temp
55 55 55 56 55 55 46 38 34 45 47 40 38 27 37 46 44 45 43 41 40 36 39 36 36 35 38 47 45 38 39 36 30 35 42 45 40 34 35 26 23 23 22 27
55 55 55 55 55 55 40 38 37 46 47 29 31 38 42 43 43 43 43 41 43 41 37 34 35 38 45 47 44 39 41 30 28 31 37 40 37 37 37 35 30 24 23 29
55 55 54 54 55 54 42 36 31 38 43 39 35 35 38 39 45 43 45 42 43 40 37 39 35 36 43 47 48 50 47 35 30 26 30 36 34 38 37 35 26 31 31 34
54 54 54 54 54 52 41 35 34 37 30 38 40 38 40 40 42 43 44 41 41 39 34 35 34 37 39 43 47 43 42 32 30 35 38 34 33 35 38 34 38 30 39 34
54 54 53 53 53 50 35 31 31 35 34 40 40 41 40 40 42 40 39 40 41 39 36 35 35 37 35 37 38 37 37 27 29 25 35 34 32 34 36 37 39 39 37 36
53 53 53 53 53 46 33 32 35 34 37 39 39 37 39 40 42 42 43 43 40 38 39 41 40 41 42 41 39 35 34 28 23 21 30 31 27 33 34 36 40 39 33 44
53 53 53 53 53 46 35 33 32 31 30 38 37 37 40 38 38 40 41 44 41 42 45 43 41 41 40 41 37 39 32 29 24 18 26 16 33 38 39 38 40 42 41 41
53 53 53 53 53 50 37 35 32 30 27 29 34 37 35 37 38 40 42 43 43 44 42 37 34 33 35 36 38 37 38 31 23 20 20 28 35 35 35 34 36 42 41 44
53 52 53 53 52 51 39 36 35 32 29 27 33 31 33 30 31 37 40 43 42 44 39 35 27 25 29 29 36 42 42 41 30 26 22 20 33 39 41 40 29 40 42 43
52 52 52 52 52 52 41 38 37 33 29 31 32 28 28 33 32 33 38 38 37 40 34 32 28 26 33 28 29 29 34 35 29 30 29 30 38 41 43 28 33 42 42 42
52 52 52 52 52 52 42 38 40 34 29 31 35 37 31 31 30 30 34 34 35 36 31 31 30 29 31 28 31 31 31 27 28 31 28 23 41 40 35 41 42 44 43 42
52 52 52 52 52 51 45 35 41 43 32 32 36 37 39 38 37 32 32 30 36 35 34 34 35 31 33 29 26 31 30 34 31 32 32 43 44 44 46 45 44 45 45 44
52 52 52 52 52 51 45 36 37 36 31 31 33 33 40 43 41 42 31 32 34 35 37 32 36 32 32 27 28 28 34 36 35 36 40 40 43 45 45 45 45 46 45 44
52 52 52 51 51 50 46 37 37 35 32 25 30 41 36 43 42 41 41 38 39 35 32 28 28 31 35 29 31 31 37 36 34 34 39 40 43 44 46 47 46 44 44 45
51 51 51 51 50 48 41 38 37 38 32 27 29 35 39 41 41 40 40 39 36 33 29 27 27 32 31 32 32 31 36 34 31 34 35 35 39 44 46 44 45 45 45 43
51 50 50 50 50 47 39 33 37 40 37 26 23 34 35 37 38 38 37 38 36 34 32 31 32 33 31 25 25 35 38 39 39 35 41 40 44 45 43 43 44 44 44 44
50 50 50 49 47 37 34 33 38 43 37 28 23 24 35 37 36 36 35 38 36 35 32 30 29 30 32 29 25 36 37 38 38 38 38 37 38 38 40 41 42 44 41 41
50 50 50 49 48 44 35 37 44 41 33 30 16 21 28 37 31 33 38 34 34 32 31 31 29 31 29 25 31 37 39 37 37 36 37 37 38 40 41 40 39 38 38 38
50 50 48 40 35 31 33 45 45 40 32 21 19 18 19 34 31 35 35 34 27 32 29 29 30 28 23 32 33 32 35 34 36 41 37 37 38 38 40 40 36 36 36 36
49 40 35 29 33 44 43 36 33 30 35 27 20 28 21 31 28 28 34 32 28 25 29 31 28 28 35 37 37 36 36 35 36 35 35 35 33 35 38 37 38 37 36 36
36 32 28 34 43 35 32 24 25 27 22 31 33 32 30 32 28 29 34 31 30 23 28 28 26 29 36 37 35 35 36 36 36 38 39 37 36 35 37 37 37 37 36 35
37 35 37 35 30 24 20 15 22 23 22 28 27 27 29 29 36 33 34 29 30 26 31 28 27 30 36 36 35 35 37 35 35 36 36 37 37 37 37 38 38 38 38 37
35 31 24 27 21 19 13 12 14 16 21 24 24 23 26 29 33 33 32 29 29 32 28 28 28 33 37 36 35 34 35 34 35 34 35 35 35 35 33 35 35 35 36 36
27 21 19 18 13 15 16 17 17 23 29 22 26 28 26 28 24 31 28 34 32 27 22 23 28 34 36 36 36 34 33 33 32 32 33 33 32 33 32 32 33 32 32 32
22 24 21 15 22 18 21 25 23 22 26 24 24 25 29 27 27 28 29 28 21 17 19 22 30 35 35 34 35 32 30 32 32 34 33 32 32 31 31 32 31 31 31 31
20 18 18 21 16 12 17 22 19 22 26 25 30 24 25 26 27 25 24 25 23 18 19 25 29 33 33 33 33 32 31 31 33 32 32 31 31 30 29 31 31 30 31 30
17 18 25 20 18 18 19 25 26 28 24 17 16 12 18 26 22 22 27 26 20 21 24 25 29 30 32 33 32 32 31 33 32 31 32 31 32 31 30 28 30 28 29 29

GFSNW_sfc_temp_048.txt.gz
Temp
55 55 55 55 55 55 46 38 37 45 50 39 38 26 35 45 42 43 41 41 41 39 38 35 33 33 37 46 44 37 38 34 31 35 42 41 36 33 33 25 22 22 21 27
55 54 54 55 55 53 40 35 39 48 47 34 30 36 40 42 41 41 41 40 42 40 36 34 36 36 42 46 43 39 40 33 28 29 36 38 37 38 35 33 29 22 21 29
54 54 54 54 54 53 41 35 30 38 43 41 33 33 36 37 43 42 43 41 42 39 36 37 33 36 44 47 47 49 46 33 29 25 29 34 32 36 37 35 30 33 32 34
54 54 54 54 53 52 41 33 32 34 28 34 35 36 37 37 40 42 42 39 39 37 32 33 33 36 39 45 48 43 41 27 28 33 36 33 32 33 36 34 36 31 39 37
53 53 53 53 52 49 34 31 31 34 32 35 33 36 36 37 40 40 37 38 39 38 35 34 33 36 34 35 37 37 38 28 29 27 34 33 31 34 35 38 38 37 38 37
53 53 53 53 52 45 32 31 33 33 34 34 38 35 38 37 38 41 44 43 41 38 37 38 38 39 39 39 37 34 34 27 22 20 29 30 26 33 34 34 38 38 33 42
53 53 53 53 51 44 35 32 30 31 30 32 36 37 38 36 36 38 41 43 41 41 43 42 40 40 39 39 35 38 31 28 24 18 24 14 32 36 39 36 39 41 40 44
53 53 53 53 51 49 36 33 32 30 27 29 32 34 34 36 36 39 42 41 41 42 41 37 34 32 33 34 35 33 36 30 23 20 19 28 33 34 34 33 35 38 40 43
52 52 52 53 52 49 37 34 34 31 29 26 30 29 31 27 29 37 40 42 40 41 38 35 27 24 29 29 34 41 41 40 30 25 20 20 32 37 40 39 29 40 40 40
52 52 52 52 52 50 40 36 36 32 28 30 30 26 27 31 30 32 34 37 36 38 33 31 28 25 31 28 28 29 33 34 27 26 25 29 37 40 41 27 32 41 40 41
52 52 52 52 51 50 41 37 38 34 29 30 34 35 30 30 29 27 32 33 34 33 30 30 29 28 29 27 29 29 30 26 26 28 26 20 39 38 32 40 41 42 42 42
52 52 52 52 51 50 44 35 40 40 32 32 34 36 37 36 35 31 31 30 35 33 35 34 33 29 32 26 25 30 28 33 32 31 30 40 40 41 44 44 42 43 43 44
52 52 52 51 51 50 44 35 35 35 31 31 32 32 38 42 40 40 30 32 34 34 35 32 36 32 32 25 26 27 30 34 36 35 37 36 40 41 40 41 43 45 46 46
52 52 52 51 50 49 45 36 35 34 31 27 30 40 35 41 41 41 39 37 37 35 32 28 28 29 33 28 29 29 34 35 32 31 35 36 38 40 41 43 44 43 45 46
52 52 51 50 49 48 41 37 37 37 32 28 30 34 37 39 39 38 38 37 35 31 28 27 27 28 29 29 29 27 32 30 28 27 33 32 34 40 43 42 40 42 42 43
51 50 50 50 49 46 37 32 36 38 36 28 25 33 33 36 37 39 36 35 34 33 31 29 30 33 31 27 27 33 35 36 38 34 37 36 38 41 41 39 41 41 42 42
50 50 50 50 48 37 33 33 37 42 36 29 23 24 34 36 34 34 33 35 32 32 30 29 29 31 32 30 26 34 36 39 38 37 35 34 37 35 38 38 42 42 41 41
50 50 49 49 48 43 34 37 44 39 32 29 15 18 27 35 30 32 38 34 34 31 29 31 30 32 31 26 32 36 37 37 35 35 36 37 39 37 39 40 39 39 38 37
50 49 48 39 34 31 32 45 43 36 32 22 19 21 16 32 30 34 35 35 26 31 28 29 31 29 25 33 34 34 35 34 34 35 36 39 39 39 38 37 38 37 37 38
49 41 36 30 32 44 42 35 31 30 29 27 19 29 22 29 27 29 31 32 29 20 29 32 29 28 33 35 37 37 35 36 34 32 32 34 34 35 35 35 38 38 37 37
37 33 31 34 42 34 31 23 23 25 21 28 25 23 21 31 21 23 32 29 30 21 27 28 27 26 33 36 38 38 36 37 35 35 35 36 36 34 34 35 38 38 37 36
38 36 37 33 30 25 21 13 21 23 21 26 24 26 28 28 31 32 30 29 29 21 30 27 23 28 34 37 37 37 34 33 34 35 33 34 35 35 33 35 34 34 36 36
36 33 27 28 21 20 14 14 13 16 21 24 25 19 26 29 29 27 30 29 28 32 27 23 25 31 34 35 37 36 35 33 32 34 34 33 34 34 33 32 32 32 34 33
29 26 21 20 17 17 17 19 18 23 29 24 26 22 26 27 25 30 26 30 32 25 18 19 20 28 32 33 34 35 34 33 31 31 32 33 32 32 33 32 31 30 31 32
24 26 22 18 23 20 20 21 24 23 29 24 23 21 29 26 27 30 30 28 25 18 17 18 23 30 31 31 32 31 31 31 31 32 31 31 31 30 30 30 30 30 31 30
22 19 20 23 18 12 23 25 19 22 25 28 23 18 20 25 28 25 20 24 22 19 17 23 25 31 30 30 31 30 30 30 31 32 33 32 31 30 29 31 30 28 29 29
20 18 26 20 16 19 20 23 25 27 24 17 16 12 17 25 22 21 27 25 22 20 21 22 27 28 28 29 29 30 30 30 30 31 32 32 33 31 30 29 30 29 28 28

GFSNW_sfc_temp_051.txt.gz
Temp
55 55 55 55 55 53 46 38 38 46 50 39 38 30 34 44 41 43 43 43 41 38 39 38 32 33 38 46 43 38 39 35 32 35 42 43 38 36 36 28 26 26 26 31
54 54 54 55 54 53 39 35 41 47 47 34 29 34 39 40 40 40 41 39 42 42 37 33 36 36 43 45 43 39 40 31 29 31 37 40 38 37 37 34 31 24 27 33
54 54 54 54 54 53 41 35 30 41 43 42 35 33 35 36 42 41 41 39 41 38 35 37 35 35 44 46 45 48 45 34 30 26 30 34 32 35 37 34 26 30 33 37
53 53 53 54 52 53 41 33 31 34 35 35 33 34 36 36 38 41 41 39 37 36 32 32 32 35 41 45 46 43 40 28 29 34 36 35 35 35 36 34 36 32 39 38
53 53 53 53 51 49 34 32 32 32 31 34 32 35 35 35 37 38 37 37 37 37 34 33 33 36 35 37 41 40 39 28 31 28 34 34 32 34 34 36 37 37 38 37
53 53 53 52 51 46 32 30 32 34 32 32 36 35 36 36 37 40 43 41 40 37 36 37 37 38 39 38 37 34 35 32 28 25 30 31 28 34 34 35 38 39 34 42
53 53 53 52 51 44 34 31 31 32 29 31 32 37 39 36 35 37 40 43 40 40 42 41 39 39 38 39 35 37 31 29 25 19 26 17 34 38 38 36 38 39 39 43
53 53 53 52 50 48 34 32 32 31 26 30 31 34 34 34 36 37 40 40 39 39 40 37 34 32 34 35 36 34 36 31 24 21 20 28 33 35 35 34 36 40 39 42
52 52 52 52 50 48 36 34 33 32 30 26 30 28 30 29 31 36 40 42 40 41 38 35 28 25 29 28 33 41 41 40 32 26 21 21 33 38 40 39 30 43 41 41
52 52 52 52 51 49 40 36 35 33 28 29 28 26 27 30 28 30 33 36 35 38 35 32 28 25 31 27 28 29 33 34 29 28 28 30 37 40 41 29 33 42 42 42
52 52 52 52 51 49 42 36 37 34 29 29 33 34 27 30 28 27 32 31 33 33 31 31 28 28 27 26 28 28 30 27 27 29 28 22 40 40 36 38 40 41 42 43
52 52 52 51 50 49 44 34 39 38 32 32 34 35 35 35 34 30 29 30 35 31 34 34 32 29 31 25 24 30 28 34 31 32 31 39 40 40 41 40 39 40 40 43
52 52 52 51 51 50 43 35 35 34 31 31 32 31 37 40 38 39 29 29 32 32 32 33 36 30 32 24 26 26 30 34 32 34 35 33 37 39 39 39 40 43 43 42
52 52 52 51 50 49 44 35 34 34 32 27 30 39 34 39 39 39 37 35 35 34 32 29 28 28 30 30 31 29 31 33 28 29 33 36 36 40 39 40 40 40 41 42
52 52 51 50 49 47 40 36 35 36 34 29 29 33 36 37 38 37 37 36 33 29 26 26 27 28 28 27 27 25 30 28 25 25 33 34 35 39 40 37 37 38 39 39
51 51 50 50 48 44 38 34 37 37 35 30 25 32 31 35 36 36 34 34 32 30 29 28 31 34 31 27 26 32 33 35 36 34 39 37 37 38 38 37 38 38 40 40
51 50 50 49 47 39 35 35 36 40 35 31 22 22 32 33 33 33 33 33 30 30 28 28 28 30 32 30 27 36 38 38 38 39 36 34 38 36 39 40 40 42 41 41
50 50 50 49 48 43 36 38 43 38 31 29 15 16 26 33 29 32 35 30 31 29 28 28 28 30 30 27 34 37 39 37 36 37 37 35 37 38 41 41 39 37 38 38
50 49 48 40 36 32 34 45 42 35 32 21 19 13 14 31 29 31 35 30 25 29 27 28 30 27 24 33 35 36 37 34 34 36 35 36 34 35 36 36 36 35 38 38
49 41 36 32 34 43 42 34 32 29 29 27 19 29 18 26 26 27 30 29 28 17 27 30 27 26 33 34 36 38 37 36 36 31 30 32 32 33 34 34 35 37 37 37
38 33 31 35 42 35 31 23 23 25 22 27 23 21 19 29 20 22 30 27 25 15 23 25 20 22 30 34 34 36 36 34 34 34 34 35 34 32 33 33 35 34 35 35
39 37 37 35 31 25 22 13 21 23 21 26 24 26 27 28 30 31 32 27 28 15 26 21 18 24 31 32 32 34 33 32 32 34 33 35 34 33 33 33 33 32 33 34
37 34 29 30 23 22 16 14 16 17 22 26 24 19 25 28 29 26 30 27 23 31 26 18 21 27 31 31 32 32 31 31 31 31 32 33 34 34 33 32 32 31 31 32
31 29 23 24 19 19 19 20 19 23 27 26 26 22 26 28 25 28 26 28 32 26 17 15 17 25 30 30 31 30 30 30 28 28 29 29 30 30 32 31 31 29 29 31
28 30 25 21 23 22 17 18 22 27 29 26 24 21 25 21 27 30 28 27 22 23 16 17 21 28 29 29 29 28 27 27 27 29 28 27 28 30 31 31 30 30 30 29
27 23 23 24 22 17 25 24 18 27 27 25 23 16 14 23 28 25 22 11 11 18 16 22 23 29 28 28 29 28 27 27 28 28 29 30 29 30 32 31 31 30 29 28
25 21 28 25 23 23 21 24 26 27 25 19 16 13 16 25 22 21 26 19 21 21 20 21 26 27 26 27 27 28 28 27 27 27 28 28 30 31 31 29 31 30 30 29

GFSNW_sfc_temp_057.txt.gz
Temp
56 55 55 55 55 54 53 54 43 54 58 41 49 40 46 46 48 51 45 45 45 47 48 44 44 42 47 55 53 45 51 46 36 40 47 52 51 49 50 40 36 43 41 44
55 55 55 55 55 54 58 49 49 53 54 39 44 48 48 50 49 49 48 44 46 48 47 42 46 46 51 53 52 47 51 42 31 33 43 49 46 50 50 51 45 39 37 45
55 55 54 54 54 55 57 52 39 45 47 48 47 47 47 46 51 50 51 50 50 48 46 48 44 45 49 53 53 48 53 46 41 36 40 48 41 46 48 46 37 41 43 47
55 54 54 54 54 55 56 53 50 51 38 45 49 48 49 47 45 52 53 49 49 48 44 45 43 45 47 50 49 52 52 39 39 45 46 45 45 46 47 41 44 40 46 48
55 54 53 53 54 54 54 51 49 50 51 51 49 45 46 47 47 48 47 47 49 50 47 45 43 45 45 45 50 49 50 37 41 35 43 43 40 46 47 48 48 47 48 47
54 54 53 53 54 54 54 52 53 53 45 49 49 48 47 46 49 50 51 51 51 47 46 50 52 53 53 52 48 46 46 41 36 34 40 40 36 44 46 46 49 48 42 51
54 53 53 52 53 53 59 55 56 51 45 49 49 47 48 47 47 47 49 52 50 49 54 54 56 54 53 52 50 52 45 42 40 34 37 28 41 49 48 45 48 50 50 51
54 53 52 51 52 52 56 53 54 54 46 49 45 47 47 48 49 47 48 49 50 53 51 48 43 44 45 46 49 49 51 46 37 34 36 42 42 46 46 44 41 48 47 49
53 53 52 50 50 50 53 51 51 56 47 44 47 46 48 46 46 47 47 52 54 52 50 46 37 34 40 37 41 48 48 50 43 38 31 31 42 48 52 50 38 47 47 47
53 53 52 51 50 50 53 48 49 54 43 43 44 46 45 46 46 48 46 46 49 52 47 41 39 38 44 36 35 37 40 41 36 36 34 41 44 49 51 35 37 46 47 47
53 53 52 52 50 51 53 46 50 53 42 41 44 44 44 43 46 47 44 45 46 48 42 41 41 41 44 42 43 41 39 37 36 39 33 30 46 49 41 43 47 47 47 46
53 52 52 51 50 50 53 45 51 55 47 41 47 45 46 45 44 46 45 44 43 45 43 45 43 40 43 43 37 46 37 43 41 41 41 46 49 47 48 49 44 45 45 46
52 52 52 51 51 50 51 48 50 52 45 44 46 41 46 50 48 49 45 45 44 44 46 47 45 39 43 40 41 41 43 46 43 42 45 46 49 51 50 49 45 46 47 46
52 52 52 51 51 51 52 49 48 51 50 41 38 49 44 50 50 48 48 46 46 47 48 45 44 41 42 41 40 41 42 44 40 42 48 46 48 50 47 44 45 46 47 45
52 52 51 50 50 50 50 48 47 49 47 40 39 45 46 48 48 47 48 47 46 46 42 42 40 42 41 43 42 41 45 41 38 40 43 41 43 46 44 41 41 42 40 41
51 50 50 50 50 51 52 46 48 49 50 42 35 43 42 45 47 45 44 45 45 45 44 41 41 41 40 37 38 43 44 44 44 39 41 41 42 44 44 40 39 40 40 41
50 49 50 49 49 48 44 43 46 47 49 43 34 35 41 43 44 44 44 46 43 44 41 40 41 40 40 39 37 44 45 46 45 44 42 38 41 38 42 41 41 41 41 41
50 49 49 49 48 48 45 45 46 47 46 46 33 31 37 42 39 37 44 42 43 41 40 40 39 39 39 34 43 45 45 45 44 43 44 42 44 43 42 41 39 36 36 38
49 49 49 47 45 44 43 45 46 47 46 35 37 33 30 41 38 40 39 42 37 41 38 39 38 37 32 41 43 43 44 41 41 42 42 42 41 40 40 41 39 35 35 36
49 48 46 39 40 45 45 44 43 41 42 41 33 36 31 39 39 37 35 36 36 31 37 39 35 37 44 45 45 45 44 43 43 37 34 36 35 38 39 39 40 38 36 36
46 41 36 40 44 41 41 35 37 39 35 39 36 37 33 40 35 35 38 31 32 29 32 33 33 35 41 45 45 45 45 45 44 43 42 42 41 39 39 39 40 39 38 36
44 41 43 41 38 36 34 29 33 35 33 36 37 35 39 37 41 36 35 31 31 27 34 30 27 36 41 42 41 43 45 44 42 43 41 41 41 41 39 39 39 38 39 38
45 42 35 37 34 32 34 28 30 31 33 32 33 31 37 36 38 33 33 29 30 36 30 30 34 38 41 42 42 42 40 39 38 38 39 39 38 38 38 36 38 39 39 40
40 35 30 33 32 34 35 37 35 35 35 34 36 33 34 35 33 33 28 35 34 27 26 29 35 38 40 42 43 41 41 40 36 34 35 34 33 33 34 35 36 36 36 38
35 36 32 30 28 30 30 32 33 34 38 36 33 33 37 32 30 34 32 29 25 30 30 34 37 40 40 40 40 40 39 39 38 38 36 34 33 33 33 36 37 37 37 36
34 31 27 30 30 27 31 32 29 35 36 36 37 31 29 28 30 28 26 25 24 31 34 38 40 40 40 39 39 39 39 38 37 38 39 38 37 36 35 36 35 35 36 34
33 29 35 34 35 33 34 38 36 39 36 33 33 29 27 31 27 26 32 27 33 35 36 38 39 37 38 38 38 37 37 36 36 36 36 35 36 34 31 30 34 35 35 34

GFSNW_sfc_temp_060.txt.gz
Temp
55 55 56 56 56 55 52 51 40 52 56 41 44 39 46 47 47 49 45 44 44 46 46 43 42 40 45 52 49 44 47 42 32 37 45 49 46 44 44 30 29 33 30 34
55 54 56 56 55 55 53 47 45 53 52 37 40 47 47 50 48 47 45 44 46 48 46 39 45 45 51 53 50 46 49 38 27 30 40 46 42 45 46 44 38 31 26 33
54 55 55 55 55 56 51 48 38 44 46 47 41 45 46 44 50 50 51 49 50 48 46 48 43 43 49 51 52 49 48 43 33 27 33 40 36 42 45 40 28 34 34 37
54 54 55 55 55 55 50 49 44 47 36 41 45 47 48 45 44 51 52 47 48 47 42 43 42 44 46 49 48 48 47 35 33 41 44 41 41 41 43 36 39 31 39 41
53 54 54 54 54 55 47 45 45 47 47 49 47 45 46 47 46 47 46 46 49 48 43 43 41 44 44 40 44 43 46 32 34 29 41 40 34 42 44 45 45 44 43 42
53 53 54 54 54 54 48 48 50 48 46 47 45 45 46 47 48 48 51 51 48 44 44 47 49 49 50 49 46 44 41 33 29 27 35 34 27 37 41 42 43 43 37 41
53 54 54 54 54 54 51 50 51 45 39 46 46 49 48 46 47 45 48 51 47 46 51 50 48 48 48 48 47 49 42 37 31 25 28 18 35 42 44 43 45 45 45 44
53 53 53 53 54 54 49 49 48 46 42 45 46 47 46 46 47 46 46 46 47 50 48 43 38 39 39 42 45 43 46 40 30 26 25 34 37 41 40 39 38 43 42 44
53 53 53 53 54 54 49 48 46 46 44 38 48 45 46 42 41 43 45 49 50 47 45 41 29 30 36 34 37 42 45 43 34 30 25 23 35 43 46 44 30 42 42 42
53 53 52 52 53 53 49 44 46 47 38 39 41 40 40 45 43 43 43 43 44 46 40 35 32 30 40 31 30 31 34 35 29 29 26 32 39 44 46 29 29 41 42 42
53 52 52 51 51 53 49 43 47 45 39 37 43 43 39 41 41 39 39 39 41 41 37 35 34 33 35 34 36 34 33 29 29 31 28 23 42 42 35 36 41 41 41 40
52 53 52 51 51 52 52 41 49 50 40 37 44 44 45 43 42 39 40 40 41 39 40 37 36 33 35 35 29 37 31 34 31 34 32 41 43 42 43 42 39 39 39 41
53 53 52 52 52 52 51 44 45 46 39 38 39 37 44 48 46 46 37 39 42 40 39 38 37 36 35 30 31 33 35 39 35 36 39 40 42 43 42 41 39 40 42 42
53 53 52 52 52 53 52 45 44 45 43 33 33 47 41 47 47 46 45 42 43 42 40 36 35 34 36 32 34 33 35 37 34 35 37 40 41 41 40 40 42 42 42 41
53 52 52 51 52 51 48 45 44 45 42 33 33 41 44 46 45 45 46 44 42 38 33 32 31 34 33 34 33 32 37 34 31 30 36 35 37 39 43 40 39 40 39 38
52 52 51 52 51 51 47 40 44 46 46 36 29 39 39 42 43 42 41 40 39 37 35 32 33 37 32 28 29 36 38 39 39 35 38 38 40 41 42 38 38 40 39 39
51 51 51 51 49 43 40 39 42 46 44 35 29 28 37 39 39 39 38 40 36 36 34 32 33 33 33 31 28 37 40 41 40 39 36 34 37 35 39 39 39 39 38 39
51 50 51 50 49 48 41 41 46 44 40 39 27 24 30 38 37 35 39 35 36 34 32 33 31 33 32 26 37 39 41 40 39 38 37 37 38 38 37 38 37 35 35 36
50 50 51 46 42 40 39 45 46 43 40 30 30 25 21 36 36 38 36 36 30 33 31 31 32 30 24 34 38 38 39 37 36 37 36 36 36 35 35 36 35 33 33 34
50 47 43 36 37 46 44 42 38 35 36 35 27 30 23 33 34 34 34 35 33 29 32 32 29 29 38 39 39 39 39 39 38 32 29 31 28 33 34 34 35 35 34 35
43 37 34 39 44 40 39 32 30 31 29 32 30 30 26 34 30 31 35 31 31 27 29 31 31 26 34 39 38 39 39 38 36 36 37 37 36 34 33 34 36 36 36 35
43 40 41 39 37 34 31 26 28 30 25 31 29 30 31 31 35 31 33 28 30 26 32 29 26 31 34 36 35 37 37 36 36 37 36 36 37 36 34 33 34 34 35 35
42 38 34 34 31 28 28 21 22 23 29 28 27 25 30 31 36 33 31 23 24 30 27 26 28 32 35 35 36 35 33 33 34 35 35 35 34 34 33 31 32 32 32 33
35 33 26 29 26 30 31 30 29 30 31 32 30 27 27 31 29 32 20 29 32 26 17 18 22 30 34 35 36 35 34 35 29 28 30 30 29 29 30 30 31 31 31 33
31 34 25 27 27 28 29 28 29 31 33 30 28 27 30 25 24 29 25 20 15 20 20 23 25 32 34 33 34 33 32 32 31 32 28 27 28 26 28 30 31 31 32 32
31 28 25 29 28 26 28 28 28 31 31 30 29 24 20 21 23 19 16 17 15 19 23 26 30 32 32 32 33 32 32 31 31 32 32 32 31 29 29 31 31 31 30 30
30 25 32 31 31 30 30 32 30 33 30 25 25 18 19 23 18 19 24 17 22 24 25 26 30 30 30 31 31 31 30 30 30 29 30 28 31 28 26 26 31 30 31 31

GFSNW_sfc_temp_063.txt.gz
Temp
56 56 55 55 56 56 51 44 36 51 49 39 40 36 44 48 45 47 42 40 39 39 41 39 37 38 40 48 46 40 43 38 33 36 43 46 43 41 42 29 29 30 27 31
56 55 55 55 56 55 45 41 41 51 50 32 37 44 45 49 46 46 43 41 42 43 40 35 43 42 48 52 46 40 44 36 29 30 37 42 40 43 44 42 37 29 25 32
55 55 54 54 56 56 48 42 35 42 44 43 38 38 40 41 50 49 50 45 44 45 40 43 41 40 48 51 47 49 47 38 31 26 32 38 34 41 43 38 27 34 34 36
55 54 54 55 56 56 46 42 36 41 34 34 38 44 43 41 41 47 47 44 43 42 37 42 40 44 45 47 48 46 43 31 30 38 41 40 39 39 40 35 37 31 36 37
55 54 54 54 55 55 43 40 39 39 36 40 41 41 43 42 43 43 43 44 44 44 38 39 39 43 44 43 41 40 42 29 32 27 40 38 34 39 40 41 40 39 39 39
54 53 53 53 55 52 41 42 43 41 40 38 37 38 42 43 44 45 46 47 42 39 41 43 45 46 45 45 41 39 38 30 26 23 34 33 28 36 38 40 42 43 36 38
54 53 53 53 54 53 45 42 42 38 34 39 40 44 45 43 43 42 44 46 42 43 46 46 46 45 44 44 46 46 38 33 27 21 26 17 33 39 41 39 40 41 40 41
53 53 52 54 54 54 44 42 43 38 33 38 44 46 41 42 42 41 42 43 43 46 43 38 35 34 36 38 41 40 41 35 26 23 21 30 34 38 38 36 33 39 38 40
53 52 52 54 54 54 43 40 41 40 37 31 36 41 40 35 34 38 41 45 46 43 40 37 28 26 34 30 33 41 42 39 31 27 23 22 33 40 45 42 27 39 39 38
53 52 52 54 54 55 44 39 42 39 32 33 36 36 36 39 37 34 38 40 40 42 35 32 29 26 36 28 28 29 31 31 26 26 23 29 37 40 44 27 27 37 38 38
52 52 52 53 54 54 45 39 42 39 31 32 37 38 34 37 36 34 37 38 39 37 34 32 30 30 32 31 34 32 30 26 26 28 27 24 40 39 33 34 37 37 37 37
52 51 52 53 54 53 47 38 45 45 35 33 40 40 41 39 37 37 37 36 36 36 36 34 32 31 31 31 26 34 29 33 30 31 30 39 39 35 37 37 35 34 34 36
51 50 52 52 53 54 47 39 40 39 33 32 33 33 41 44 42 43 35 35 39 37 37 35 34 32 31 28 29 30 32 36 33 33 34 36 35 36 37 37 35 37 40 40
52 51 52 52 53 53 48 41 40 39 35 27 29 43 38 44 43 44 42 40 41 39 36 33 31 31 34 30 32 31 33 35 32 31 33 34 35 36 37 38 39 37 38 38
51 51 51 52 53 51 44 40 41 42 37 28 29 36 41 41 42 41 42 41 38 34 30 28 29 30 31 30 31 28 34 32 30 29 33 33 33 35 38 37 37 38 37 35
50 50 51 52 51 50 44 39 43 43 41 31 25 36 36 39 40 39 38 38 36 34 31 28 30 34 31 25 25 34 34 36 36 31 35 35 35 36 36 34 35 35 35 36
50 51 52 51 49 40 38 38 41 45 41 32 26 24 34 37 36 36 35 36 34 33 30 29 29 30 31 28 25 34 36 37 35 36 34 32 34 32 36 34 36 37 36 36
51 50 50 50 49 46 39 40 46 43 37 34 20 20 27 36 34 31 35 32 33 32 30 31 29 31 29 24 33 35 36 36 35 35 35 34 34 34 34 34 34 32 32 32
50 50 51 43 39 37 38 46 45 40 36 26 24 21 17 34 34 36 32 32 27 31 30 30 31 28 22 31 34 34 36 35 34 35 34 33 32 32 33 32 32 31 30 31
50 46 41 34 34 46 44 39 35 33 32 29 22 23 20 30 36 34 33 34 31 20 29 31 29 27 34 35 35 36 36 37 36 30 28 29 26 30 31 31 32 32 31 32
41 36 33 37 44 39 37 30 30 28 24 28 26 24 23 32 25 28 33 30 31 26 27 26 27 26 30 34 35 36 36 36 34 34 34 33 33 31 31 31 32 32 32 31
42 39 39 37 35 32 28 23 27 27 24 26 25 27 28 30 32 28 33 25 30 25 32 28 26 30 34 33 33 34 34 33 33 34 34 34 34 33 31 31 30 30 32 32
40 36 30 29 25 23 19 21 20 19 25 24 25 23 28 31 33 30 25 19 19 28 26 23 24 31 32 32 34 33 30 29 31 33 33 33 32 32 30 29 30 29 29 31
33 27 24 22 18 24 28 26 23 26 26 28 28 26 27 30 26 26 16 28 28 16 11 16 20 27 30 32 34 33 31 31 27 25 29 29 27 27 28 29 29 29 29 31
27 26 20 19 26 27 25 21 26 26 30 28 27 27 28 22 22 26 22 17 10 16 18 20 21 29 30 31 32 31 29 29 28 28 25 23 25 25 27 29 29 29 30 31
26 22 20 28 27 26 23 23 27 26 30 27 28 21 18 20 21 16 12 14 12 18 19 23 26 29 30 30 30 29 29 28 28 28 29 29 28 27 28 30 28 28 28 27
20 20 30 28 29 27 26 27 27 30 29 23 22 17 18 22 15 16 20 15 19 21 22 23 28 29 28 28 29 30 29 28 27 26 27 26 28 24 21 23 28 28 29 28

GFSNW_sfc_temp_066.txt.gz
Temp
54 54 56 55 55 55 51 44 35 47 48 38 39 36 43 47 43 44 40 39 38 37 38 35 34 36 38 45 44 39 40 36 30 31 41 43 42 39 37 26 27 27 24 30
53 53 55 54 55 55 46 40 42 49 47 34 34 44 45 46 43 42 41 40 42 41 38 34 40 40 46 48 44 38 41 33 22 28 35 41 39 41 43 40 35 30 25 31
54 53 54 54 55 55 48 40 35 41 43 42 38 39 41 42 47 45 46 43 42 40 39 40 40 41 48 50 45 49 46 35 30 25 30 36 33 39 41 37 28 32 33 36
53 55 54 54 54 55 48 40 34 41 34 36 35 39 40 40 40 44 45 41 41 40 34 37 37 43 44 46 47 44 41 30 29 35 38 37 36 38 39 35 37 34 39 37
52 54 54 54 54 55 45 39 36 37 34 37 35 39 38 40 41 41 40 40 42 41 37 37 35 43 40 37 40 39 39 27 31 27 38 37 34 37 38 38 38 38 39 36
52 53 53 53 54 53 43 41 41 40 37 34 35 38 43 41 43 42 45 45 40 38 39 40 42 43 42 42 39 37 36 30 25 24 32 33 28 34 36 39 39 39 36 39
52 53 53 53 54 52 46 41 40 37 33 36 38 42 43 42 42 40 41 45 41 42 45 45 45 43 42 42 41 42 35 31 26 19 26 17 33 38 40 37 37 38 38 39
52 53 53 53 53 52 44 40 41 37 31 36 40 41 39 40 40 39 40 41 41 45 43 37 33 33 35 37 39 41 39 33 25 22 20 29 32 35 35 33 30 36 35 36
51 51 52 52 53 55 43 39 39 39 36 31 33 39 42 35 33 36 39 44 44 44 39 35 26 24 29 28 32 39 39 36 30 26 22 22 32 37 40 39 27 34 36 34
52 53 52 52 53 54 44 39 40 39 31 31 33 36 37 38 35 33 36 38 39 41 34 31 28 26 34 27 27 29 30 29 26 25 22 28 36 38 40 27 29 35 35 35
54 53 52 52 53 53 44 39 41 38 30 31 35 36 34 36 36 33 36 37 38 36 32 31 29 29 31 29 31 30 29 25 25 26 23 23 37 37 33 33 34 35 35 35
53 52 52 53 53 52 47 38 43 43 34 33 38 38 39 38 36 36 35 35 35 36 33 32 30 30 29 29 25 32 29 32 29 30 29 34 34 34 35 36 34 33 33 35
52 51 51 53 54 53 47 39 39 38 32 32 33 33 40 43 40 41 35 34 38 36 36 34 32 32 31 27 28 27 30 34 31 32 31 30 33 34 35 34 33 35 36 36
51 51 52 53 53 52 48 40 39 38 34 29 29 41 36 42 42 42 41 39 39 38 35 32 30 31 32 28 31 30 32 34 31 28 29 31 32 33 34 35 35 35 36 36
51 51 52 52 53 51 44 40 40 40 38 28 28 35 39 39 40 40 41 40 36 33 30 29 30 29 30 28 29 27 32 31 29 29 33 32 31 35 36 33 33 35 33 33
50 51 52 52 51 50 44 39 42 42 40 31 26 34 35 37 38 38 37 37 34 32 30 28 29 32 30 25 25 31 32 33 34 31 33 34 35 36 35 32 34 34 34 33
50 51 51 51 50 41 39 38 40 45 40 32 26 24 33 36 35 34 34 35 32 32 29 29 28 29 29 27 25 32 33 34 34 34 34 31 33 31 32 33 34 36 34 33
50 51 51 49 49 46 39 39 46 43 36 32 20 25 27 35 30 29 33 31 31 30 29 29 28 29 28 24 30 32 33 33 33 33 33 33 33 32 32 32 32 30 30 30
51 51 50 43 40 37 37 47 45 39 37 24 20 20 20 32 32 31 31 31 27 31 29 28 30 27 22 31 32 32 33 34 33 33 33 32 30 31 31 30 30 29 29 30
51 45 40 34 36 46 46 40 36 33 31 28 23 20 24 29 32 31 27 30 26 16 28 29 28 26 33 32 34 35 35 35 34 31 28 29 24 30 29 29 30 30 29 29
40 36 33 37 44 38 35 30 28 28 24 27 24 23 25 31 24 29 31 29 30 23 22 24 22 24 29 32 33 34 34 34 33 32 33 32 31 29 29 29 30 30 30 29
41 39 39 38 35 30 28 19 27 27 22 26 26 26 28 28 32 28 29 22 28 16 32 28 22 26 31 32 32 32 32 32 31 32 32 32 32 31 29 28 28 29 30 30
40 36 32 32 25 25 22 23 23 23 25 26 26 23 28 29 31 28 25 18 17 30 26 18 23 28 30 31 32 32 28 27 30 32 31 32 30 31 29 28 28 28 27 29
32 30 26 25 22 24 26 27 22 25 25 26 26 25 26 29 26 26 18 27 29 16 9 16 19 27 29 30 31 32 29 29 26 25 27 27 26 26 27 27 27 27 27 30
26 29 22 17 26 27 25 18 23 26 30 27 24 24 27 22 22 26 24 23 10 16 17 20 21 27 28 29 30 29 28 27 26 26 23 21 22 22 24 26 27 26 27 27
27 23 22 27 23 22 19 24 27 26 28 26 26 19 18 19 21 16 12 14 13 18 18 23 24 27 28 28 30 29 28 26 27 27 28 28 26 25 24 25 24 24 25 25
26 23 29 24 24 21 23 27 28 29 28 20 20 17 18 21 14 15 18 15 20 20 21 22 26 28 28 28 29 29 29 27 26 26 26 24 26 19 16 20 26 25 27 25

GFSNW_sfc_temp_069.txt.gz
Temp
55 55 54 56 54 54 50 44 36 46 47 37 38 32 39 45 41 42 39 37 36 35 37 33 32 34 37 45 43 36 38 34 31 31 39 41 38 35 35 27 28 25 25 30
55 54 53 53 54 54 47 41 40 47 47 31 32 42 42 43 40 40 39 37 39 39 36 32 37 37 44 46 41 37 39 30 20 26 34 39 37 39 38 36 32 26 22 28
56 54 53 53 54 54 47 41 35 41 43 38 36 40 38 38 44 42 43 41 40 38 37 38 37 37 44 46 44 49 45 33 29 23 28 34 31 36 38 34 24 28 30 31
56 54 53 54 54 54 48 42 36 42 34 35 37 39 42 38 38 42 43 39 40 38 32 34 38 42 40 44 46 42 40 28 28 33 36 35 34 36 38 33 37 30 34 35
55 53 52 54 53 54 46 39 35 39 37 36 37 39 37 40 39 40 38 39 40 39 36 35 35 43 38 35 40 37 38 26 30 26 35 34 32 35 37 37 36 36 37 34
54 53 52 52 53 53 44 43 41 39 39 33 35 35 38 40 41 40 43 43 39 37 38 39 39 42 42 39 36 35 34 30 25 22 30 32 27 31 33 35 35 35 32 36
53 52 52 53 53 52 44 41 39 36 32 34 35 41 42 40 40 39 39 43 40 41 44 42 43 42 40 40 39 40 33 29 25 19 25 17 30 35 38 34 35 36 36 36
52 52 54 53 53 50 45 40 39 37 30 34 37 42 39 40 38 38 39 40 40 43 41 36 33 32 36 36 37 37 37 31 25 21 19 27 30 35 34 33 31 35 34 35
52 52 52 53 53 51 44 39 38 39 37 30 32 40 39 34 32 34 38 42 43 42 37 34 26 24 28 27 30 40 37 35 29 25 21 21 30 35 38 37 28 35 35 33
52 53 52 53 53 53 47 38 39 38 30 29 34 38 39 39 34 32 34 36 39 40 32 31 28 25 32 26 27 28 31 28 25 24 22 28 34 37 38 26 29 34 35 34
52 53 53 52 52 52 48 38 40 37 29 30 34 37 36 36 35 34 36 37 38 35 32 31 29 28 29 27 28 28 28 25 25 25 22 21 35 36 32 33 33 34 33 33
52 53 53 52 52 51 49 41 42 42 34 32 36 36 37 36 35 35 33 35 35 36 32 31 30 30 27 27 25 29 28 31 29 29 29 32 31 32 34 35 34 32 31 33
53 52 52 53 53 53 47 39 38 37 32 32 34 33 40 42 38 40 35 34 37 35 35 33 31 31 30 26 27 26 29 32 30 31 29 29 31 32 33 33 33 34 34 33
52 52 52 53 54 52 48 40 38 38 35 30 31 40 38 40 40 40 39 38 37 36 34 31 30 31 31 27 30 29 32 32 29 27 27 29 32 32 33 34 34 33 34 33
52 52 52 53 53 51 43 39 39 39 38 28 29 35 39 38 39 39 40 39 36 33 30 28 29 28 29 26 28 27 31 31 29 29 32 31 30 33 34 33 32 33 32 32
51 52 52 52 51 50 43 38 41 41 39 32 26 33 34 36 37 36 36 35 33 31 30 27 28 31 30 25 25 30 30 32 33 32 32 32 33 34 33 31 33 33 33 32
52 52 52 51 50 42 39 37 40 44 40 32 26 25 33 33 33 33 34 33 31 32 29 28 28 28 29 27 25 31 31 31 32 32 33 30 31 30 33 31 33 34 32 32
51 51 51 50 50 46 38 39 46 42 35 33 22 27 27 34 30 30 32 30 30 30 28 29 28 29 28 24 30 30 32 31 31 31 31 32 33 32 30 30 31 30 29 29
51 50 50 43 38 38 37 47 44 39 37 24 23 21 22 32 30 31 31 31 26 30 28 28 29 26 22 31 30 30 31 32 32 32 31 31 29 29 29 28 29 27 28 28
50 44 38 34 37 47 45 39 36 33 32 29 23 23 27 29 29 27 26 29 25 15 27 29 28 26 32 32 33 34 34 34 32 30 27 29 24 29 27 28 29 28 28 28
39 35 31 36 43 38 33 27 28 27 25 29 26 27 27 31 24 24 30 21 23 15 21 24 20 23 28 31 31 33 32 32 32 31 32 32 29 29 27 28 29 29 29 28
41 38 39 37 34 31 25 17 23 26 24 27 27 26 28 29 31 28 28 21 22 16 29 26 18 24 30 30 31 31 31 32 32 32 30 29 32 30 28 27 27 27 29 29
41 36 30 30 26 21 18 21 18 17 27 27 26 23 28 29 31 28 25 20 18 31 26 17 21 27 29 30 30 30 28 29 30 30 30 31 30 30 28 27 27 26 26 27
32 30 26 22 15 20 21 24 27 27 27 27 26 25 26 28 24 25 16 28 29 18 12 14 18 26 29 29 30 30 29 29 25 23 26 26 24 24 26 26 26 25 25 28
29 28 26 17 24 28 25 25 24 26 32 27 24 25 27 23 22 26 27 23 10 14 16 19 21 27 28 28 29 28 28 28 27 25 22 19 19 20 23 24 25 24 25 25
25 22 21 26 24 23 19 18 22 24 27 26 27 22 20 19 21 17 12 13 12 18 17 22 23 27 26 27 28 29 28 27 26 26 26 27 26 24 23 23 22 22 24 23
23 23 29 25 24 25 26 27 27 28 27 22 22 19 20 21 15 16 19 17 20 20 20 22 25 27 26 27 29 29 29 27 25 25 26 24 25 17 16 20 23 23 24 23

GFSNW_sfc_temp_075.txt.gz
Temp
55 55 55 56 54 52 51 43 34 46 48 36 38 32 35 42 38 39 37 37 36 34 33 31 31 32 36 42 43 35 38 35 29 32 39 40 38 36 35 31 29 28 29 31
55 55 55 55 54 53 46 38 39 47 46 32 33 38 38 39 38 37 37 36 38 37 34 31 35 38 43 43 40 36 39 30 22 29 35 38 37 38 36 34 32 27 27 31
55 55 55 54 53 54 47 39 32 38 42 41 36 35 34 34 40 39 40 38 39 37 34 35 34 35 42 43 42 47 43 31 29 25 30 35 34 36 37 35 28 31 31 32
55 55 55 53 53 54 46 40 36 39 32 36 36 37 36 34 34 39 40 38 38 36 30 32 33 37 39 42 43 39 38 28 27 31 34 36 36 36 36 32 34 32 34 34
55 55 55 53 54 54 45 38 36 39 38 37 35 38 33 35 35 36 35 36 37 37 34 33 32 37 35 33 38 35 36 26 30 26 34 35 34 35 35 37 36 35 35 36
55 55 54 53 53 52 44 42 42 40 38 35 35 37 35 37 38 39 40 40 37 36 36 38 37 38 37 36 35 34 33 29 24 23 29 32 28 31 34 35 35 36 34 37
55 54 53 53 54 51 45 41 40 39 33 36 36 40 39 37 37 36 37 39 38 37 41 40 40 39 38 38 36 36 32 29 25 21 27 19 31 34 36 36 35 36 35 35
55 54 53 54 54 52 44 41 41 39 34 35 38 40 38 35 36 35 36 37 37 41 38 35 32 31 33 34 34 34 35 30 24 23 20 28 30 33 33 32 33 35 34 35
54 53 53 54 54 53 45 41 40 41 35 33 30 38 38 32 29 33 36 40 41 40 35 33 25 23 26 27 31 35 35 33 30 26 22 22 30 34 38 37 30 35 36 35
54 53 54 54 54 53 46 40 37 36 30 32 33 36 35 34 32 31 32 35 38 38 32 30 27 23 28 25 25 27 28 27 25 25 23 28 33 36 38 28 31 35 36 35
53 53 53 53 53 52 47 39 37 36 29 32 36 35 34 35 34 33 35 36 38 34 31 30 28 27 27 25 25 25 28 25 24 25 23 21 33 35 32 35 33 35 35 35
52 54 54 53 54 53 49 41 41 40 33 32 36 36 36 33 34 34 32 35 34 35 31 30 29 28 25 25 24 27 27 30 28 29 29 33 33 33 34 35 34 34 34 35
52 53 54 54 54 53 47 37 36 37 33 32 37 35 39 39 36 37 36 33 36 34 34 31 30 31 30 25 26 24 28 31 30 31 31 31 32 32 33 34 34 35 35 35
52 54 54 54 54 53 49 39 36 37 36 33 33 40 35 40 37 38 37 37 36 35 33 31 30 31 30 27 29 28 31 31 29 29 31 30 32 33 34 34 34 34 34 34
51 54 53 53 53 51 43 38 37 38 38 30 32 37 40 38 37 37 38 38 35 32 30 28 29 28 28 24 26 25 30 31 30 30 34 33 33 33 34 33 33 33 32 31
50 52 53 53 51 49 42 38 39 39 38 32 32 33 35 39 39 35 35 34 31 30 31 27 28 29 30 25 24 32 30 31 33 32 30 32 31 32 33 32 33 33 32 33
51 52 52 51 50 41 39 37 39 43 38 32 25 25 33 36 37 32 33 32 30 31 28 28 27 27 28 26 25 33 30 30 29 30 32 29 31 31 33 32 32 34 32 31
52 51 51 51 50 45 38 38 45 41 34 32 22 23 27 34 30 31 30 30 31 30 28 28 28 28 26 24 30 28 30 30 30 30 30 31 31 31 30 31 30 30 30 29
51 51 51 43 38 35 36 47 44 37 36 25 23 22 20 32 29 30 31 30 27 29 27 27 28 26 22 31 30 28 29 31 32 31 30 29 29 29 29 28 29 27 28 28
51 43 38 32 34 45 45 38 36 32 30 29 22 24 22 29 28 28 27 28 25 16 26 28 26 25 31 31 31 32 32 32 31 29 27 28 24 29 27 29 29 27 26 26
39 33 30 35 43 36 32 27 28 28 27 28 26 25 26 30 24 25 29 19 20 14 20 23 20 22 26 29 30 31 31 31 30 30 32 32 29 29 28 28 28 28 28 27
39 37 38 35 32 26 23 16 24 25 26 25 26 27 29 28 30 28 27 20 20 15 22 24 16 23 29 28 28 28 30 30 30 30 31 29 31 28 28 27 26 26 27 28
40 33 28 29 24 19 17 17 18 18 26 26 28 26 28 29 29 26 23 17 18 24 20 15 20 26 28 27 28 27 25 28 31 30 30 30 28 29 27 26 26 25 23 25
31 25 25 24 16 20 23 21 21 24 24 27 26 27 28 28 25 27 15 27 25 15 11 15 18 24 27 27 28 28 27 27 23 23 25 25 24 22 23 25 25 25 24 27
30 26 22 20 25 19 22 18 20 23 29 28 25 26 29 23 21 27 25 21 13 14 17 19 19 26 27 26 27 27 27 26 27 25 23 19 18 18 22 24 24 24 24 24
22 17 17 22 18 16 24 23 24 24 29 25 26 22 19 19 21 17 15 15 14 19 17 21 21 26 26 26 27 27 27 26 27 26 26 26 24 23 21 21 21 22 22 22
23 18 25 22 19 21 23 24 25 27 26 21 21 18 22 20 12 16 18 17 20 19 18 19 24 26 25 25 27 28 28 26 25 24 24 21 23 14 13 16 22 21 22 21

GFSNW_sfc_temp_078.txt.gz
Temp
55 55 55 56 54 52 50 44 34 46 49 35 37 37 40 44 44 47 45 46 44 43 43 41 40 39 41 50 48 43 47 45 36 40 47 47 46 45 45 43 35 37 42 38
55 55 55 54 53 52 47 38 39 47 48 33 35 41 42 45 44 44 45 43 46 47 43 39 42 43 49 50 48 46 48 42 35 38 45 47 45 46 45 44 44 36 39 38
55 55 55 54 54 54 49 41 33 38 41 43 43 37 41 41 46 45 46 44 48 46 43 46 41 43 48 50 49 46 49 42 37 37 36 43 42 44 46 45 41 43 42 39
56 55 54 53 54 54 50 41 36 40 34 37 40 39 43 41 41 46 48 46 47 46 41 42 41 45 47 49 47 48 48 36 37 41 41 43 43 43 44 41 43 42 43 45
56 55 54 53 54 53 46 39 39 41 43 43 36 41 42 42 41 43 44 44 45 48 43 45 42 45 46 43 49 46 47 37 38 36 43 44 40 43 44 44 44 44 46 43
55 55 54 54 54 52 45 44 46 47 41 41 38 40 44 43 46 46 46 48 47 44 44 49 49 51 48 47 46 43 43 40 37 33 39 41 39 39 42 43 44 45 44 45
55 55 54 54 54 53 50 46 49 47 37 43 38 42 45 43 43 44 44 48 48 46 51 51 53 52 50 50 47 47 43 40 38 35 38 31 40 44 42 42 43 44 44 44
55 54 54 54 54 53 49 48 49 48 38 43 41 43 43 45 45 42 42 44 47 52 50 46 42 44 44 44 45 46 47 44 37 37 37 38 38 41 42 41 42 44 44 44
54 53 54 54 54 52 50 45 46 50 46 37 34 41 45 45 43 43 43 49 51 50 47 44 35 35 36 37 40 46 46 47 45 39 33 33 41 44 46 46 40 45 45 45
54 54 54 54 54 53 51 45 44 49 40 37 37 40 41 44 44 43 44 46 48 49 46 40 38 36 38 36 35 36 39 40 37 38 36 40 44 45 46 37 40 45 46 47
53 54 54 54 53 53 50 45 45 47 40 38 39 39 40 45 46 46 45 46 48 47 42 41 39 40 39 38 38 38 38 38 38 37 34 32 45 44 41 45 43 46 45 46
53 54 54 54 53 53 50 46 47 47 44 40 43 42 43 40 41 45 44 45 44 47 45 43 42 40 39 38 38 40 37 42 42 41 43 44 45 45 45 45 46 44 45 45
53 54 54 54 53 52 51 47 45 47 43 42 43 41 45 45 43 44 46 45 45 44 45 46 44 40 43 40 40 39 41 41 41 40 43 43 44 44 44 45 45 45 45 44
54 54 54 54 53 52 51 47 45 48 46 42 39 46 43 47 45 44 45 45 45 45 47 46 44 43 40 41 40 40 43 41 41 41 44 42 44 44 45 43 43 42 42 42
53 54 54 53 53 50 48 46 45 46 47 40 40 42 45 46 46 45 46 46 45 46 45 44 42 41 40 38 38 39 42 44 42 45 45 45 43 43 44 42 41 42 41 40
51 52 53 52 51 50 50 47 47 46 47 42 37 42 41 43 44 43 42 42 42 44 44 40 39 37 39 38 39 46 44 43 44 45 42 41 40 40 41 41 41 41 41 40
52 52 52 51 50 48 46 44 46 47 47 42 35 36 41 40 42 41 43 42 41 43 39 39 39 38 38 38 37 44 42 42 41 41 41 39 39 40 41 41 41 40 40 40
52 52 52 51 50 47 45 46 47 46 43 41 31 32 37 41 39 40 40 42 42 38 38 37 38 37 36 34 42 40 39 39 39 39 40 39 39 39 39 39 39 38 38 38
51 51 50 48 45 44 43 47 45 43 44 36 34 33 33 39 36 38 40 40 38 37 37 37 36 36 32 41 41 39 38 40 40 38 38 38 38 38 38 38 38 37 37 37
50 48 44 39 41 45 46 43 41 39 37 37 35 33 32 37 36 35 37 35 35 32 35 36 33 35 40 40 41 41 40 40 39 35 33 35 34 37 38 37 37 36 36 35
45 40 38 40 43 43 39 35 35 36 34 34 32 33 32 37 34 35 36 32 31 29 31 32 32 32 37 37 38 39 41 41 40 41 40 40 39 38 37 37 36 36 36 35
44 41 41 41 37 34 32 29 30 30 33 30 31 32 35 34 37 35 33 31 29 27 32 29 28 36 37 36 36 37 39 39 38 39 39 38 38 37 36 35 35 35 35 34
43 38 34 33 32 26 25 24 26 25 30 30 30 30 33 32 35 32 31 27 28 32 26 27 33 36 36 36 36 34 35 36 37 38 38 38 36 35 34 34 34 33 33 34
36 31 25 28 25 26 29 31 32 32 32 31 33 30 32 33 32 31 27 30 31 21 20 28 35 35 37 36 36 35 35 35 32 34 34 33 31 31 31 31 32 32 32 33
33 31 25 26 31 27 26 26 29 30 34 32 31 30 33 30 27 31 27 22 20 24 29 34 34 34 35 34 34 36 36 36 35 34 31 29 28 28 30 32 31 31 31 30
30 25 25 27 25 26 26 26 27 30 33 32 33 28 26 27 28 23 22 24 25 32 29 33 34 33 33 34 34 35 35 35 35 35 33 33 32 31 29 29 29 29 28 27
30 27 29 30 27 27 29 29 31 33 34 31 29 24 27 25 23 23 27 26 33 32 30 31 32 33 32 33 33 33 33 34 33 32 32 30 29 25 25 26 29 27 27 27

GFSNW_sfc_temp_084.txt.gz
Temp
56 56 56 56 56 56 55 46 34 47 51 36 36 33 39 48 48 52 49 49 48 44 45 41 41 39 42 52 50 43 45 41 33 40 48 50 45 43 43 31 32 34 32 29
56 56 56 56 56 56 51 38 37 47 47 33 34 40 46 49 48 48 49 47 49 49 45 37 44 44 51 52 49 43 46 38 29 31 39 46 44 47 47 45 39 32 28 28
56 56 55 55 56 56 53 43 33 40 42 43 38 42 44 43 50 49 52 49 51 49 46 48 45 43 49 50 50 48 46 40 33 27 31 40 37 43 45 40 29 33 33 34
56 56 55 55 55 56 53 45 39 42 35 42 44 46 47 44 44 50 52 48 50 48 44 44 43 46 47 50 50 47 46 33 33 40 43 43 42 42 43 38 41 32 37 38
56 55 55 55 55 55 49 44 42 44 43 44 44 45 45 45 46 47 47 46 49 49 44 45 42 46 45 42 47 44 47 32 34 32 43 42 37 41 43 42 43 43 43 40
55 55 54 54 55 54 50 50 51 49 45 44 45 44 46 46 48 48 50 49 46 42 45 50 48 50 49 45 44 43 42 35 30 27 38 38 30 37 39 41 43 41 37 40
55 55 55 55 55 55 54 51 51 47 41 44 44 48 48 46 47 44 48 50 46 46 53 52 50 49 50 49 47 48 42 37 32 26 30 22 35 42 43 41 44 44 44 45
55 55 55 55 55 56 52 52 48 48 41 46 48 48 47 48 47 45 45 47 49 51 47 43 39 39 40 43 44 44 45 40 29 25 26 34 37 40 39 37 38 44 42 43
54 54 54 54 55 55 52 47 48 48 43 37 42 46 49 43 42 42 45 50 51 48 45 42 31 28 34 33 38 44 47 44 36 33 28 25 35 41 45 43 31 43 44 43
55 54 55 54 54 54 52 46 48 46 40 40 42 41 41 46 45 41 43 45 46 47 41 36 32 30 36 31 31 31 35 36 30 31 28 34 41 43 44 29 32 42 44 44
55 55 54 54 54 53 51 46 49 46 40 38 44 45 42 44 44 41 44 43 44 43 37 36 34 33 35 32 34 33 33 30 30 31 26 24 43 40 35 39 40 43 42 42
54 54 54 54 54 54 54 46 51 51 43 39 46 45 45 43 42 38 45 43 44 42 38 38 37 34 35 35 31 36 31 37 33 35 34 42 43 41 42 43 43 40 40 42
54 54 55 54 54 55 53 47 47 48 43 40 41 42 45 48 46 46 39 43 44 45 42 40 39 35 37 31 34 33 38 40 35 37 39 40 43 43 43 41 40 42 43 42
54 55 55 54 53 54 54 46 46 45 47 39 37 49 43 48 48 45 45 43 46 44 43 40 38 35 39 35 36 35 38 39 38 37 42 39 41 41 43 43 42 41 42 41
53 54 54 53 52 53 51 47 47 47 43 37 37 43 45 48 47 46 46 45 44 41 38 36 35 36 36 36 34 32 39 38 34 35 41 40 38 39 41 41 40 40 39 38
52 53 52 52 52 53 50 43 46 47 45 39 33 41 42 43 44 44 42 42 42 40 38 36 35 37 34 30 30 43 43 44 42 40 40 39 40 39 39 39 40 40 39 39
52 52 52 52 52 48 44 41 43 47 44 40 34 33 39 41 41 42 41 42 39 38 36 35 35 34 34 32 29 42 43 43 40 40 40 36 38 37 39 39 39 41 38 37
52 52 52 51 51 48 43 44 47 46 42 40 32 33 33 39 37 36 39 37 38 36 35 34 32 32 31 28 37 39 41 41 39 40 38 38 39 39 37 38 37 36 35 35
52 52 51 48 46 43 42 48 47 43 40 32 32 30 28 38 35 37 36 37 31 35 31 32 33 30 27 34 38 39 39 38 38 37 38 37 36 36 35 35 34 32 33 34
51 48 44 38 42 47 47 42 39 36 36 35 30 33 28 33 34 34 33 34 31 24 31 32 28 29 39 40 41 42 40 40 38 32 29 31 30 33 34 34 35 34 33 33
45 41 38 42 47 41 39 32 31 33 30 34 31 30 28 34 30 31 35 29 28 21 26 26 26 27 34 40 39 40 40 39 38 38 37 36 35 34 34 34 34 33 31 30
44 43 44 42 38 33 28 26 29 28 28 30 29 30 32 32 34 32 32 27 26 20 30 25 23 30 34 36 36 37 38 38 37 38 36 37 36 34 33 33 31 30 30 31
44 38 33 33 31 23 23 20 24 24 29 29 28 26 30 30 32 30 29 22 23 29 19 23 29 32 34 34 34 35 35 35 36 36 36 35 33 32 30 30 30 28 29 30
35 30 23 27 22 26 29 28 30 29 30 29 30 28 29 31 27 30 21 29 28 16 14 23 28 31 33 35 35 34 32 32 30 30 32 30 29 27 27 28 28 28 27 28
31 29 23 26 31 27 26 26 27 28 32 31 28 27 30 26 25 28 24 18 12 20 22 27 28 30 33 33 33 34 33 32 31 30 27 23 24 24 24 26 27 26 26 26
31 28 24 29 25 24 24 24 26 30 32 29 29 25 22 23 24 20 18 18 19 28 29 28 27 30 31 32 33 34 34 33 33 32 31 29 27 26 24 26 25 24 24 22
32 28 31 29 26 28 27 30 31 33 29 26 26 20 23 23 18 19 25 23 28 30 29 27 31 31 30 32 33 33 34 34 33 31 29 26 26 20 18 18 23 23 23 22

GFSNW_sfc_temp_087.txt.gz
Temp
56 56 56 57 57 57 50 39 33 47 48 36 36 33 36 41 46 49 46 45 43 39 38 35 37 35 40 48 47 41 44 38 28 37 46 47 42 39 38 29 30 29 28 29
56 56 56 56 57 56 43 38 38 45 44 27 31 38 42 45 45 45 45 43 46 45 40 36 39 40 49 49 46 41 42 35 26 31 37 43 39 43 41 41 34 28 24 27
56 56 55 55 56 57 47 39 32 38 42 39 36 35 39 40 48 47 49 46 47 44 41 42 40 42 47 48 47 49 45 36 31 24 31 37 35 39 41 36 26 28 27 30
56 56 55 55 55 56 46 40 32 37 29 34 35 40 41 40 40 46 48 45 47 46 38 39 38 42 43 46 49 44 42 31 30 37 40 39 37 37 38 35 35 28 32 32
56 56 55 55 55 55 42 36 35 37 35 39 37 41 39 40 42 42 41 40 43 42 38 39 37 41 40 38 44 41 42 30 31 29 39 39 34 37 38 39 39 37 37 35
56 55 55 55 55 53 41 42 43 40 40 37 35 38 41 42 44 44 45 43 41 40 41 42 42 44 44 41 39 39 39 31 26 25 34 35 29 34 36 37 39 37 33 37
55 55 55 55 55 53 44 42 41 38 34 38 38 42 43 41 42 40 43 44 41 44 48 47 44 43 43 44 42 42 38 34 27 23 28 20 34 39 40 38 41 40 40 41
55 55 55 55 55 55 44 42 40 38 33 38 41 43 42 41 42 41 41 44 44 46 43 39 36 35 37 40 40 41 41 36 26 24 22 30 33 38 37 35 34 40 39 40
54 55 55 54 54 55 44 40 40 39 36 33 37 38 41 36 35 38 42 47 47 44 40 37 28 26 30 31 36 43 43 40 32 28 26 24 34 38 42 40 29 39 41 39
55 55 54 54 54 54 45 41 42 40 33 33 36 35 36 40 38 36 39 42 43 43 35 32 29 26 34 28 28 29 31 31 28 27 25 31 38 41 42 27 32 40 41 41
55 54 54 54 54 54 46 42 43 41 32 33 39 40 35 39 38 36 40 40 41 38 33 32 30 29 32 29 33 30 31 26 27 28 24 23 41 38 34 38 38 41 40 39
54 54 54 54 55 55 51 41 45 45 38 36 42 41 41 39 38 36 39 40 39 38 34 33 32 31 31 31 27 33 29 34 32 33 33 40 40 40 39 41 40 38 39 39
53 54 54 54 55 55 50 40 40 42 36 36 37 38 42 44 43 43 37 38 40 40 39 36 35 32 32 28 29 30 33 37 34 35 36 38 41 39 41 40 39 40 40 40
54 55 54 54 53 54 50 40 40 40 40 35 36 45 39 44 44 42 41 40 41 41 38 35 33 32 36 31 34 32 36 36 34 34 38 36 38 39 41 40 40 39 39 39
53 53 53 53 53 53 46 41 41 42 40 34 34 40 42 44 43 43 42 41 39 37 35 32 33 32 33 31 31 28 35 35 33 33 39 38 37 39 40 39 38 39 37 36
52 52 52 52 53 53 45 40 42 42 40 34 30 38 37 40 41 41 40 40 38 36 35 33 32 35 32 27 26 37 38 39 41 40 37 37 37 38 37 38 37 38 37 37
52 52 52 52 52 43 42 40 43 46 40 36 32 31 36 39 38 38 38 39 36 36 33 32 32 32 32 28 26 38 40 39 38 38 39 35 36 35 36 37 37 39 36 36
52 52 52 51 51 48 42 40 46 44 39 36 30 28 31 37 33 33 36 34 34 34 33 31 31 31 29 26 33 37 37 37 37 38 37 38 37 36 35 35 35 33 33 33
52 52 51 45 41 38 39 48 46 39 38 28 28 20 21 35 32 33 34 33 28 32 30 30 31 28 25 34 35 36 37 38 37 36 36 35 35 34 34 34 33 32 32 32
51 45 40 34 38 47 45 40 36 32 32 30 26 27 26 30 30 31 30 31 28 21 30 30 28 28 35 39 38 39 38 38 36 31 29 31 30 32 32 32 33 33 32 31
43 37 34 38 46 39 35 28 28 29 27 30 28 27 25 32 27 29 32 26 23 17 25 26 25 28 31 37 38 39 38 37 36 35 35 35 34 32 32 32 32 33 32 30
42 40 40 38 34 29 26 20 26 26 26 28 26 28 30 30 31 29 30 24 23 17 26 22 21 30 33 33 32 33 35 35 35 36 35 35 34 34 32 32 31 31 30 31
42 35 29 28 26 20 19 18 18 18 25 25 25 24 29 29 31 28 26 21 22 27 16 20 24 30 32 32 33 32 32 33 34 34 34 33 32 32 32 30 30 29 29 29
32 26 21 23 17 21 23 22 23 27 26 27 28 25 26 29 26 27 19 27 26 13 9 19 24 30 32 31 32 32 31 31 28 30 32 31 29 28 28 30 29 28 28 28
28 26 20 21 27 21 19 18 22 24 29 29 27 25 28 23 23 26 23 17 11 17 19 23 24 30 31 31 31 31 30 30 30 29 28 29 28 26 26 27 28 27 27 26
27 26 21 26 22 19 19 16 20 24 29 26 27 21 18 21 22 17 16 14 15 21 22 27 25 29 30 31 31 32 32 31 31 30 31 30 29 28 26 26 26 25 25 24
31 28 29 25 21 24 25 26 27 29 28 22 22 17 22 22 14 16 21 19 23 26 26 23 28 30 29 30 32 32 32 32 31 30 30 29 28 23 21 22 24 24 24 23

GFSNW_sfc_temp_090.txt.gz
Temp
56 56 56 57 57 56 49 41 33 44 45 33 35 33 36 41 41 45 42 42 41 37 37 34 35 34 37 46 44 38 40 36 28 36 44 45 42 38 37 30 29 27 26 28
56 56 56 56 57 54 42 36 36 44 44 26 29 38 39 41 43 43 44 42 44 43 39 34 37 39 47 47 44 39 40 33 26 31 37 41 37 40 39 37 32 25 23 27
56 56 55 55 56 56 44 37 29 35 39 38 33 33 38 39 46 45 46 44 45 42 39 40 37 39 45 46 45 49 45 34 30 23 30 35 33 36 38 34 24 27 26 27
56 56 55 56 56 56 45 36 30 35 30 34 34 34 40 38 38 44 45 43 42 42 36 37 36 40 41 45 48 43 41 31 29 34 38 36 34 34 36 32 31 28 30 31
56 56 55 55 56 54 41 36 34 35 34 36 34 38 38 39 40 40 40 39 40 40 36 35 34 39 38 36 41 38 40 29 31 28 37 36 33 35 36 36 36 34 34 32
56 55 55 55 55 52 40 40 41 39 38 35 34 36 38 40 42 42 42 41 39 38 39 40 41 40 42 39 37 38 37 30 25 24 32 34 28 32 33 34 36 35 31 36
55 55 55 55 55 51 43 40 40 37 34 36 37 40 41 40 40 39 41 42 39 42 45 44 42 41 41 41 39 40 36 32 25 22 28 19 33 37 38 36 37 37 37 37
55 55 55 55 55 53 42 40 40 37 32 34 39 40 39 39 40 39 40 42 44 44 42 38 35 34 37 38 38 38 39 33 25 23 21 30 33 36 35 33 34 37 38 37
55 54 55 55 55 54 42 39 39 39 36 34 34 36 38 35 33 37 41 45 45 43 39 35 27 26 29 31 35 39 39 36 31 26 25 24 33 36 40 38 29 40 40 38
54 54 54 55 55 54 44 40 41 39 34 33 34 34 35 38 35 34 36 40 41 41 34 31 28 25 32 28 27 29 30 29 27 26 24 30 37 39 40 26 32 38 39 39
54 54 54 55 54 54 46 41 42 40 33 33 38 38 34 38 37 35 39 39 40 37 33 31 29 28 30 27 30 28 30 25 26 26 23 23 39 37 34 38 36 40 39 39
53 54 54 54 55 54 49 41 43 43 38 37 40 40 41 40 38 36 37 37 37 36 33 31 30 30 28 28 27 31 28 33 31 32 32 39 39 38 38 39 39 38 38 38
53 54 54 54 55 54 49 40 39 40 36 36 36 37 41 43 41 42 37 37 38 38 38 34 33 30 31 27 27 28 32 34 32 34 34 37 39 37 39 40 39 38 38 39
54 54 54 54 54 53 49 40 39 40 39 34 36 43 38 43 42 40 40 39 40 39 36 34 32 31 34 30 32 30 35 35 33 32 36 35 39 38 39 38 38 38 38 37
53 53 53 53 53 51 43 39 39 40 42 35 34 38 40 42 42 41 40 39 37 35 34 31 32 31 31 29 28 26 33 34 33 33 39 38 37 38 39 37 36 37 36 34
52 53 52 52 53 52 43 39 41 41 41 34 30 37 36 38 39 39 39 38 37 35 34 32 32 33 32 26 25 35 35 36 39 39 36 38 36 38 38 38 37 37 36 36
51 52 52 51 52 42 40 40 43 44 40 36 30 29 35 36 36 36 36 37 35 35 32 31 30 31 32 27 25 37 38 39 37 37 37 33 35 36 37 37 37 39 35 35
51 52 52 51 51 47 40 40 46 42 37 35 25 26 30 34 32 32 33 33 32 32 32 30 30 30 28 26 33 33 35 35 35 36 34 37 35 34 34 34 34 33 32 32
51 51 51 43 40 37 38 48 45 38 37 27 25 23 22 33 31 31 33 31 28 31 29 29 31 29 26 34 35 35 35 36 36 34 34 33 33 33 32 32 32 31 31 31
51 44 39 33 37 47 45 39 35 32 31 30 26 26 25 30 29 30 29 29 27 21 29 30 27 27 35 37 36 38 38 37 34 31 28 30 29 31 31 32 32 32 31 31
40 36 34 38 45 38 33 28 27 28 27 29 27 26 26 31 27 28 31 22 22 17 24 25 24 25 31 35 34 35 38 36 36 34 34 34 34 32 31 31 32 32 32 31
41 39 39 37 33 28 25 19 25 25 25 27 26 28 29 29 31 29 28 24 21 18 24 21 19 26 32 32 33 34 33 34 35 36 35 34 34 33 32 32 31 32 32 31
39 34 28 29 25 20 18 17 17 15 24 24 24 23 28 29 30 27 26 22 22 26 15 19 23 28 31 31 31 31 31 32 33 33 33 33 32 32 32 31 31 31 29 29
30 26 22 24 16 21 24 23 21 26 25 25 25 24 26 28 26 26 18 27 26 12 11 18 21 28 31 30 31 31 32 32 29 28 30 30 29 28 30 31 30 30 29 28
29 25 21 20 26 20 20 19 21 23 28 27 26 24 27 23 23 26 22 16 11 17 20 22 24 30 29 29 30 30 30 30 30 30 29 27 27 27 26 28 29 28 27 27
26 26 21 26 22 15 17 15 18 24 28 25 27 20 18 20 22 18 16 15 15 22 20 26 24 30 29 28 30 30 30 29 29 29 30 29 28 28 27 27 26 26 26 24
32 28 29 29 27 25 24 26 27 29 28 23 22 17 22 23 15 18 22 18 23 24 24 24 27 29 29 29 30 30 30 30 29 28 28 27 27 23 22 24 25 25 24 23

GFSNW_sfc_temp_093.txt.gz
Temp
56 56 56 57 57 56 48 39 30 45 44 33 37 34 37 42 42 44 41 40 40 36 35 35 36 33 37 44 42 36 39 35 28 36 41 42 40 36 35 28 28 27 28 29
56 56 56 56 57 53 41 34 34 43 42 27 32 37 38 40 41 41 42 41 43 41 37 32 36 38 45 45 42 37 39 32 24 31 37 40 36 37 37 35 31 26 24 28
56 56 56 56 56 56 43 35 30 36 37 35 32 32 36 37 44 43 44 43 44 40 36 38 35 37 44 45 44 49 44 32 29 22 30 34 33 35 36 32 23 26 26 26
56 56 56 56 56 56 44 35 30 33 30 34 34 33 38 37 37 42 43 40 39 39 35 36 34 38 40 43 46 40 39 31 27 32 36 35 33 33 34 30 29 26 29 28
56 55 55 55 55 54 41 36 35 35 33 35 35 37 36 37 39 39 39 38 39 38 34 33 32 35 35 34 39 36 38 29 30 27 35 34 33 34 34 34 33 34 32 30
56 55 55 55 54 51 39 38 39 39 37 34 33 35 37 39 40 40 41 39 38 38 38 39 40 40 39 38 35 36 35 30 25 24 30 32 28 31 32 33 34 33 30 33
55 55 55 55 54 51 42 39 38 37 33 34 34 39 40 39 39 37 41 41 39 41 44 41 38 37 40 40 36 38 34 30 25 22 28 19 32 35 37 35 37 36 36 35
55 55 55 55 54 52 42 38 39 37 32 33 37 37 38 38 38 38 39 41 42 42 41 37 34 33 35 35 36 35 37 31 24 22 21 30 30 35 34 33 35 38 37 35
54 54 54 55 54 52 41 38 39 38 36 34 35 34 35 33 32 37 39 43 44 42 37 34 28 26 27 31 34 37 36 34 30 25 24 23 32 35 38 37 29 38 39 37
54 54 54 54 54 53 44 39 40 39 35 33 33 35 35 36 33 33 35 38 39 39 33 31 28 25 29 27 27 28 29 28 26 26 23 29 35 38 39 27 32 38 39 38
54 54 54 54 54 53 45 39 40 41 34 34 38 39 34 36 35 34 38 37 38 35 32 31 28 27 28 25 29 27 29 25 25 25 22 22 37 36 33 38 34 37 36 37
53 54 54 54 54 54 49 39 42 42 39 38 40 40 40 40 38 37 36 37 36 35 32 30 29 30 26 27 26 29 28 32 30 31 31 38 38 37 38 38 39 38 37 38
53 54 54 54 54 53 48 39 38 39 36 35 35 36 41 41 40 41 37 36 38 37 36 33 31 29 30 26 26 25 31 33 31 33 33 35 38 37 38 38 38 38 38 38
54 54 54 54 53 53 48 40 37 39 38 34 36 41 37 41 41 40 39 39 38 37 35 33 31 31 34 29 31 29 34 34 32 31 35 34 38 38 39 39 38 37 37 36
52 53 53 53 53 51 43 38 38 39 41 34 34 37 39 40 40 39 38 38 36 34 32 30 31 31 30 28 27 25 32 33 33 32 38 37 37 36 39 37 37 37 37 35
51 52 53 52 52 51 42 38 40 40 39 33 30 36 34 37 38 38 37 37 35 34 32 31 31 32 32 26 25 34 33 35 38 38 34 36 34 35 35 37 36 36 36 35
51 51 52 51 52 42 40 39 41 44 39 34 30 28 34 35 35 35 35 35 33 33 32 31 30 31 32 27 26 37 37 37 36 34 36 32 34 36 37 36 36 39 35 34
51 52 52 51 51 46 39 39 46 41 37 34 24 25 30 34 31 31 32 31 31 31 31 30 29 30 28 26 31 33 36 36 36 36 36 36 35 34 33 33 33 32 32 32
51 51 51 43 39 36 37 47 44 37 37 27 23 22 22 32 30 31 31 31 27 31 29 28 30 27 24 33 33 34 35 35 35 32 32 32 33 32 32 32 32 31 31 31
50 44 39 33 36 46 45 38 35 30 31 29 25 25 25 29 28 29 28 29 27 20 29 29 26 26 34 36 36 35 36 36 33 31 28 30 30 31 31 32 32 32 31 31
43 36 34 37 44 37 32 28 27 28 26 29 26 25 25 30 26 28 30 21 22 17 24 25 23 24 29 34 33 33 32 33 35 35 35 35 34 33 31 31 32 32 32 31
41 39 38 36 33 27 24 20 25 24 26 26 26 27 29 28 30 29 28 23 21 18 24 21 19 26 32 32 32 31 31 31 33 35 35 34 35 34 33 32 31 32 32 32
41 34 29 29 26 19 17 19 17 14 23 24 25 24 28 28 30 27 25 21 22 25 15 19 23 29 31 30 29 30 28 32 33 33 32 33 31 32 31 30 29 29 28 29
35 30 23 24 16 21 23 23 21 25 24 26 25 24 27 27 26 26 18 27 25 13 14 20 23 29 32 30 30 30 30 30 28 29 30 29 28 27 28 30 29 28 27 27
33 29 24 21 26 21 19 17 21 23 27 26 25 25 27 22 22 26 22 16 12 18 21 23 25 31 30 29 29 29 29 29 28 26 25 24 25 25 24 26 27 27 27 26
30 23 20 24 22 25 24 16 19 24 27 24 26 21 19 20 22 17 18 16 16 23 21 25 25 31 30 29 30 30 30 29 29 28 28 28 26 26 25 25 24 24 24 23
33 28 27 28 28 30 28 27 27 28 28 22 21 17 23 23 16 18 22 20 24 25 23 22 27 31 31 29 29 30 30 29 28 28 27 26 26 22 19 20 23 22 22 21

GFSNW_sfc_temp_096.txt.gz
Temp
56 56 56 57 57 55 47 36 32 45 44 34 35 33 37 43 41 42 40 39 38 34 34 34 35 31 36 44 42 36 39 34 27 35 40 42 38 35 33 26 27 27 27 28
56 56 56 56 57 53 40 34 33 43 42 28 30 35 38 39 41 40 40 39 41 39 36 32 34 36 44 44 41 37 39 31 22 30 35 38 35 36 35 33 29 26 22 27
56 56 56 56 56 54 41 35 31 37 37 34 31 32 35 36 42 41 42 40 42 39 36 36 33 35 43 43 42 49 44 32 30 23 30 32 32 33 33 31 22 25 25 27
56 56 56 56 56 54 43 35 31 33 29 34 33 33 36 36 36 41 42 39 37 36 33 33 32 36 39 41 45 39 38 30 27 32 33 34 34 33 32 28 28 25 29 28
56 55 55 55 55 53 40 36 35 34 32 33 34 36 35 36 38 38 38 37 39 37 33 32 31 34 33 33 38 35 36 29 30 25 34 32 32 34 32 32 32 30 30 31
55 55 54 55 55 51 39 37 38 38 36 33 33 33 35 37 38 39 39 38 36 35 36 39 39 39 37 36 33 35 34 29 25 24 29 31 28 31 32 33 34 34 30 33
55 55 54 55 54 51 43 39 38 37 33 33 34 36 37 37 37 35 39 39 36 40 41 39 36 35 37 36 37 36 32 29 24 21 26 19 32 33 35 34 36 36 34 36
55 55 54 54 55 53 41 38 40 37 32 32 35 36 35 36 37 36 37 40 41 41 39 36 34 32 33 33 34 34 35 30 24 20 19 29 29 32 33 32 34 37 36 35
54 54 54 54 54 54 40 38 39 39 36 34 36 34 33 32 30 35 38 41 42 41 36 33 27 26 26 29 32 33 34 32 29 25 23 23 31 33 37 36 29 36 37 36
54 54 54 54 54 53 43 39 38 40 35 34 35 35 36 36 32 32 33 37 38 38 32 31 28 24 28 26 25 26 28 27 26 25 23 29 33 37 37 26 33 36 37 37
53 54 54 54 54 53 44 39 39 38 35 34 36 39 35 34 34 34 37 36 37 34 31 30 28 26 27 24 27 26 28 24 24 24 21 22 37 35 33 38 33 36 36 36
53 53 54 54 54 53 47 39 41 41 38 37 38 39 38 39 39 38 34 36 36 35 31 29 28 29 24 25 26 27 27 32 29 30 31 38 36 38 37 37 38 37 36 38
53 54 54 54 54 53 47 38 37 39 35 36 35 37 38 40 39 40 36 35 37 35 36 32 30 29 30 25 24 24 30 31 31 32 32 34 37 37 38 38 38 38 37 38
52 54 54 53 53 51 47 39 37 39 37 33 35 40 36 39 39 38 38 38 37 36 34 32 30 30 33 28 30 28 33 32 30 29 34 33 37 36 38 38 38 37 36 37
52 52 53 53 53 52 43 38 37 38 39 33 34 36 37 38 38 38 37 37 35 33 31 28 30 31 30 28 26 25 32 33 32 33 38 37 37 37 37 38 37 38 36 34
51 51 52 52 52 50 42 38 39 39 39 32 30 35 32 34 36 36 34 35 34 33 32 30 31 32 32 26 24 33 32 34 37 37 33 35 36 36 34 36 36 36 37 37
51 51 51 51 51 41 40 38 41 43 38 33 30 28 33 34 34 33 33 33 32 32 31 29 29 30 31 27 25 36 36 36 35 35 34 34 35 37 36 36 37 39 36 35
51 51 51 51 50 46 39 39 46 40 36 33 22 25 29 35 31 30 31 31 30 31 30 29 28 29 27 26 32 32 34 34 34 35 34 34 32 33 33 32 33 32 32 32
50 50 51 43 39 35 37 47 43 36 36 27 23 22 23 32 30 30 30 30 26 30 28 28 29 27 24 33 33 34 35 35 35 31 32 32 33 33 31 31 31 31 31 30
50 44 38 34 37 45 44 37 34 30 30 28 24 25 23 29 28 28 28 28 27 20 28 29 26 26 34 36 35 35 35 34 32 30 28 30 30 31 30 31 31 32 31 30
43 36 34 37 43 37 33 28 27 28 26 29 26 25 24 30 26 28 31 22 23 17 23 24 22 23 29 34 33 34 33 31 32 34 34 35 34 31 31 30 31 31 31 30
43 40 39 36 33 28 25 21 25 24 25 25 24 27 28 28 29 28 27 23 21 17 23 21 21 26 32 33 32 33 31 30 30 31 34 34 34 33 31 30 30 30 30 30
42 37 33 31 27 20 21 20 20 16 24 23 25 23 27 27 29 27 24 19 23 24 15 19 23 29 31 31 30 30 30 29 30 32 32 31 30 30 30 29 29 29 28 27
34 31 27 26 18 23 26 26 27 28 26 25 25 23 25 27 25 26 18 26 24 12 17 20 23 28 32 31 30 29 29 29 26 27 30 29 27 26 27 29 28 27 26 27
32 30 25 23 28 21 22 21 26 26 28 28 26 24 26 22 22 25 22 17 13 17 20 25 25 31 31 30 30 29 29 29 28 27 23 21 24 24 23 25 27 27 26 25
31 28 21 25 21 20 20 22 24 27 29 26 27 22 19 21 21 17 18 17 17 22 21 26 25 31 31 30 30 30 30 29 29 29 29 28 26 25 24 24 24 25 25 23
32 30 28 26 24 28 28 29 29 31 30 26 24 20 24 22 13 16 24 22 24 25 24 21 27 33 33 31 31 31 30 29 28 28 27 25 26 22 20 21 23 22 23 21

GFSNW_sfc_temp_099.txt.gz
Temp
56 56 57 57 57 55 46 37 33 46 44 35 32 33 37 43 40 41 39 39 37 33 33 32 33 33 37 44 43 36 39 36 28 34 41 43 40 37 35 28 28 29 29 32
56 56 56 56 57 54 40 34 34 44 44 29 25 34 37 38 39 38 40 39 41 38 35 32 34 37 44 43 40 37 38 32 24 30 35 39 36 37 36 34 31 27 26 31
56 56 55 55 56 55 41 36 32 37 36 33 32 32 34 36 42 40 40 39 41 37 35 36 33 36 42 42 42 48 43 32 30 24 31 34 33 34 34 32 25 29 28 32
56 55 55 55 55 55 43 35 31 33 30 34 33 33 35 35 35 40 41 38 36 35 32 32 32 35 38 41 45 40 38 30 28 32 33 34 34 34 34 29 31 29 32 31
56 55 55 55 54 54 40 37 35 32 31 32 32 36 34 34 36 37 37 36 37 36 33 33 31 33 33 33 37 35 36 29 31 26 34 34 32 34 33 34 34 33 33 33
56 55 54 54 54 51 39 36 37 38 36 32 31 31 33 36 36 38 38 36 35 35 36 38 39 39 37 35 33 34 33 30 25 24 30 31 28 31 34 35 36 36 32 37
55 55 54 54 54 49 40 38 38 37 33 33 33 35 36 36 36 35 38 38 35 40 40 37 35 33 35 34 35 36 32 30 25 23 27 20 34 35 37 36 37 37 37 38
54 54 54 55 54 52 40 37 39 37 32 33 34 35 33 35 35 35 37 39 42 39 37 35 33 31 32 32 34 33 34 30 25 21 20 30 31 34 34 34 37 37 37 38
54 54 54 54 54 53 40 37 37 38 35 35 37 35 33 33 30 34 37 40 40 38 35 33 27 26 26 29 31 32 33 32 29 24 23 24 33 35 38 37 30 38 39 38
53 53 54 54 54 53 43 38 38 38 34 34 36 35 35 35 31 32 32 36 36 36 32 31 28 24 28 25 25 27 28 27 25 26 24 29 35 37 38 28 35 37 39 38
53 53 53 54 54 53 45 39 38 39 33 34 36 38 35 34 34 33 36 36 35 33 32 30 28 26 27 23 26 26 29 24 24 24 21 23 37 36 35 39 36 39 38 38
53 53 54 54 54 53 48 39 40 40 37 38 37 39 38 38 40 37 34 35 35 34 31 29 28 29 23 24 26 26 27 32 30 31 31 38 36 39 39 39 40 39 38 39
52 53 54 54 54 52 47 38 37 38 35 36 35 37 36 39 39 40 36 34 36 35 34 31 30 29 29 25 24 24 30 30 31 33 34 34 38 38 38 38 39 38 38 39
52 53 53 53 53 51 47 39 37 38 36 32 35 39 35 37 38 38 38 37 36 35 34 31 30 30 32 28 30 28 33 32 30 29 34 35 37 36 38 38 39 39 38 39
52 52 52 53 53 52 42 37 37 38 38 32 34 36 35 36 37 38 37 37 35 32 31 28 30 30 29 27 25 23 31 32 31 33 38 38 38 36 37 35 37 38 38 36
51 51 51 52 52 50 42 38 39 38 38 31 30 35 31 32 34 35 34 35 33 32 31 30 30 31 31 26 24 33 31 33 37 38 34 36 37 37 36 36 36 37 37 37
51 51 51 51 50 41 40 38 41 42 38 33 29 29 33 34 33 32 32 32 31 32 30 29 29 30 31 27 28 36 36 36 35 35 32 34 35 37 36 36 36 39 36 35
51 51 51 51 50 45 39 39 46 40 36 33 22 26 29 33 30 30 30 30 29 30 30 28 28 28 27 26 33 31 35 34 34 34 33 35 33 32 33 32 33 32 32 32
51 50 50 42 38 35 36 46 43 36 36 28 25 22 23 31 29 30 29 30 25 30 28 27 29 27 25 33 34 34 35 36 35 34 32 31 31 33 32 31 31 31 31 30
50 45 37 33 36 45 44 36 33 30 31 29 25 25 22 29 27 28 28 28 26 18 28 28 26 27 34 36 35 36 36 35 33 30 29 29 29 31 31 30 31 32 31 30
43 38 35 36 43 36 32 27 27 28 26 30 27 27 25 30 26 27 30 21 23 16 23 24 23 24 29 33 32 33 33 33 32 32 33 33 33 32 31 31 31 31 31 30
44 41 40 38 34 28 24 21 24 24 26 26 25 26 29 28 29 28 27 23 22 18 23 24 22 26 31 31 32 31 32 31 31 30 31 31 34 33 32 31 30 30 31 31
41 37 34 31 28 19 22 22 19 19 25 24 26 25 28 27 29 26 25 22 24 24 14 18 22 29 31 31 31 31 30 29 31 31 30 33 32 32 30 30 30 29 28 28
34 32 27 25 18 22 25 26 26 27 25 26 25 23 26 28 26 27 20 26 24 13 17 18 23 28 31 31 30 29 28 30 27 26 29 29 28 27 26 30 29 28 27 27
32 31 27 25 28 22 21 22 26 26 30 28 25 24 27 23 23 25 22 17 15 18 20 23 25 29 31 31 31 30 30 30 30 29 25 23 23 23 23 26 28 28 28 26
31 30 22 23 18 18 18 21 28 29 31 29 29 23 19 22 22 19 19 17 18 24 22 26 23 29 30 31 31 31 32 32 32 31 30 30 27 26 26 26 26 26 26 26
30 29 29 24 20 22 24 29 31 32 32 28 27 24 26 23 13 16 23 22 28 27 26 22 26 31 32 31 31 32 31 30 30 29 30 30 29 25 22 23 25 24 25 24

GFSNW_sfc_temp_102.txt.gz
Temp
56 56 56 57 56 55 53 52 43 57 55 45 43 38 43 45 45 48 47 47 45 43 42 42 42 42 45 51 50 43 46 41 34 41 48 50 48 44 43 36 33 39 38 40
56 56 56 56 57 54 54 47 47 57 58 40 40 44 44 46 45 45 47 46 47 47 44 40 43 44 50 50 48 45 46 40 34 37 43 46 43 45 44 41 40 36 35 43
56 56 56 55 56 55 54 52 42 51 48 44 45 44 43 43 47 46 47 47 49 46 44 46 43 44 48 49 49 48 48 42 39 38 41 44 40 42 42 41 36 40 41 44
56 55 55 55 55 55 54 50 43 43 42 46 45 46 44 43 42 49 49 47 44 44 43 43 43 45 47 47 48 48 47 38 39 42 44 43 42 43 43 37 42 38 44 42
56 55 55 55 54 54 52 51 47 44 44 42 46 44 42 41 43 44 45 45 45 46 44 44 43 44 45 45 47 46 45 39 39 34 42 41 38 43 44 44 43 41 43 42
55 55 55 55 54 55 52 47 48 51 42 45 47 44 43 43 43 46 46 46 45 45 46 49 50 50 48 47 45 44 42 41 37 35 40 40 37 44 44 45 46 47 41 50
55 54 54 55 54 51 53 48 50 51 46 47 46 44 44 44 44 44 47 47 46 48 51 48 48 46 45 45 46 47 42 40 37 34 39 31 44 46 46 46 48 49 48 49
54 54 54 55 55 52 52 48 50 50 47 45 44 43 45 45 45 45 45 49 50 50 49 46 44 44 43 43 44 44 45 43 38 34 36 44 43 43 44 43 48 52 50 51
54 54 54 54 54 53 51 47 47 50 49 48 47 46 45 47 46 46 46 49 51 50 47 45 39 40 38 40 40 42 41 42 40 36 32 35 46 46 48 48 42 51 49 51
53 53 54 54 54 53 52 48 46 51 47 48 47 48 47 46 45 45 44 46 46 48 46 42 40 39 39 37 37 36 38 39 35 37 35 43 49 47 49 40 48 50 50 52
53 53 54 54 53 53 51 47 46 49 47 48 44 47 46 44 45 46 46 45 45 45 43 42 42 39 41 37 41 40 41 38 36 37 34 32 47 44 44 52 49 50 49 51
53 53 54 54 53 53 50 49 47 48 48 48 45 48 49 50 51 49 44 45 45 47 46 43 43 40 38 38 39 39 37 45 44 43 46 49 49 52 54 51 52 50 50 51
53 53 54 54 53 52 50 48 47 47 46 48 46 46 46 45 48 50 48 45 45 44 46 46 44 39 43 39 38 39 43 44 42 43 51 47 51 54 52 52 51 52 51 51
53 53 53 53 53 52 49 47 46 48 45 41 46 45 45 46 46 46 47 46 44 45 45 45 43 41 45 42 43 41 50 42 43 43 48 50 51 50 52 52 49 49 50 50
53 52 52 52 53 52 47 44 44 45 47 42 43 45 43 43 45 44 44 45 44 44 41 40 40 44 41 42 37 38 46 45 42 44 52 52 52 50 48 47 48 47 48 46
52 51 51 51 52 52 47 45 45 44 45 42 38 43 40 41 42 42 42 43 43 43 43 42 43 40 42 38 38 47 46 49 53 51 50 50 49 48 48 47 48 47 47 49
52 52 51 51 51 47 45 43 45 45 44 41 37 38 40 42 41 40 40 40 42 42 41 38 40 40 39 38 38 49 48 48 48 48 45 45 46 47 46 45 45 45 45 46
52 52 51 51 51 48 45 45 47 45 43 40 34 34 36 41 38 37 39 39 39 39 40 37 37 37 37 33 44 46 45 46 45 46 45 47 44 43 44 42 42 42 42 42
51 51 50 46 44 42 43 46 44 42 42 36 33 33 34 37 36 38 36 38 34 38 36 36 36 36 28 39 43 44 44 42 44 43 42 42 39 41 41 41 40 41 42 40
50 46 41 38 42 46 46 41 39 38 38 36 32 34 33 37 35 35 35 35 35 31 37 35 31 33 41 44 44 44 45 44 42 39 37 37 36 38 40 39 42 42 42 40
43 39 37 41 44 42 38 34 33 34 31 35 34 33 33 37 34 35 37 32 32 28 32 31 31 31 37 41 41 42 43 44 43 44 44 43 42 40 40 38 39 40 40 39
44 41 41 41 38 34 31 30 30 29 31 33 31 32 36 34 36 36 32 31 29 25 31 27 25 34 39 39 39 40 40 40 40 39 38 39 39 39 39 39 39 39 39 38
42 38 34 34 34 26 26 24 27 27 32 30 30 30 34 32 34 33 32 26 26 30 25 26 32 38 38 38 38 38 36 36 37 37 37 37 37 39 38 37 37 38 37 37
34 32 29 29 27 27 29 31 34 35 33 30 33 30 32 33 31 32 27 32 29 24 21 26 35 37 40 39 38 37 38 36 34 34 36 35 34 35 35 35 37 36 36 35
32 32 29 29 33 31 30 30 31 31 34 34 33 31 33 30 29 29 27 23 21 26 29 35 38 39 38 38 37 38 38 38 37 36 33 33 33 32 34 34 34 35 35 33
33 31 31 29 28 28 26 27 31 32 34 34 35 30 28 29 29 24 23 24 24 31 31 37 37 38 38 39 39 38 38 39 39 38 37 37 34 34 34 34 33 33 33 32
31 30 33 32 30 33 32 33 35 35 34 32 32 27 29 27 25 23 28 26 32 35 35 33 34 37 39 38 37 37 36 37 37 37 37 35 34 32 30 31 33 31 31 32

GFSNW_sfc_temp_105.txt.gz
Temp
56 56 56 57 57 55 56 62 46 63 59 50 51 41 46 47 49 53 51 52 50 49 47 46 47 46 49 55 53 47 50 46 40 45 52 53 51 47 47 38 38 42 40 41
56 56 56 56 56 55 58 58 57 66 66 44 46 51 48 50 50 49 51 49 51 51 48 44 48 48 53 53 51 49 51 44 37 40 45 49 45 49 48 47 44 38 38 44
56 56 56 56 56 56 59 60 45 58 58 53 52 50 49 47 51 51 52 51 53 51 49 51 47 48 50 53 52 48 50 46 42 38 42 47 44 46 47 44 38 44 44 49
56 55 55 55 56 55 60 58 49 50 48 51 53 53 50 48 46 53 54 51 50 49 47 48 47 49 50 50 49 51 50 41 43 45 47 48 46 45 47 41 43 40 49 47
55 55 55 55 54 55 60 57 55 54 54 50 53 50 48 47 48 50 49 49 50 52 48 48 46 48 50 49 51 49 49 41 43 35 47 45 42 47 47 47 47 46 47 46
55 55 54 55 54 58 59 58 58 55 47 52 53 52 49 48 49 50 52 51 50 50 50 52 54 55 54 53 50 48 46 43 39 36 45 45 39 47 47 48 51 50 44 53
54 54 54 54 54 54 62 57 56 55 52 53 51 50 49 49 50 49 52 52 50 52 56 55 52 52 51 52 51 52 46 44 41 34 42 32 48 51 50 50 52 54 53 56
54 54 54 54 55 53 59 58 58 55 53 53 51 49 50 51 51 49 49 53 55 57 53 49 47 47 45 47 49 49 50 46 40 34 39 46 50 47 47 46 49 57 53 56
54 54 54 54 54 54 58 55 54 58 53 53 52 52 51 51 53 52 51 54 56 54 52 48 41 42 43 42 42 46 48 48 42 41 34 36 49 50 53 52 43 58 56 56
54 53 54 54 54 53 55 54 53 55 52 55 54 53 52 52 52 51 52 52 51 52 50 45 44 43 44 41 41 38 39 41 36 38 36 44 54 51 53 41 47 55 55 56
53 53 53 54 54 53 53 53 53 51 53 55 51 53 51 50 52 50 52 50 49 49 45 46 47 44 47 42 48 46 44 40 39 41 37 32 53 48 46 54 54 55 55 56
53 53 53 54 54 53 52 53 53 53 50 53 53 57 58 57 57 54 51 50 51 53 49 49 49 44 47 45 42 48 40 49 48 48 47 53 54 58 59 56 55 55 55 56
53 53 53 53 54 53 50 51 51 51 49 52 49 50 54 53 52 59 51 53 52 50 51 51 49 42 49 42 44 47 50 54 45 47 54 55 57 58 58 57 55 57 56 56
53 53 53 53 53 53 50 51 51 50 49 43 50 51 48 52 52 52 54 52 50 51 51 49 47 44 51 46 49 45 53 48 46 47 53 54 57 57 58 57 56 53 54 54
53 53 52 52 52 52 51 52 52 50 47 42 46 51 48 48 49 48 49 49 50 49 45 43 42 49 45 49 46 42 52 48 44 46 55 56 56 55 53 52 52 52 51 51
53 52 52 51 51 51 52 49 50 50 50 43 39 46 44 44 46 46 46 47 48 48 46 45 48 48 46 41 42 53 54 56 57 54 53 54 55 52 53 50 52 52 51 51
52 52 51 51 51 51 48 48 49 48 50 44 39 41 42 44 44 44 43 45 46 45 45 43 46 44 42 41 39 55 55 56 55 56 53 47 49 48 50 50 50 49 49 51
52 52 51 51 51 50 48 50 48 49 48 44 35 38 40 44 41 40 44 42 42 43 43 43 40 42 41 36 46 52 56 54 53 52 52 51 51 48 47 48 47 44 44 46
51 51 50 48 47 45 47 47 47 47 45 39 37 34 36 41 40 42 39 42 36 43 37 39 40 39 32 41 45 49 51 49 49 47 49 48 45 46 47 46 45 43 46 46
50 47 42 39 44 46 46 43 41 40 42 40 35 41 35 40 39 38 40 39 37 32 38 39 33 34 44 49 49 51 52 50 49 42 38 40 39 41 44 44 45 45 45 44
44 40 38 44 45 44 42 37 35 39 33 39 39 38 38 41 36 38 41 36 36 30 34 32 34 34 42 47 47 49 51 50 49 48 48 47 46 44 44 43 43 42 42 40
44 41 42 42 39 37 32 32 34 31 33 40 36 37 40 40 41 39 36 33 32 27 35 30 27 37 44 45 43 45 46 44 44 45 44 44 43 43 42 42 41 40 41 41
43 38 34 34 36 28 29 26 30 31 37 35 34 33 40 37 38 38 35 29 28 35 29 29 35 42 44 45 43 42 39 40 40 40 41 40 40 40 40 39 39 40 40 40
35 32 30 31 31 31 34 35 37 40 38 35 38 35 36 39 34 37 29 36 34 28 24 29 40 43 44 45 43 41 43 39 35 35 38 37 35 36 37 38 40 39 39 39
33 32 30 31 37 37 36 35 35 35 39 36 35 35 37 34 32 34 31 27 24 30 32 39 42 41 42 42 41 42 41 42 40 40 35 34 34 34 36 37 37 38 37 36
33 32 30 33 32 34 32 33 34 37 38 38 37 32 30 31 32 28 27 29 28 35 36 41 42 42 42 42 41 41 42 41 40 40 40 39 37 37 37 38 36 36 35 35
31 32 37 38 39 38 41 41 41 40 36 33 33 29 29 30 28 27 34 30 36 39 40 40 40 40 41 42 41 40 38 40 39 39 39 38 38 35 32 33 37 34 33 34

GFSNW_sfc_temp_108.txt.gz
Temp
56 56 56 57 57 56 52 56 42 56 56 45 47 38 46 46 50 53 51 51 49 46 46 46 44 44 46 53 51 46 45 41 31 39 48 49 45 42 41 28 32 33 31 30
56 56 56 56 56 56 54 53 52 60 55 40 40 48 48 50 50 49 50 48 50 50 46 40 45 46 51 52 48 43 45 38 26 30 39 43 40 44 44 42 36 28 25 32
56 56 56 56 56 56 54 54 40 52 53 50 47 46 47 46 50 51 52 51 52 49 46 48 44 45 49 50 49 49 47 41 34 27 32 41 37 42 44 39 26 31 34 38
56 55 55 55 56 56 55 53 45 46 43 47 49 48 49 47 46 51 52 48 49 47 43 45 43 46 46 48 48 45 44 33 35 39 42 42 40 41 42 37 37 29 36 38
55 55 55 55 55 55 55 49 48 49 49 49 48 47 46 47 48 47 47 47 49 49 44 45 42 44 44 43 45 43 45 33 34 27 41 41 36 41 43 43 42 40 40 39
55 54 54 54 54 56 54 53 54 50 46 49 47 45 46 47 48 48 50 48 47 46 46 48 48 47 48 46 42 43 41 35 30 27 38 37 29 40 41 42 44 44 38 45
54 54 54 54 54 53 54 51 51 48 45 48 47 49 48 47 47 44 50 49 45 46 52 51 47 44 46 46 45 46 40 37 32 25 31 20 39 44 43 43 47 47 47 47
54 54 54 54 54 54 53 52 49 48 43 47 48 48 47 48 49 45 47 50 49 51 46 41 39 37 37 41 44 43 44 38 28 23 26 36 41 39 39 39 41 48 48 48
54 54 54 54 54 54 52 49 49 48 44 45 50 47 47 43 43 45 47 49 50 46 44 41 30 31 33 32 35 40 43 41 32 30 26 25 38 42 46 44 33 47 49 47
54 54 54 54 54 53 49 48 49 46 43 48 47 45 45 47 44 42 44 46 44 45 40 35 33 31 37 30 30 28 30 31 28 28 27 34 43 45 46 30 38 45 46 47
54 53 53 54 53 53 50 48 49 45 42 45 48 50 45 45 44 41 44 42 42 41 35 35 36 33 37 32 38 35 33 29 28 29 27 25 45 42 38 44 43 46 45 46
53 53 53 53 53 53 52 47 50 49 42 45 49 50 49 48 46 45 45 43 45 44 38 37 37 34 36 35 30 39 33 40 36 37 35 45 46 46 48 48 47 46 45 47
53 53 53 53 53 53 51 46 47 46 42 44 43 44 47 50 48 50 42 45 46 44 42 39 38 33 37 31 33 34 40 45 36 40 44 49 47 49 50 50 47 49 49 49
54 54 53 53 53 53 51 46 47 45 44 36 42 48 43 46 48 47 47 45 46 45 42 38 37 35 42 36 39 38 42 40 38 38 46 48 51 51 49 50 49 48 47 47
54 53 52 52 52 52 49 49 47 47 41 36 39 46 42 45 45 44 44 44 42 40 37 35 34 38 38 38 36 38 44 44 39 40 45 45 44 44 45 44 43 45 45 44
53 53 52 52 51 51 47 42 45 46 45 37 33 41 39 40 41 41 40 41 41 39 39 36 39 41 39 31 30 42 46 51 51 46 48 46 43 43 42 42 44 45 44 45
53 52 52 51 51 47 44 41 43 47 45 38 33 34 37 39 38 39 38 40 38 37 37 36 36 37 38 32 33 44 47 49 50 51 44 42 42 43 45 44 44 44 41 42
53 52 51 51 51 49 43 44 47 46 41 40 31 32 33 37 34 33 38 35 36 35 34 36 35 34 33 30 39 42 46 48 45 45 46 45 42 41 41 41 41 39 38 39
52 51 50 47 44 42 41 47 46 43 40 33 32 29 31 36 35 35 33 35 33 37 33 33 33 31 29 35 39 41 44 44 43 40 40 42 41 40 40 40 39 37 37 39
50 47 42 38 41 46 45 39 36 35 37 35 31 34 30 34 33 33 32 33 32 30 32 33 31 31 38 42 43 44 44 45 43 35 34 34 34 36 37 38 40 39 38 38
44 40 38 42 46 41 37 33 33 34 32 34 33 32 30 36 30 32 35 29 32 27 26 26 26 28 35 40 39 40 40 41 42 41 40 41 39 38 38 38 38 38 37 36
43 42 43 41 37 35 31 31 31 31 30 32 30 30 32 32 34 31 31 27 29 24 28 27 24 30 38 38 37 38 38 38 38 39 39 39 39 38 37 37 37 36 36 36
43 38 34 34 34 28 28 25 27 29 31 30 29 27 32 31 32 30 29 24 26 29 19 22 27 34 38 38 38 37 34 33 34 35 36 37 36 36 36 35 35 35 36 36
35 33 31 30 29 30 30 30 30 31 32 31 32 29 32 34 31 33 25 30 28 19 21 21 28 35 36 36 36 35 36 36 30 28 32 33 30 30 31 34 36 35 34 35
33 32 27 29 32 30 29 29 29 29 33 31 28 28 30 29 29 30 28 23 20 21 23 27 32 36 36 36 36 36 35 36 36 36 33 28 29 29 30 34 34 34 34 33
33 32 29 32 29 29 27 26 27 30 32 30 30 27 25 26 27 26 21 21 20 25 30 34 35 37 38 38 37 38 37 36 36 35 36 36 35 34 33 35 34 33 33 32
32 30 35 33 29 29 30 32 32 36 31 26 26 27 27 29 26 22 25 23 29 33 32 34 37 36 37 38 38 37 36 36 36 36 36 34 35 30 28 30 35 34 33 32

GFSNW_sfc_temp_111.txt.gz
Temp
56 56 56 57 57 56 51 45 37 49 48 38 37 30 41 46 46 48 47 46 44 40 43 41 38 38 41 48 47 40 41 38 28 36 44 47 42 38 37 27 28 33 27 29
56 56 56 56 57 56 45 44 43 48 48 32 29 41 44 46 46 46 46 44 46 45 41 37 40 41 47 49 45 40 41 34 22 29 36 41 38 40 41 38 32 26 23 29
56 55 55 56 56 56 47 44 35 43 44 41 38 39 42 41 47 47 49 46 47 43 41 43 40 40 46 48 46 49 45 36 31 27 31 37 33 38 39 36 23 26 28 31
56 55 55 55 55 55 49 43 36 41 32 41 40 42 44 42 41 47 47 44 45 42 37 39 38 42 41 45 47 42 41 30 31 36 38 37 37 37 38 33 36 29 31 34
55 55 55 55 55 56 45 41 40 41 40 42 40 42 40 42 44 43 42 42 45 43 39 39 36 40 39 39 39 39 41 31 32 26 37 36 33 37 38 39 40 38 39 38
55 54 54 54 55 53 43 43 44 43 42 40 38 38 39 42 43 44 46 43 41 41 42 42 42 42 41 41 39 38 37 31 27 25 32 32 28 34 38 38 40 42 34 43
54 54 54 54 54 51 44 42 42 40 38 40 41 44 43 43 43 40 45 44 40 44 47 45 41 38 40 40 41 42 36 34 28 23 28 20 37 43 43 40 43 45 44 43
54 54 54 54 54 54 45 43 41 39 36 41 42 43 42 42 42 40 43 45 45 45 42 37 34 33 34 37 39 39 40 35 26 22 22 32 38 38 39 38 39 45 45 48
54 54 54 54 54 54 45 41 42 40 37 38 44 42 42 37 35 38 42 45 46 43 39 36 28 28 31 29 32 38 40 37 30 26 24 24 37 40 43 42 32 44 44 45
54 54 53 54 53 54 45 42 43 41 36 40 41 39 40 42 38 37 39 40 40 42 34 32 29 27 34 29 28 26 29 29 26 25 24 30 40 42 44 29 38 42 43 44
54 54 53 53 53 53 46 42 44 41 36 38 44 45 40 40 39 37 41 40 39 36 33 31 31 30 33 29 32 30 29 25 25 26 24 23 43 41 38 43 41 43 43 44
54 53 53 53 53 53 51 41 45 44 38 40 44 46 45 46 46 43 41 40 40 40 34 32 31 31 31 30 28 34 31 36 32 33 33 43 42 43 46 45 45 43 42 44
54 54 54 53 53 53 50 41 42 41 38 38 39 40 44 47 45 47 40 39 43 41 40 36 34 32 32 29 28 30 37 41 36 39 41 45 48 48 44 44 45 46 47 48
54 54 54 53 53 53 51 42 42 40 39 33 38 45 40 43 44 44 44 43 43 42 39 35 33 32 37 32 36 33 39 38 36 36 44 44 47 47 46 47 46 45 46 46
54 54 53 52 52 52 47 44 45 42 39 33 35 41 40 42 42 41 41 42 39 36 34 32 31 33 36 35 32 37 41 42 38 39 50 43 44 43 42 42 43 44 43 42
53 53 53 52 52 51 44 39 42 43 41 34 30 38 36 39 40 39 39 39 37 36 35 32 34 39 37 28 26 37 41 46 50 47 47 45 45 46 43 43 44 43 42 41
53 53 52 52 51 45 41 40 42 46 42 35 30 31 35 37 36 36 36 37 35 35 34 32 33 35 37 29 27 41 41 43 44 44 42 42 42 43 44 43 44 44 40 41
52 52 52 51 51 48 41 41 47 44 40 38 28 31 33 36 33 32 35 33 34 33 32 34 35 33 31 28 36 38 40 41 41 43 42 44 41 39 40 40 40 39 38 38
52 51 50 47 42 39 39 47 45 40 38 33 33 28 28 36 34 33 32 34 31 34 31 32 32 29 28 34 36 38 39 38 40 42 41 40 38 39 38 38 37 36 36 37
50 46 42 38 39 47 45 38 35 32 35 31 30 30 29 33 32 32 31 32 32 29 32 32 31 30 37 40 42 42 41 39 37 34 35 36 35 36 36 37 37 37 36 36
44 40 37 38 46 38 34 32 32 33 32 32 32 29 27 33 28 29 32 26 32 27 30 29 27 27 33 39 38 39 37 37 36 37 37 37 37 36 36 36 36 36 35 34
43 41 42 39 35 34 32 30 31 30 30 29 29 29 30 31 32 29 30 25 30 23 26 27 23 28 36 37 36 36 36 35 36 35 35 35 36 35 34 34 34 34 34 34
43 37 34 34 33 28 27 22 26 27 27 26 26 25 29 30 31 29 27 26 24 27 17 20 25 31 35 35 34 35 33 32 32 33 33 34 33 33 32 33 33 33 34 35
36 33 30 29 26 30 28 25 25 29 28 28 30 27 27 29 27 29 22 27 27 15 19 20 26 33 36 35 34 33 35 34 29 28 32 32 30 30 29 32 33 34 34 34
30 32 28 29 31 22 23 28 26 27 32 30 27 26 29 24 25 29 25 19 17 18 21 27 29 35 34 35 35 35 35 36 35 35 32 28 28 28 30 32 34 33 33 33
33 32 30 32 31 30 24 18 22 27 30 27 28 26 23 24 24 26 20 15 15 24 25 30 31 35 36 37 36 37 37 37 37 37 37 36 34 34 34 34 33 33 33 33
31 30 34 31 21 23 24 28 29 31 29 24 26 26 24 27 24 22 23 20 28 29 29 27 32 34 37 36 35 36 36 36 36 36 36 36 36 30 29 32 37 34 33 33

GFSNW_sfc_temp_114.txt.gz
Temp
56 56 56 57 57 56 51 43 37 47 47 37 34 29 39 46 45 46 44 43 42 38 38 36 34 35 40 46 45 38 39 35 27 34 41 44 39 36 35 25 26 28 25 28
56 56 56 56 56 56 44 42 41 46 45 32 29 39 43 44 44 44 44 43 45 44 39 35 38 38 45 47 43 38 39 33 22 29 35 38 37 38 38 35 30 26 22 27
56 55 56 56 56 56 46 42 35 42 41 39 37 37 39 40 45 45 46 44 46 42 40 41 37 37 44 45 44 49 45 34 30 25 31 34 32 35 37 35 23 26 28 30
55 55 55 55 56 56 47 40 36 39 32 39 38 39 41 39 39 44 45 42 42 39 35 37 36 38 39 43 46 41 40 30 29 33 35 35 35 36 36 32 37 30 31 32
55 55 54 55 55 55 44 40 39 38 38 40 37 39 38 40 41 41 40 40 41 41 36 37 36 38 36 37 37 37 38 30 30 26 34 33 31 35 37 38 38 36 38 37
55 54 54 54 54 52 41 40 42 42 40 38 36 37 39 41 42 43 44 42 39 38 41 41 39 40 40 37 37 36 35 30 26 24 30 31 28 35 36 35 36 40 34 42
55 54 54 54 54 50 43 40 40 39 37 38 39 41 42 42 41 39 42 42 39 42 44 42 39 36 38 37 38 39 33 31 27 22 27 20 36 38 39 39 41 43 43 45
54 54 54 54 54 54 42 40 40 38 34 37 40 40 39 40 39 39 41 43 44 43 40 36 33 31 32 34 36 36 38 32 25 21 21 31 37 35 36 36 38 43 44 46
54 54 54 54 54 54 43 39 40 39 37 37 40 40 38 36 33 37 40 43 44 41 37 34 27 28 30 29 29 36 36 35 29 25 23 23 35 38 41 40 32 41 41 42
54 54 54 53 54 54 44 41 41 40 36 38 39 39 39 40 35 35 36 38 39 39 32 31 28 26 31 28 27 27 29 27 25 24 23 29 39 41 41 29 38 42 40 41
54 54 54 53 53 53 46 42 42 40 35 37 41 43 39 39 37 36 39 38 38 35 32 31 30 28 31 27 30 28 28 24 23 24 22 22 40 39 38 43 39 41 41 42
54 54 54 53 53 53 49 41 44 43 38 40 41 44 42 42 43 40 38 38 38 38 32 30 29 30 28 28 28 29 30 35 30 31 32 41 41 42 44 43 43 43 42 45
54 54 54 53 53 53 49 41 40 40 37 37 39 39 42 46 43 45 39 37 40 39 38 34 32 31 31 27 26 27 35 37 34 36 41 43 45 47 45 43 44 45 46 46
54 55 54 53 53 53 50 42 43 40 38 33 37 44 39 43 43 43 43 42 41 40 38 35 32 31 36 30 34 31 37 36 34 33 42 45 46 45 46 45 44 43 43 44
54 54 53 53 52 52 45 43 42 42 40 34 35 39 39 41 41 40 40 41 38 36 34 32 32 32 33 32 30 28 37 38 34 38 44 41 43 43 44 44 45 45 42 41
53 53 53 52 52 51 43 39 42 43 42 35 31 37 36 38 39 39 38 38 36 36 34 32 33 36 36 28 26 36 37 40 43 43 40 42 44 42 43 43 45 44 42 42
52 53 52 52 51 44 42 40 42 46 42 36 32 32 36 36 35 35 35 36 34 35 33 31 32 34 36 29 27 39 39 40 41 42 38 42 40 41 43 42 43 43 41 40
52 52 52 51 51 48 40 40 46 44 40 37 29 31 33 36 32 31 33 32 32 32 31 32 34 34 31 28 35 37 39 41 41 41 39 40 42 39 40 40 39 38 38 37
52 51 51 47 42 38 38 47 44 40 38 33 33 28 28 36 33 33 32 32 30 33 30 30 32 29 28 34 36 37 40 37 39 40 38 37 36 38 37 37 37 35 35 35
50 47 42 36 38 47 44 38 34 32 32 31 31 31 29 33 31 32 31 31 32 29 31 34 30 29 35 39 40 40 40 39 36 33 33 33 32 34 35 36 36 35 35 35
44 39 35 37 45 37 34 32 32 32 31 32 32 29 27 32 28 29 32 25 31 26 28 30 28 27 32 38 38 38 36 35 35 34 34 34 33 32 33 34 35 34 34 33
43 41 41 37 34 34 32 30 31 31 30 29 27 28 30 30 31 29 29 24 29 23 27 28 23 28 35 36 37 36 35 33 34 34 34 34 34 33 32 32 32 32 33 33
42 37 33 34 33 28 27 18 26 26 25 26 26 25 29 29 30 27 26 25 23 26 16 20 24 32 35 35 34 34 33 32 33 33 33 34 33 34 32 32 32 32 32 34
35 33 29 30 27 30 26 23 22 28 26 26 28 25 26 28 26 27 24 26 26 14 19 20 25 32 35 34 35 33 35 35 32 32 33 33 31 30 30 32 34 34 34 35
32 32 27 30 31 24 26 25 25 26 30 28 27 26 28 23 24 28 24 22 21 17 20 24 27 33 35 36 37 35 34 35 35 35 31 31 31 32 33 34 34 34 34 33
33 32 30 32 30 31 28 20 24 26 28 25 27 22 18 22 22 25 25 21 18 22 22 25 27 33 34 40 37 36 35 34 35 36 35 35 35 34 34 34 34 33 32 32
31 29 33 29 22 25 28 29 29 30 29 24 23 20 22 22 24 23 22 18 23 26 31 24 30 33 37 35 34 33 35 36 37 35 35 33 35 28 25 29 37 35 33 33

GFSNW_sfc_temp_117.txt.gz
Temp
56 56 56 56 56 55 50 41 36 46 46 37 32 28 38 45 43 45 43 41 41 37 37 35 34 33 37 43 43 36 37 34 27 33 39 41 37 34 33 25 25 26 24 28
55 56 56 56 56 55 43 40 40 45 44 32 28 38 41 43 42 42 42 41 42 41 37 34 36 37 43 45 42 37 38 32 22 28 34 36 35 36 36 33 30 25 21 28
55 55 55 55 56 56 46 41 35 41 40 37 37 36 37 39 44 43 44 42 43 40 37 39 35 36 42 43 43 48 44 33 30 25 31 33 32 34 35 34 22 25 27 29
55 55 55 55 55 56 47 38 35 37 32 38 36 37 39 37 38 42 43 40 40 38 33 34 34 37 37 41 46 39 38 30 27 31 33 34 33 33 33 31 35 29 28 31
55 55 54 55 54 55 42 40 39 37 36 38 36 38 35 38 39 39 38 38 40 38 35 38 36 38 35 36 36 35 36 29 29 24 32 31 31 33 35 35 36 36 37 36
55 54 54 54 54 51 40 38 39 42 38 36 34 34 36 39 40 41 42 40 38 36 39 39 38 38 38 37 36 35 33 30 26 23 29 30 27 31 35 34 35 39 32 42
55 54 54 54 54 49 41 38 39 40 36 36 38 39 40 39 39 37 41 40 37 40 42 41 38 35 35 35 35 37 31 30 26 21 26 20 35 37 38 37 39 40 42 45
54 54 54 54 54 52 41 38 39 37 34 36 37 39 39 38 37 37 39 41 42 42 39 34 33 31 31 32 33 33 35 31 24 20 20 30 35 34 34 35 38 39 41 44
54 54 54 54 54 53 42 38 38 38 36 36 40 39 38 35 32 35 39 41 42 40 36 33 27 27 27 27 28 33 34 33 28 25 22 23 32 36 39 38 32 38 39 40
54 54 54 54 54 53 44 40 40 39 35 37 37 37 37 38 33 34 33 36 37 38 32 31 28 26 30 27 27 26 28 26 25 24 23 28 37 40 40 30 37 39 39 41
54 54 53 53 53 53 46 41 41 40 34 36 39 42 37 38 36 35 38 37 36 33 32 30 29 27 29 26 27 27 27 23 24 25 22 23 39 37 37 42 39 40 41 43
54 54 53 53 53 53 48 41 43 42 38 39 39 41 41 41 42 39 36 37 36 37 32 29 29 30 26 27 28 27 29 33 29 30 31 39 38 39 41 41 41 42 43 45
54 54 54 53 53 53 48 42 41 40 36 37 39 38 41 44 41 43 39 37 40 37 37 33 31 31 31 27 26 26 33 35 33 35 37 39 43 44 43 43 44 46 42 43
54 55 54 53 53 52 49 41 42 41 38 33 37 43 38 41 41 42 42 41 40 39 37 34 31 32 35 30 32 31 36 34 33 32 39 43 43 40 42 43 43 42 43 41
54 54 54 53 52 51 45 42 41 42 40 35 36 39 38 40 40 39 40 40 38 36 34 32 32 32 32 31 29 27 35 36 33 34 38 38 42 41 41 42 43 45 42 41
52 53 53 52 52 50 42 38 41 42 40 35 31 38 36 39 39 39 38 38 36 35 34 32 33 35 34 28 26 36 36 39 39 38 40 41 43 44 40 40 42 44 41 41
52 52 53 52 51 43 39 38 41 45 41 35 31 31 36 36 34 34 34 35 33 34 33 32 32 34 35 30 27 38 39 39 40 40 37 39 37 39 42 41 41 41 39 40
52 52 52 51 51 47 39 39 46 43 38 36 27 31 33 35 32 31 32 31 32 32 31 32 31 33 31 29 36 39 40 40 41 39 40 38 39 38 38 38 38 38 37 37
52 51 51 46 43 40 38 47 43 38 36 29 32 27 23 35 32 32 32 32 28 31 31 30 31 29 28 34 36 37 37 36 38 38 36 35 35 35 35 35 36 35 35 35
50 45 42 35 39 46 44 37 34 31 31 29 31 30 28 31 30 30 29 30 29 25 30 32 29 29 36 39 40 38 38 37 34 31 33 34 33 34 34 33 34 33 33 33
41 36 33 36 44 36 33 32 31 32 31 31 31 28 25 31 27 28 30 24 30 26 27 29 27 27 33 38 38 38 35 33 33 33 33 32 31 31 32 33 32 32 32 32
41 39 39 36 35 34 30 25 30 30 30 29 27 28 29 29 30 29 28 24 29 23 28 28 24 28 34 36 35 35 34 32 33 33 34 34 33 33 31 31 31 31 32 32
40 36 33 34 31 28 26 22 27 27 26 26 26 24 28 28 30 27 26 25 24 25 23 22 24 31 34 35 34 34 34 33 34 35 34 34 34 33 32 32 32 32 31 33
33 33 25 27 24 29 26 24 24 28 26 25 27 24 25 27 25 26 24 26 25 23 20 20 25 30 35 35 35 34 36 36 33 33 34 33 33 33 32 32 32 32 33 35
32 32 23 23 27 25 28 26 27 28 30 29 27 26 27 23 24 28 25 24 23 22 22 25 24 32 34 33 34 35 34 35 34 34 32 31 31 31 32 33 32 31 32 31
33 32 28 28 30 27 29 28 26 29 29 26 27 21 19 20 22 25 25 24 22 24 23 25 26 32 34 35 34 34 34 34 36 36 35 35 32 33 35 34 32 32 31 32
29 29 31 25 24 26 27 31 30 31 30 27 26 22 22 23 21 21 24 20 23 26 25 25 27 27 36 34 34 34 34 34 34 34 33 32 35 29 25 29 37 36 33 32

GFSNW_sfc_temp_120.txt.gz
Temp
56 56 56 56 56 55 49 41 36 45 44 36 31 28 37 45 41 43 42 40 39 35 36 34 32 32 36 42 42 36 36 32 26 32 37 39 36 33 32 25 24 25 23 27
55 55 56 56 56 55 42 40 39 45 44 30 27 36 40 41 41 40 41 39 41 40 36 33 34 36 41 44 40 37 38 31 21 28 33 34 33 34 34 31 29 24 21 29
55 55 55 55 55 56 44 40 34 40 39 36 34 35 36 37 43 42 43 41 42 38 35 37 34 35 41 42 41 48 43 32 30 25 30 32 30 32 33 33 22 24 26 28
56 55 55 55 55 56 45 38 34 36 31 37 35 35 38 36 38 42 43 39 40 36 31 32 32 35 36 41 45 38 37 29 25 30 32 33 33 33 32 30 33 28 27 28
55 55 54 54 54 54 42 39 38 35 35 36 34 37 34 36 37 37 37 36 38 37 32 33 32 35 33 33 35 33 35 29 28 24 31 30 29 31 32 33 35 34 36 35
55 54 54 54 54 51 39 37 38 40 37 34 34 35 37 39 39 39 41 39 36 34 37 37 36 37 37 36 35 33 32 29 26 23 27 28 26 29 31 32 32 36 32 41
55 54 54 54 54 49 41 38 38 38 35 34 36 38 39 39 39 38 39 39 36 39 42 40 37 37 35 34 33 35 30 29 26 21 25 19 33 34 35 34 36 38 39 43
54 54 54 54 54 52 40 37 39 37 33 33 36 36 36 36 37 35 38 39 40 41 38 34 32 30 30 30 32 31 34 30 23 19 19 29 32 32 33 34 36 37 39 41
54 54 54 54 54 52 41 37 37 38 36 36 37 37 35 34 30 34 36 39 40 39 34 33 27 26 27 26 26 32 33 31 27 23 22 23 31 34 37 36 32 37 38 39
54 54 54 54 54 53 43 39 39 39 35 36 38 36 37 36 32 33 32 34 35 36 31 31 27 25 29 26 26 25 27 26 24 24 22 27 35 37 38 29 34 39 37 41
54 54 53 53 53 53 45 40 40 40 35 36 39 41 38 36 35 35 36 36 36 32 32 30 28 27 28 24 26 26 26 23 23 26 22 22 38 35 34 40 37 39 40 42
54 54 53 53 53 53 48 40 42 41 38 39 39 39 40 40 41 39 35 37 35 36 31 29 29 30 24 25 27 25 28 32 28 29 30 38 36 38 40 40 39 39 39 43
54 54 54 53 53 53 48 40 40 40 37 38 38 37 39 42 40 41 38 36 38 36 37 33 31 31 31 27 26 26 31 33 32 33 35 36 41 41 40 41 41 43 43 41
54 55 54 53 53 52 48 41 40 40 37 34 38 42 38 40 40 41 41 40 39 38 36 34 32 32 34 30 31 29 34 33 32 32 38 40 40 38 41 43 43 41 41 40
54 55 54 53 52 50 43 40 39 40 38 34 35 39 39 40 40 40 40 40 38 36 35 32 33 33 32 30 30 28 33 35 32 32 37 36 38 40 40 38 39 40 39 39
52 53 53 52 52 48 41 37 40 40 39 33 29 36 35 38 38 37 37 37 35 34 35 34 34 35 34 28 28 37 36 38 39 37 38 38 40 40 37 38 39 39 38 38
52 53 53 52 50 42 39 38 40 44 40 34 30 29 34 34 33 33 33 34 32 33 32 31 32 33 35 30 28 38 38 39 39 37 35 35 35 36 39 37 38 39 38 38
52 52 52 51 50 46 39 39 45 42 36 34 23 26 30 33 31 30 31 31 31 31 30 31 31 32 31 28 36 38 39 39 38 38 37 38 39 37 37 37 36 35 36 36
52 51 51 47 43 39 39 46 43 37 36 29 31 26 22 33 30 30 31 31 27 30 30 29 31 29 27 33 35 35 36 34 35 35 35 35 34 34 34 33 34 32 33 34
50 46 43 37 37 45 43 36 33 31 31 30 31 32 28 29 29 29 28 29 26 18 28 30 28 27 34 37 37 37 36 35 33 32 33 32 32 33 34 33 33 31 32 32
43 39 34 36 44 36 33 29 30 32 31 32 32 31 26 31 26 27 30 25 29 26 24 29 25 26 32 36 35 36 34 31 33 32 33 33 32 31 32 34 34 32 32 32
43 40 38 35 34 33 28 25 30 30 30 29 27 29 29 29 30 30 29 24 29 23 28 28 24 27 33 34 33 33 34 33 33 33 34 35 35 34 32 32 33 34 33 33
41 36 34 30 30 27 23 17 26 27 30 25 27 26 29 29 30 27 26 25 25 25 24 22 24 30 32 33 34 33 33 32 32 33 33 34 33 34 31 32 33 31 31 34
34 30 26 25 23 23 23 24 24 27 25 24 26 24 26 28 26 27 24 27 26 23 21 19 23 27 32 32 33 32 33 33 31 32 33 32 31 32 31 32 32 31 33 36
32 31 24 21 26 23 28 25 27 26 28 27 26 26 27 24 24 29 27 24 23 24 20 23 23 30 31 32 32 33 33 33 32 33 33 33 33 33 34 32 31 31 32 32
31 30 25 27 24 23 24 25 27 28 29 28 28 22 18 21 26 25 25 24 21 22 24 25 26 30 31 32 33 33 33 32 33 32 33 33 33 33 35 35 33 33 32 31
27 28 30 28 29 28 26 28 29 31 30 27 25 19 21 22 23 21 22 21 25 26 25 26 29 29 29 29 31 33 33 32 34 32 32 33 35 32 27 28 35 34 33 32

GFSNW_sfc_temp_123.txt.gz
Temp
56 56 56 56 56 55 49 40 36 45 44 36 31 28 35 45 40 42 40 39 39 35 35 34 34 36 37 43 42 36 37 33 27 33 37 40 37 34 33 29 26 27 27 31
56 55 55 55 56 55 41 39 38 44 42 31 27 36 39 40 40 39 40 39 41 39 35 33 34 36 43 44 40 37 39 31 23 29 34 36 34 35 35 32 31 26 25 34
56 55 55 55 55 55 44 39 34 40 38 35 36 35 35 36 42 40 41 40 41 38 35 36 33 34 41 42 41 47 43 32 31 27 32 33 31 33 34 34 26 27 28 31
56 55 55 55 55 55 45 36 33 34 30 36 32 34 38 36 35 40 41 38 38 35 31 32 31 34 36 40 44 38 38 31 27 31 33 34 34 34 32 31 33 30 30 29
55 55 54 54 54 54 41 39 38 34 33 35 32 36 33 36 36 38 35 37 37 35 33 35 33 35 33 33 35 33 35 29 29 23 32 31 30 32 33 33 35 33 35 35
55 54 54 54 53 50 39 36 37 40 35 33 32 33 34 37 38 38 39 38 36 34 36 37 35 36 37 37 35 33 32 29 26 23 28 29 27 29 31 32 34 37 32 40
55 54 54 54 53 49 41 37 38 38 35 33 35 36 36 36 36 35 37 38 35 37 40 39 37 36 35 36 33 35 30 29 26 20 26 21 34 34 36 35 36 37 38 41
54 54 54 54 54 51 40 37 38 37 34 33 34 35 36 36 35 35 36 37 38 41 37 33 31 29 30 29 30 30 33 30 24 20 20 29 32 34 34 33 37 37 37 40
54 54 54 54 54 52 40 37 37 38 36 36 36 36 35 34 30 32 35 38 39 38 33 33 26 26 26 25 26 31 32 31 28 23 22 23 34 35 38 37 32 38 38 41
54 54 54 54 53 52 43 39 38 38 36 36 36 36 35 35 32 33 31 34 35 36 31 31 28 25 28 25 25 25 27 26 24 24 22 28 36 37 38 29 35 38 40 41
54 54 53 53 53 52 45 40 40 40 35 35 39 39 36 35 34 34 35 36 35 32 31 31 29 27 27 25 26 26 25 24 23 26 23 22 37 36 34 40 38 40 39 40
54 54 53 53 53 52 48 41 42 41 38 39 38 38 38 38 39 37 34 36 34 36 31 29 29 29 24 27 28 26 28 32 29 30 31 38 37 39 39 40 40 40 39 42
54 54 54 53 53 52 47 39 39 39 37 38 37 36 38 42 40 41 38 35 37 35 36 32 30 31 31 26 27 26 31 33 32 33 33 38 41 40 40 41 40 41 40 39
54 54 54 53 52 51 47 39 38 38 36 34 35 41 36 40 41 41 41 40 39 38 37 34 32 32 34 31 32 30 35 33 31 32 36 38 37 38 38 39 39 38 39 38
54 54 54 53 52 49 42 38 38 39 38 34 34 37 37 38 39 39 38 40 38 35 34 31 32 31 31 29 29 27 33 34 33 32 37 38 39 40 40 38 39 39 36 37
53 54 54 52 51 48 41 37 39 39 39 34 29 34 33 36 36 36 36 36 35 34 34 32 32 35 33 28 29 36 34 36 38 36 36 37 39 39 37 36 38 38 38 38
52 53 53 52 50 43 39 38 40 44 39 33 29 28 33 33 33 32 33 33 32 33 31 31 30 32 33 29 27 36 37 38 38 37 35 35 34 36 37 36 38 38 37 37
52 52 51 51 49 46 39 39 45 41 36 34 22 25 29 33 30 29 30 30 31 31 30 30 30 30 29 27 33 35 35 35 36 35 35 36 36 35 37 36 35 34 35 35
51 51 51 47 42 38 37 46 42 37 36 28 31 26 22 32 29 30 31 30 26 29 28 28 30 28 27 31 33 32 33 33 34 34 34 34 33 33 33 32 33 32 34 33
50 46 41 34 38 45 43 37 34 32 32 30 31 32 28 30 29 28 28 29 27 20 28 30 28 28 33 36 36 35 35 33 32 31 31 31 30 32 32 32 32 31 31 32
44 39 37 35 43 36 33 29 29 30 30 32 32 32 27 30 27 28 30 25 27 26 25 29 28 26 31 34 34 35 34 32 31 31 32 32 31 30 31 32 33 32 32 32
43 40 40 37 36 33 26 22 29 29 25 29 29 30 29 28 29 29 29 25 28 23 27 27 24 27 32 33 34 33 34 31 33 31 33 33 33 33 32 31 32 33 33 33
42 37 33 32 28 26 23 16 26 27 31 25 28 25 28 28 29 27 27 26 25 25 26 24 23 29 32 32 33 33 32 31 32 33 33 34 32 33 31 32 34 32 31 33
35 31 27 26 24 21 23 22 23 26 25 23 28 23 25 27 25 26 20 27 27 22 21 19 24 29 31 32 31 30 31 32 31 30 32 32 31 31 31 31 32 31 32 34
32 32 25 25 27 25 28 28 28 28 27 27 26 24 27 25 25 29 27 23 22 24 19 23 24 29 31 31 32 31 31 31 30 31 30 30 30 30 31 31 30 30 32 33
31 29 26 28 27 25 26 23 23 28 29 26 27 22 20 22 27 25 24 23 20 22 22 23 25 29 30 30 31 31 31 30 31 32 32 32 30 31 33 34 33 32 32 31
26 24 31 29 28 27 27 28 29 31 32 28 28 22 23 23 23 20 21 22 23 24 23 23 28 29 30 29 29 29 29 29 28 28 28 29 32 31 28 28 33 33 33 32

GFSNW_sfc_temp_129.txt.gz
Temp
56 56 56 56 56 56 54 59 53 61 62 54 55 46 50 50 51 53 50 50 50 48 47 47 47 46 49 54 54 50 52 51 40 45 49 51 51 50 52 45 42 45 44 48
56 56 56 56 56 55 60 60 60 61 59 47 49 50 50 52 50 51 51 50 51 52 47 43 47 48 52 53 52 51 53 48 37 39 45 48 45 50 50 49 48 43 43 48
56 55 55 55 56 56 57 60 51 60 62 59 55 51 49 48 52 52 53 52 54 51 48 50 45 46 49 52 52 48 51 49 45 42 42 49 43 46 48 48 42 47 47 51
56 55 55 55 55 54 56 59 52 52 51 54 54 53 51 48 48 53 54 51 52 51 46 47 45 48 48 50 48 51 52 43 41 46 46 45 46 45 46 43 47 44 49 48
56 55 54 54 54 54 58 58 58 55 55 52 53 49 50 49 49 50 50 50 50 52 49 49 47 50 50 50 50 50 50 42 43 37 43 43 41 46 48 46 48 48 49 49
55 55 54 54 53 53 60 57 58 57 47 53 53 53 51 50 52 50 52 52 52 49 48 52 53 54 55 54 51 49 48 44 40 39 42 42 39 45 46 47 50 49 44 53
55 54 54 54 53 51 59 57 58 57 53 53 53 50 51 50 51 50 51 54 52 50 56 56 56 54 52 52 49 52 46 45 42 36 40 33 45 50 50 49 50 52 52 54
55 54 54 54 54 52 58 57 56 58 55 55 51 50 51 51 51 50 50 50 53 57 53 48 43 44 43 44 45 47 49 48 41 36 40 48 44 44 45 45 46 53 51 53
54 54 54 54 54 52 58 54 54 57 54 54 54 52 52 52 52 48 47 51 55 53 51 47 40 40 43 38 39 45 45 47 43 40 35 39 48 50 53 52 43 52 51 51
54 54 54 54 54 52 56 54 52 54 53 54 54 53 52 54 51 51 48 48 47 51 48 44 43 43 45 40 39 36 38 40 37 39 38 45 50 51 52 41 42 51 51 52
55 54 54 54 53 53 54 53 53 52 54 51 50 52 51 51 52 51 48 47 47 46 44 45 47 44 46 43 47 42 41 39 38 40 36 35 51 48 46 49 52 52 51 50
54 54 54 53 53 53 52 54 53 53 52 49 50 50 50 49 49 52 49 49 49 53 48 47 48 44 45 47 45 45 41 48 46 46 47 51 53 51 52 52 49 49 48 49
54 54 54 54 53 52 51 54 53 52 51 50 49 47 50 52 50 52 50 51 50 49 49 49 48 43 49 44 45 46 47 49 45 44 50 50 52 51 51 50 48 48 47 46
54 55 55 54 53 51 50 53 52 51 52 47 47 51 48 50 51 50 50 50 50 50 50 48 47 44 48 47 45 44 48 45 47 47 49 50 49 51 49 49 49 48 49 48
54 55 54 54 52 50 52 52 51 50 48 46 46 47 47 48 49 48 49 50 49 50 47 45 44 47 44 45 42 42 47 47 44 47 52 51 49 50 49 47 47 48 47 47
53 53 54 53 51 50 51 47 49 50 49 46 42 45 44 46 48 47 47 48 48 49 48 47 49 45 44 41 41 51 51 51 52 50 51 50 49 49 49 47 47 48 47 48
53 53 53 52 51 50 47 45 47 48 49 44 40 38 42 44 45 45 45 46 46 47 46 42 44 44 43 41 38 49 50 50 49 50 49 45 48 46 47 47 47 47 47 48
53 53 52 51 50 48 46 47 47 48 46 44 36 35 37 41 40 39 42 42 43 42 44 42 41 41 40 35 46 47 48 49 47 47 47 48 47 47 46 46 46 45 47 48
52 51 50 49 47 45 46 46 46 47 45 39 36 35 34 40 39 40 40 42 36 40 38 38 38 38 32 41 45 45 46 45 45 45 45 45 44 44 45 45 45 44 44 45
50 48 44 40 43 46 46 44 42 42 42 41 36 39 34 39 38 37 38 39 37 32 37 38 32 35 43 45 46 49 47 46 46 40 39 40 40 42 43 43 44 44 43 43
45 40 39 39 46 43 40 36 35 37 34 38 38 37 34 39 36 38 39 35 36 30 33 32 32 32 40 45 46 46 47 47 45 46 44 43 42 41 41 42 43 43 43 42
45 42 42 40 38 35 33 33 33 31 33 35 34 35 38 37 40 38 35 33 32 28 35 30 27 37 40 42 43 44 46 46 44 44 44 44 43 44 43 42 42 42 42 41
43 39 34 34 33 29 29 26 29 30 35 32 32 31 36 35 38 36 34 29 29 35 28 28 34 38 41 42 43 42 42 42 42 43 44 43 43 42 41 40 41 42 42 43
34 32 29 32 29 32 34 35 34 35 35 33 35 32 34 36 33 34 28 32 32 25 24 27 38 39 42 43 43 44 44 43 38 37 39 38 35 36 37 37 39 39 39 40
32 32 30 30 36 33 34 34 34 33 37 34 32 33 36 32 29 33 30 25 24 28 29 35 37 40 42 42 42 43 42 43 42 42 38 35 34 34 36 38 39 39 39 38
32 31 30 34 33 29 31 33 32 34 35 35 35 31 30 30 31 28 27 27 26 31 34 37 40 39 40 40 41 41 42 41 41 41 40 40 39 38 38 40 39 39 38 37
31 30 35 35 35 33 34 37 35 37 35 32 32 28 29 29 28 27 31 29 33 35 35 37 38 39 40 40 40 39 39 39 39 39 39 38 39 38 35 33 38 39 38 38

GFSNW_sfc_temp_132.txt.gz
Temp
56 56 56 56 56 56 52 54 48 56 57 48 49 40 48 50 51 52 50 49 49 46 45 44 43 43 45 52 52 46 47 43 30 38 45 48 44 42 44 33 32 35 32 33
56 56 56 56 56 55 54 53 54 57 55 42 42 48 49 52 50 50 50 49 50 50 44 40 44 44 51 52 48 43 46 40 26 29 37 42 39 43 45 43 39 33 29 33
56 56 55 55 56 55 52 52 44 53 55 53 50 47 48 47 50 51 52 51 52 48 45 47 42 43 47 49 48 48 47 43 36 30 33 41 35 41 44 41 28 34 35 37
56 55 55 55 54 55 51 53 47 48 44 48 49 48 49 47 46 50 52 48 50 48 42 43 42 44 44 47 47 46 45 36 33 40 42 41 40 41 41 38 39 33 37 40
56 55 55 54 54 54 51 48 49 49 49 49 48 44 45 47 47 47 47 46 48 49 43 44 42 46 44 43 43 43 45 34 34 29 39 38 35 40 42 42 42 42 42 40
55 55 54 54 54 53 53 52 54 50 46 48 46 45 47 48 49 47 50 49 47 45 44 47 48 48 48 46 43 43 42 35 31 28 34 35 30 37 40 41 43 43 36 43
55 55 54 54 54 52 52 51 50 49 46 47 48 48 49 48 47 45 49 50 46 45 50 49 49 47 47 46 44 45 40 37 32 24 29 21 37 41 43 44 45 46 45 45
55 54 54 54 54 54 52 52 49 48 44 48 48 47 47 47 46 45 47 47 48 51 45 40 35 35 36 39 41 40 42 39 30 24 27 36 36 38 39 39 38 44 45 46
56 54 54 54 54 53 52 49 49 48 44 45 51 48 47 43 42 41 43 46 50 46 43 39 29 30 34 29 32 39 42 40 33 29 26 26 36 41 47 43 32 43 46 44
56 54 54 54 54 53 50 49 50 47 44 47 47 45 45 47 44 42 42 42 41 44 37 34 32 31 35 30 29 27 30 31 27 28 27 34 42 44 45 32 36 44 44 42
55 54 54 54 53 53 49 49 50 46 45 45 47 49 45 45 45 42 42 41 41 38 34 35 35 32 34 32 36 33 32 28 27 30 28 25 45 42 37 41 43 44 42 41
55 55 54 54 53 53 51 48 51 50 44 43 47 47 46 45 45 44 44 42 44 43 38 37 36 34 35 36 32 37 32 39 35 36 35 43 43 42 44 44 43 42 40 40
54 55 54 54 53 53 50 47 47 47 44 43 42 42 45 50 47 48 42 43 45 43 41 39 38 34 38 33 34 35 38 41 37 38 39 41 44 44 43 42 41 41 41 40
55 55 55 54 53 52 50 46 47 45 44 39 39 49 43 46 48 47 46 45 45 45 42 39 37 35 40 36 37 35 38 38 38 38 40 42 42 43 43 43 43 42 42 41
54 54 54 54 52 51 49 47 46 46 42 38 39 43 43 45 45 44 44 45 44 41 37 35 35 38 37 37 34 32 39 38 36 36 43 40 40 42 43 42 41 41 40 41
54 53 54 53 51 51 48 42 44 46 45 39 34 40 39 42 42 42 41 43 42 41 39 37 39 40 37 31 32 43 43 44 44 41 42 42 43 43 43 43 42 42 40 40
53 53 53 52 51 48 44 42 44 47 45 39 34 32 38 39 39 39 39 40 39 38 38 35 37 37 37 33 30 43 44 44 43 44 42 39 40 39 42 42 42 42 41 42
53 53 52 51 50 47 43 44 47 46 42 40 32 33 33 38 35 33 37 35 37 36 34 35 35 35 34 30 39 41 43 43 42 40 40 41 41 41 40 40 40 38 40 40
52 51 50 47 46 43 42 47 47 44 41 34 32 31 32 37 35 35 35 35 31 34 32 33 34 32 29 35 39 40 41 40 39 40 39 39 38 39 39 38 38 37 37 38
50 47 43 39 42 47 46 41 38 36 37 35 31 34 30 35 34 34 32 33 30 25 31 33 31 31 38 41 41 41 42 41 39 34 32 33 33 36 35 35 38 37 37 37
45 41 38 39 47 41 38 34 33 33 31 35 32 33 31 36 32 33 35 32 30 26 27 28 30 27 34 38 38 40 40 40 39 39 38 38 37 35 36 37 38 37 37 35
45 41 41 40 37 34 32 31 31 30 28 33 32 32 34 33 35 34 31 28 30 24 32 29 26 28 35 36 37 38 38 38 38 39 38 38 37 37 36 36 36 36 36 36
43 38 33 34 32 29 28 25 24 25 30 31 31 30 31 31 33 32 31 28 27 29 27 26 25 31 35 35 36 35 34 36 37 36 37 37 37 37 35 35 36 36 36 38
34 32 28 31 27 29 29 29 29 30 32 32 32 29 30 32 30 31 28 30 29 24 23 19 25 31 34 36 37 36 36 36 32 32 35 34 32 33 34 34 35 35 35 37
32 32 29 29 31 28 28 29 29 30 35 32 29 29 32 30 29 30 28 24 22 26 21 24 28 33 35 35 36 37 36 37 37 37 33 32 31 31 32 33 33 34 35 34
32 31 31 32 29 28 27 30 30 33 34 31 31 28 29 28 29 26 25 25 20 25 26 27 31 32 34 34 36 36 36 36 36 36 36 35 34 33 33 34 34 35 35 33
31 30 32 30 30 28 32 35 30 36 32 29 31 27 27 29 26 24 27 24 29 31 28 28 32 32 34 34 34 34 33 34 34 34 34 33 35 32 28 30 34 34 34 33

GFSNW_sfc_temp_135.txt.gz
Temp
56 56 56 56 57 56 50 44 39 50 50 40 38 31 42 47 48 49 47 44 45 41 40 39 37 37 42 50 48 44 45 40 30 35 42 44 40 38 38 30 31 31 29 31
56 56 56 55 56 54 44 42 43 50 48 32 31 41 45 46 46 46 47 44 45 45 40 36 39 40 46 50 45 41 42 35 25 31 37 40 37 40 41 39 34 30 27 32
56 56 55 55 55 55 45 42 37 44 44 43 40 39 42 41 46 47 49 47 47 43 40 42 38 38 45 47 46 48 46 38 32 27 31 36 33 38 40 37 25 31 32 34
56 55 55 55 55 54 46 42 38 41 36 41 40 41 43 41 41 46 47 44 45 42 37 38 37 40 40 44 47 44 42 33 32 36 39 38 37 38 38 35 36 32 35 36
56 55 55 54 54 54 45 42 41 41 40 43 40 41 39 42 42 42 41 41 44 43 38 37 37 41 38 38 40 39 42 32 31 29 36 35 33 38 39 39 39 38 37 37
56 55 54 54 54 52 43 43 44 43 42 40 38 38 40 43 44 44 46 43 42 39 40 42 41 43 42 40 40 39 38 32 27 27 32 32 31 34 37 37 39 40 36 40
56 55 54 54 54 51 43 42 42 41 40 41 42 43 44 43 42 41 43 44 41 42 46 45 45 43 42 42 40 41 37 33 28 22 28 21 36 38 40 40 41 42 42 43
57 55 54 54 54 54 45 43 41 40 37 42 42 43 42 41 41 40 41 42 43 45 41 36 32 32 33 35 37 37 38 34 26 23 23 32 34 38 38 36 37 43 43 43
56 54 54 54 54 54 45 42 42 41 39 39 44 43 42 37 35 36 38 43 45 43 39 35 27 27 29 27 29 38 39 36 31 25 25 25 36 38 43 42 32 42 43 42
56 55 54 54 54 54 46 43 44 41 38 40 41 40 40 42 38 36 36 37 38 40 32 31 29 28 34 28 26 25 28 28 25 25 25 31 39 40 42 30 34 41 42 42
55 55 54 53 53 53 46 43 45 42 38 39 43 44 40 41 40 37 39 38 38 35 32 31 31 30 32 29 32 29 29 25 24 26 24 24 41 40 36 39 39 41 40 39
55 55 55 54 53 53 50 42 46 45 40 41 43 42 42 42 41 41 39 40 39 39 34 32 32 32 30 31 29 33 30 35 31 33 33 41 40 39 39 42 40 39 39 38
55 55 55 54 54 53 50 42 42 42 39 38 39 38 41 46 43 44 39 39 42 40 39 36 34 33 34 30 31 31 35 38 36 37 37 39 40 39 41 40 39 40 40 40
55 55 55 54 53 52 51 42 42 41 40 34 37 45 39 43 44 44 43 42 43 41 39 36 34 33 37 33 35 34 37 37 36 35 36 38 39 39 40 40 41 40 40 40
55 54 54 54 53 52 47 43 42 43 40 36 36 40 39 42 42 41 41 42 40 37 36 33 33 34 35 33 32 29 36 37 35 35 39 39 38 39 41 40 40 41 40 39
54 54 54 53 52 52 45 40 42 44 41 36 30 37 36 40 40 40 40 40 39 37 36 34 35 37 35 29 28 38 39 40 42 40 38 40 39 41 41 40 40 40 40 39
53 53 53 52 51 46 42 41 44 46 42 37 31 30 36 38 37 37 37 38 36 36 35 33 34 34 35 30 27 39 39 40 40 40 41 38 38 38 40 40 40 42 39 39
53 53 52 51 51 48 42 42 47 44 40 38 28 29 33 38 34 32 35 33 34 34 33 34 33 34 32 29 36 40 40 40 39 38 37 39 38 38 38 38 38 37 37 37
52 52 51 47 45 42 41 47 46 41 39 32 30 27 29 37 34 34 33 33 28 32 29 30 32 31 29 35 37 38 39 39 38 37 37 37 36 36 37 37 35 33 35 35
50 47 43 39 41 48 46 41 37 33 34 32 28 30 29 34 33 32 32 31 29 23 30 32 30 30 36 38 39 40 40 39 37 33 31 32 32 35 34 34 36 35 35 35
45 41 37 39 47 41 38 33 30 31 31 32 30 31 29 35 31 32 34 27 29 23 26 28 27 26 32 36 36 37 37 37 36 36 36 36 35 34 34 34 35 35 35 35
45 41 41 39 37 33 32 30 29 31 26 29 30 32 33 31 33 30 29 26 29 23 31 28 24 27 33 34 33 34 34 35 35 36 36 36 36 35 35 35 35 35 35 35
42 38 32 33 31 28 26 25 28 24 27 30 30 29 29 30 32 29 28 27 26 27 26 25 25 30 32 32 33 32 32 34 35 36 36 35 34 35 35 35 36 35 34 36
35 31 27 30 26 27 27 26 27 28 30 31 31 28 27 29 27 28 21 27 27 23 22 19 21 28 31 32 33 34 33 34 31 31 34 35 32 33 34 34 34 34 35 36
32 31 28 28 30 24 23 22 27 25 34 32 29 28 29 27 24 27 25 21 19 24 22 23 24 30 32 32 33 34 34 34 34 34 31 29 29 29 31 33 34 34 34 33
31 31 31 30 26 28 21 22 31 30 34 30 31 27 26 22 26 21 20 20 16 21 23 25 29 30 32 32 34 34 34 33 33 33 34 34 34 33 33 34 33 34 33 32
30 30 32 27 26 31 25 28 33 36 35 27 28 23 24 27 20 19 24 21 27 29 24 26 29 30 32 33 33 33 32 32 31 31 32 31 33 29 23 27 32 32 32 31

GFSNW_sfc_temp_138.txt.gz
Temp
56 56 56 56 56 55 50 42 38 48 48 38 34 30 41 47 45 46 44 43 42 39 38 37 35 37 39 47 47 40 42 38 28 34 41 41 38 36 36 29 30 29 28 31
56 56 56 56 56 54 42 41 41 47 46 30 30 39 43 45 44 44 44 42 44 42 38 34 36 37 47 48 45 42 42 35 25 32 37 38 35 38 39 36 32 29 26 31
56 56 55 55 55 55 44 41 35 42 41 40 38 37 39 39 45 45 46 45 45 41 38 40 35 36 43 46 46 48 47 37 33 28 31 35 33 35 38 36 25 29 30 32
56 55 55 55 55 54 45 40 37 39 35 39 38 39 41 39 39 44 45 42 42 40 35 36 35 37 39 44 47 42 42 33 30 33 37 36 35 35 36 34 34 32 33 35
57 55 55 55 54 54 43 41 40 40 38 40 38 39 37 39 40 40 39 39 41 40 37 36 36 39 36 37 38 38 39 31 31 28 35 35 34 36 37 36 36 35 34 35
57 55 54 54 54 52 41 40 41 42 41 38 36 37 38 40 42 42 43 41 39 38 39 40 39 39 40 40 39 37 36 31 27 27 31 33 31 34 35 35 37 39 34 40
57 55 54 54 54 50 42 40 40 40 38 39 40 41 42 41 40 40 40 41 39 40 44 43 42 41 40 39 37 38 35 31 27 21 27 21 35 36 38 38 39 40 38 40
57 54 54 54 54 54 43 40 40 39 36 38 40 41 40 39 39 38 39 40 40 42 41 34 32 31 33 34 35 35 36 32 25 23 23 31 31 35 35 35 37 41 41 40
56 55 54 54 54 54 43 40 40 39 38 38 41 41 39 36 33 35 37 41 43 41 37 33 27 26 28 27 28 35 36 33 30 24 25 25 33 36 41 39 32 39 42 39
55 56 54 53 53 53 45 42 42 40 37 38 38 39 39 40 35 34 34 36 37 39 31 31 27 27 31 27 27 26 28 27 25 24 24 30 37 40 41 29 35 39 40 40
55 56 54 54 53 53 45 42 43 41 37 38 40 41 39 39 38 35 37 37 36 33 31 30 30 28 30 26 29 28 28 24 23 24 23 24 40 38 36 39 36 39 38 39
55 55 54 54 54 53 48 41 44 43 39 39 41 40 40 40 40 40 37 38 36 37 32 30 29 30 28 29 28 29 29 33 30 31 32 39 38 37 38 40 39 38 38 38
55 55 55 54 54 53 49 41 41 41 37 37 37 37 40 44 42 43 39 37 40 39 38 34 33 32 33 30 30 29 33 36 34 35 35 38 39 37 38 39 38 39 38 38
56 55 55 54 54 53 50 42 41 41 39 33 36 43 37 42 42 42 42 41 41 39 37 35 33 33 36 32 33 32 36 36 35 34 36 35 38 38 39 39 39 39 38 38
55 55 54 54 53 52 45 42 42 42 41 36 35 38 39 41 41 40 40 41 39 36 34 32 33 32 33 30 30 29 35 36 35 35 39 38 39 39 39 38 38 38 39 38
54 54 54 53 52 50 44 39 42 43 42 36 30 36 36 39 39 39 38 38 37 35 35 33 33 36 34 28 27 36 36 38 40 39 36 38 37 39 39 39 39 39 39 39
53 53 53 52 52 47 41 41 43 46 42 37 32 32 35 36 36 35 36 37 35 35 34 32 32 33 34 29 27 38 38 38 36 37 39 37 37 38 40 40 39 42 38 38
53 53 53 52 51 48 42 42 47 44 39 37 26 28 32 38 33 31 33 32 33 33 32 32 31 32 30 29 36 37 37 38 37 36 38 40 38 37 37 37 37 36 36 36
52 52 51 47 45 42 41 48 46 40 39 29 29 26 28 36 34 34 33 32 27 31 29 30 32 29 28 35 37 37 38 38 37 35 36 36 35 35 35 35 35 33 34 34
51 48 44 39 41 48 46 41 36 32 33 34 29 29 28 34 32 32 30 30 27 20 29 30 29 29 36 38 38 38 38 38 36 33 31 31 31 33 33 34 34 34 34 34
45 41 37 40 47 41 38 34 33 30 30 31 30 31 29 35 31 31 33 26 27 19 24 27 26 26 32 36 36 36 37 36 35 35 35 35 35 33 34 34 34 34 33 33
44 41 41 40 37 34 32 31 29 30 27 28 30 32 31 30 33 31 29 26 29 24 30 28 24 28 33 34 32 33 33 35 35 35 35 35 35 35 34 34 33 33 34 34
42 37 32 32 31 28 28 24 28 25 25 29 30 28 29 29 31 28 28 27 26 29 26 23 25 30 31 31 31 31 32 33 34 34 35 35 34 34 33 34 34 34 33 34
35 31 28 29 26 28 26 25 29 28 27 30 29 27 28 29 27 27 20 27 27 23 21 20 23 28 30 30 31 32 31 32 30 32 34 33 30 30 31 32 32 32 32 33
32 31 28 28 30 26 22 21 26 26 33 31 28 27 28 27 26 27 25 24 22 23 21 24 25 28 30 30 31 32 32 33 33 33 29 25 24 24 29 31 31 31 31 30
31 30 30 31 24 28 26 19 25 28 34 29 29 28 23 23 24 25 22 17 15 22 23 25 28 29 30 31 31 32 33 32 32 31 32 32 31 30 30 30 30 30 29 29
31 28 33 31 23 25 24 27 29 36 35 27 26 21 24 25 19 20 22 20 25 25 24 25 31 31 31 31 32 32 32 31 30 29 30 30 30 24 18 21 30 29 30 28